     2.10           OBSERVATION DATA    G (GPS)             RINEX VERSION / TYPE
teqc 2000Jul20 Karen Wendt 20040726 21:09:41UTC             PGM / RUN BY / DATE
Linux 2.0.36|Pentium II|gcc -static|Linux|486/DX+           COMMENT
teqc 2000Jul20 Karen Wendt 20040726 21:09:41UTC             COMMENT
BIT 2 OF LLI FLAGS DATA COLLECTED UNDER A/S CONDITION       COMMENT
hp14 HPGN_01-04_1991_Cal_Trans                              MARKER NAME
CHS USGS                                                    OBSERVER / AGENCY
LP019992809 ASHTECH Z-XII3 CD00                             REC # / TYPE / VERS
CR520031626 ASH701945E_M NONE                               ANT # / TYPE
 -2687274.0000 -4106435.0000  4060802.0000                  APPROX POSITION XYZ
        1.3692        0.0000        0.0000                  ANTENNA: DELTA H/E/N
     1     1                                                WAVELENGTH FACT L1/2
     5    C1    L1    L2    P1    P2                        # / TYPES OF OBSERV
    30.0000                                                 INTERVAL
                                                            COMMENT
National Earthquake Hazard Reduction Program                COMMENT
Crustal Strain Project                                      COMMENT
345 Middlefield Road, MS/977                                COMMENT
U.S. Geological Survey, Menlo Park, California 94025        COMMENT
Contact: kwendt@usgs.gov (Ph: 650-329-4866)                 COMMENT
Antenna height is vertical to base of antenna               COMMENT
                                                            COMMENT
SNR is mapped to RINEX snr flag value [1-9]                 COMMENT
L1: 1 -> 1; 90 -> 5; 210 -> 9                               COMMENT
L2: 1 -> 1; 150 -> 5; 250 -> 9                              COMMENT
  2004     7    14    15    36   30.0000000     GPS         TIME OF FIRST OBS
                                                            END OF HEADER
 04  7 14 15 36 30.0000000  0  8G22G21G 3G18G16G15G14G26
                    -94529.24249    -69141.67143
                     84754.12349     61303.36343
  22246189.178     -169414.24249   -123923.55646  22246189.394
  22246196.121       59649.27949     44042.39443
                    173709.94049    127545.20745                  24552960.423
  20832205.496     -137236.36549    -97806.96447  20832204.285    20832210.478
  24000645.223     -322051.39149   -229765.69645  24000645.529    24000652.098
  24075342.976      240243.82749    173454.90045  24075344.036    24075351.096
 04  7 14 15 36 59.9990000  0  8G22G21G 3G18G16G15G14G26
                   -128861.29949    -96471.56143
                    116708.86249     10203.87247                  20865096.426
  21935225.934     -228116.03149   -169665.20147  21935226.408
  21935233.019       82553.65849      7327.99147                  20520938.767
  24265837.425      240329.70449    179456.61245  24265838.759    24265845.250
  20522877.880     -187345.21849   -136852.83747  20522876.438    20522882.646
  23678245.708     -440853.63049   -322338.83345  23678244.872    23678252.517
  23792813.152      330968.62449    244149.53845  23792813.978    23792823.085
 04  7 14 15 37 30.0000000  0  9G22G21G 3G18G16G 6G15G14G26
                  -1612655.02049  -1133970.15845                  20634615.502
  20895128.797    -1300866.31349  -1094400.20247  20895128.274    20895133.354
  21948045.228    -1736173.05949  -1344774.58647  21948045.264    21948051.795
  20549254.505    -1344043.61349  -1104306.26848  20549253.758    20549258.855
  24302448.128    -1142704.66549   -898232.58645  24302448.324    24302454.912
  24412041.070    -1195058.26149   -943821.63345  24412041.935    24412049.095
  20537288.528    -1687035.38549  -1305442.59148  20537287.372    20537293.562
  23679556.337    -2009387.96449  -1544573.33045  23679555.404    23679563.001
  23834044.054    -1027785.23849   -814619.77945  23834044.793    23834053.291
 04  7 14 15 38  0.0000000  0  9G22G21G 3G18G16G 6G15G14G26
  20629514.656    -1639442.33149  -1154843.37647  20629514.364    20629517.876
  20902618.891    -1261506.17149  -1063730.00548  20902618.328    20902623.455
  21938351.773    -1787113.95549  -1384468.78947  21938351.555    21938358.115
  20555032.533    -1313679.32849  -1080645.81648  20555031.848    20555037.055
  24316487.265    -1068934.09249   -840749.10745  24316486.987    24316493.037
  24433309.391    -1083282.87049   -856723.96845  24433310.042    24433319.528
  20529143.645    -1729836.31549  -1338793.97648  20529142.640    20529148.868
  23658283.487    -2121177.60549  -1631682.14745  23658282.701    23658290.058
  23852736.180     -929560.29449   -738080.92645  23852736.523    23852744.834
 04  7 14 15 38 30.0000000  0  9G22G21G 3G18G16G 6G15G14G26
  20624489.535    -1665849.30849  -1175420.25048  20624489.203    20624492.876
  20910168.258    -1221833.89749  -1032816.58648  20910167.712    20910172.881
  21928751.708    -1837562.88649  -1423779.65147  21928751.441    21928758.016
  20560874.682    -1282978.46549  -1056723.09248  20560874.053    20560879.292
  24330559.381     -994983.91149   -783125.68045  24330558.954    24330565.127
  24454591.691     -971444.94549   -769577.60245  24454592.878    24454600.995
  20521049.103    -1772372.95749  -1371939.42648  20521048.204    20521054.449
  23637033.216    -2232848.24649  -1718698.16945  23637032.463    23637039.851
  23871495.621     -830981.27849   -661266.16845  23871495.726    23871503.627
 04  7 14 15 39  0.0000000  0  9G22G21G 3G18G16G 6G15G14G26
  20619536.916    -1691875.22349  -1195700.19648  20619536.642    20619540.320
  20917777.229    -1181848.69049  -1001659.33148  20917776.704    20917781.890
  21919245.840    -1887516.99649  -1462704.94347  21919245.522    21919252.151
  20566780.822    -1251941.45349  -1032538.44248  20566780.224    20566785.477
  24344665.078     -920856.08149   -725363.80245  24344664.939    24344670.973
  24475886.048     -859545.63349   -682383.35445  24475887.586    24475894.366
  20513005.351    -1814643.00949  -1404877.14648  20513004.522    20513010.745
  23615806.263    -2344395.93549  -1805618.40945  23615805.698    23615813.031
  23890321.835     -732050.24949   -584177.08545  23890321.954    23890329.513
 04  7 14 15 39 30.0000000  0  8G22G21G 3G18G16G15G14G26
  20614656.917    -1717519.99249  -1215683.14048  20614656.690    20614660.309
  20925445.998    -1141549.65449   -970257.52448  20925445.435    20925450.605
  21909834.492    -1936974.14349  -1501242.98547  21909834.138    21909840.806
  20572750.805    -1220569.12449  -1008092.50348  20572750.231    20572755.506
  24358804.715     -846553.23249   -667465.54345  24358804.371    24358810.206
  20505012.731    -1856644.75149  -1437605.78848  20505011.896    20505018.118
  23594603.351    -2455817.52749  -1892440.41345  23594602.766    23594610.083
  23909214.582     -632769.75849   -506815.72545  23909214.615    23909222.075
 04  7 14 15 40  0.0000000  0  8G22G21G 3G18G16G15G14G26
  20609849.230    -1742785.21949  -1235370.33848  20609848.978    20609852.472
  20933174.245    -1100937.72049   -938611.90948  20933173.665    20933178.838
  21900517.737    -1985933.83249  -1539393.40047  21900517.387    21900524.098
  20578784.043    -1188864.29949   -983387.47848  20578783.485    20578788.766
  24372977.018     -772079.45049   -609434.07145  24372976.329    24372982.441
  20497071.187    -1898377.94049  -1470125.17448  20497070.383    20497076.626
  23573424.766    -2567111.57249  -1979163.01845  23573424.178    23573431.542
  23928172.917     -533144.22149   -429185.52045  23928172.850    23928180.335
 04  7 14 15 40 30.0000000  0  8G22G21G 3G18G16G15G14G26
  20605113.586    -1767671.76549  -1254762.46248  20605113.307    20605116.726
  20940961.912    -1060013.58249   -906723.01447  20940961.304    20940966.509
  21891295.915    -2034394.86249  -1577155.25547  21891295.532    21891302.306
  20584880.307    -1156828.44149   -958424.50648  20584879.754    20584885.022
  24387181.003     -697437.98749   -551271.98045  24387180.067    24387186.680
  20489181.010    -1939841.62349  -1502434.55548  20489180.166    20489186.406
  23552271.034    -2678275.31349  -2065784.09745  23552270.372    23552277.705
  23947196.155     -433176.89949   -351288.95945  23947196.081    23947203.519
 04  7 14 15 41  0.0000000  0  8G22G21G 3G18G16G15G14G26
  20600449.922    -1792179.57949  -1273859.47148  20600449.645    20600453.052
  20948809.189    -1018776.04649   -874589.91947  20948808.591    20948813.803
  21882169.521    -2082354.59749  -1614526.48747  21882169.189    21882175.921
  20591039.389    -1124462.59249   -933204.39048  20591038.820    20591044.073
  24401415.598     -622631.52649   -492981.32845  24401414.862    24401422.561
  20481342.355    -1981034.17049  -1534532.65748  20481341.532    20481347.773
  23531142.495    -2789305.84949  -2152301.37245  23531141.800    23531149.382
  23966283.800     -332870.56349   -273128.22945  23966283.817    23966291.249
 04  7 14 15 41 30.0000000  0  9G22G21G 3G19G18G16G15G14G26
  20595858.031    -1816310.18749  -1292662.55448  20595857.754    20595861.189
  20956716.063     -977225.66249   -842213.04247  20956715.438    20956720.653
  21873138.705    -2129812.33349  -1651506.54647  21873138.351    21873145.005
  24798415.895    -2784642.43149  -2150005.86845  24798414.904    24798420.128
  20597260.794    -1091769.23349   -907729.07148  20597260.243    20597265.492
  24415681.046     -547664.14749   -434565.30345  24415680.825    24415688.524
  20473555.381    -2021955.17349  -1566419.16648  20473554.583    20473560.846
  23510039.576    -2900201.17049  -2238713.28445  23510039.198    23510046.894
  23985435.189     -232229.46249   -194706.65245  23985435.218    23985442.831
 04  7 14 15 42  0.0000000  0  9G22G21G 3G19G18G16G15G14G26
  20591337.736    -1840064.54149  -1311172.45748  20591337.464    20591340.943
  20964682.170     -935363.85249   -809593.50447  20964681.533    20964686.739
  21864203.665    -2176767.17149  -1688094.75147  21864203.267    21864209.813
  24779100.921    -2886142.27149  -2229096.63745  24779100.186    24779105.397
  20603544.118    -1058750.29849   -882000.06948  20603543.564    20603548.839
  24429976.716     -472539.61449   -376026.77645  24429976.639    24429984.137
  20465820.197    -2062604.16549  -1598093.72548  20465819.388    20465825.643
  23488963.204    -3010959.27949  -2325018.29845  23488962.689    23488970.282
  24004649.488     -131257.34749   -116027.13945  24004649.557    24004657.292
 04  7 14 15 42 30.0000000  0  9G22G21G 3G19G18G16G15G14G26
  20586889.434    -1863440.72549  -1329387.68048  20586889.163    20586892.676
  20972708.247     -893187.00049   -776728.47847  20972707.567    20972712.738
  21855365.008    -2223215.03749  -1724287.90147  21855364.606    21855371.042
  24759816.663    -2987481.06349  -2308061.91345  24759815.955    24759821.258
  20609889.578    -1025404.87849   -856016.66048  20609889.031    20609894.282
  24444302.460     -397258.25149   -317366.05645  24444302.191    24444309.298
  20458137.473    -2102977.29949  -1629553.32248  20458136.667    20458142.930
  23467913.688    -3121575.23649  -2411212.52645  23467913.211    23467920.677
  24023926.854      -29954.61549    -37090.01645  24023927.011    24023934.562
 04  7 14 15 43  0.0000000  0  9G22G21G 3G19G18G16G15G14G26
  20582512.873    -1886439.91749  -1347309.14548  20582512.613    20582516.154
  20980794.110     -850695.71949   -743618.43847  20980793.449    20980798.613
  21846623.138    -2269154.40349  -1760084.83047  21846622.718    21846629.042
  24740563.688    -3088656.54749  -2386899.95145  24740562.855    24740568.239
  20616296.836     -991734.77649   -829780.24948  20616296.285    20616301.492
  24458657.236     -321823.71749   -258585.99145  24458657.003    24458664.014
  20450507.415    -2143073.67349  -1660797.26248  20450506.599    20450512.906
  23446891.667    -3232046.06149  -2497293.70945  23446891.316    23446898.699
  24043266.426       71675.06349     42101.89545  24043266.493    24043274.128
 04  7 14 15 43 30.0000000  0  9G22G21G 3G19G18G16G15G14G26
  20578207.886    -1909062.97049  -1364937.51248  20578207.613    20578211.120
  20988939.734     -807890.63649   -710263.87647  20988939.070    20988944.214
  21837978.139    -2314584.44549  -1795484.87047  21837977.693    21837983.976
  24721341.806    -3189666.97449  -2465609.31845  24721341.092    24721346.744
  20622765.532     -957742.09949   -803292.47948  20622764.967    20622770.158
  24473040.448     -246239.50849   -199689.29045  24473040.267    24473047.209
  20442930.208    -2182892.62149  -1691825.03148  20442929.364    20442935.708
  23425897.664    -3342370.02349  -2583260.38845  23425897.189    23425904.787
  24062667.181      173627.87749    121545.59645  24062667.403    24062675.122
 04  7 14 15 44  0.0000000  0  9G22G21G 3G19G18G16G15G14G26
  20573974.086    -1931312.16949  -1382274.56548  20573973.794    20573977.271
  20997144.622     -764773.60249   -676666.24347  20997143.990    20997149.132
  21829430.013    -2359505.15149  -1830488.02847  21829429.560    21829435.843
  24702151.826    -3290511.69649  -2544189.60545  24702150.927    24702156.613
  20629294.935     -923430.07649   -776555.87248  20629294.377    20629299.550
  24487451.462     -170510.30849   -140679.62745  24487451.259    24487458.493
  20435405.601    -2222434.80749  -1722637.13348  20435404.764    20435411.084
  23404931.820    -3452546.02249  -2669111.77345  23404931.322    23404939.083
  24082128.922      275899.15549    201237.43045  24082129.048    24082136.875
 04  7 14 15 44 30.0000000  0  9G22G21G 3G19G18G16G15G14G26
  20569811.004    -1953189.47349  -1399321.82848  20569810.716    20569814.175
  21005408.821     -721345.36049   -642826.11247  21005408.208    21005413.282
  21820978.861    -2403916.33849  -1865094.15747  21820978.421    21820984.724
  24682993.446    -3391189.48249  -2622639.80945  24682992.330    24682998.360
  20635884.552     -888801.56249   -749572.65348  20635883.985    20635889.156
  24501889.698      -94640.70249    -81560.55945  24501889.164    24501896.764
  20427933.587    -2261700.31749  -1753233.65048  20427932.756    20427939.096
  23383994.508    -3562572.77749  -2754846.91945  23383994.058    23384001.732
  24101650.441      378484.24149    281173.78945  24101650.494    24101658.309
 04  7 14 15 45  0.0000000  0  9G22G21G 3G19G18G16G15G14G26
  20565720.699    -1974684.25549  -1416071.02448  20565720.418    20565723.901
  21013734.370     -677594.84649   -608734.85347  21013733.715    21013738.789
  21812627.089    -2447805.42849  -1899293.46347  21812626.653    21812632.923
  24663869.094    -3491686.71149  -2700949.29145  24663868.030    24663874.403
  20642536.321     -853846.60649   -722335.05948  20642535.760    20642540.933
  24516356.103      -18622.36849    -22325.60245  24516355.419    24516362.722
  20420516.667    -2300676.78649  -1783604.93348  20420515.831    20420522.197
  23363087.893    -3672436.49649  -2840454.99445  23363087.471    23363095.186
  24121233.133      481391.22349    361361.01345  24121233.188    24121241.048
 04  7 14 15 45 30.0000000  0  9G22G21G 3G19G18G16G15G14G26
  20561700.844    -1995808.94649  -1432531.83548  20561700.561    20561704.078
  21022118.975     -633533.62349   -574401.48247  21022118.340    21022123.443
  21804372.735    -2491182.58649  -1933093.85147  21804372.267    21804378.523
  24644777.257    -3592012.87149  -2779125.45745  24644776.227    24644782.895
  20649247.708     -818578.52149   -694853.46048  20649247.144    20649252.320
  24530847.607       57529.50249     37013.43045  24530846.798    24530853.668
  20413152.686    -2339374.80349  -1813759.24348  20413151.869    20413158.261
  23342210.631    -3782146.26449  -2925943.07745  23342210.185    23342218.189
  24140874.313      584604.94149    441787.22045  24140874.250    24140881.978
 04  7 14 15 46  0.0000000  0  9G22G21G 3G19G18G16G15G14G26
  20557751.370    -2016563.86049  -1448704.51548  20557751.085    20557754.609
  21030562.763     -589161.46049   -539825.82347  21030562.105    21030567.226
  21796216.145    -2534045.93749  -1966493.87747  21796215.694    21796221.898
  24625718.422    -3692165.05849  -2857166.10445  24625717.641    24625724.486
  20656018.357     -782998.59149   -667128.87348  20656017.796    20656022.967
  24545363.645      133812.29449     96454.48945  24545362.840    24545369.713
  20405841.981    -2377792.82049  -1843695.37748  20405841.150    20405847.553
  23321363.451    -3891698.79349  -3011308.66345  23321363.065    23321371.036
  24160573.129      688122.64549    522450.29645  24160573.084    24160580.870
 04  7 14 15 46 30.0000000  0  9G22G21G 3G19G18G16G15G14G26
  20553873.201    -2036944.00549  -1464585.15448  20553872.900    20553876.403
  21039066.772     -544472.99949   -505003.69147  21039066.058    21039071.261
  21788158.713    -2576388.57149  -1999488.14847  21788158.242    21788164.407
  24606694.691    -3792135.14849  -2935064.81045  24606693.830    24606700.772
  20662849.119     -747102.80749   -639158.15748  20662848.578    20662853.783
  24559904.632      210228.39249    155999.37545  24559904.272    24559911.229
  20398585.843    -2415924.06349  -1873408.04048  20398585.023    20398591.417
  23300547.922    -4001086.05649  -3096545.47545  23300547.546    23300555.270
  24180330.259      791946.62749    603352.05145  24180330.186    24180338.040
 04  7 14 15 47  0.0000000  0  9G22G21G 3G19G18G16G15G14G26
  20550065.654    -2056953.02849  -1480176.61448  20550065.356    20550068.839
  21047630.402     -499470.79249   -469937.09447  21047629.709    21047634.985
  21780199.976    -2618212.17849  -2032077.98347  21780199.521    21780205.668
  24587705.993    -3891923.73149  -3012822.12045  24587704.966    24587711.764
  20669739.169     -710895.60649   -610944.79748  20669738.627    20669743.879
  24574470.543      286771.56649    215643.32545  24574470.107    24574477.326
  20391383.956    -2453770.34249  -1902898.66548  20391383.149    20391389.548
  23279763.755    -4110308.26849  -3181653.66745  23279763.246    23279770.886
  24200144.451      896070.71249    684487.63145  24200144.458    24200152.244
 04  7 14 15 47 30.0000000  0  9G22G21G 3G19G18G16G15G14G26
  20546328.665    -2076590.94649  -1495478.89648  20546328.393    20546331.879
  21056253.931     -454153.97749   -434625.33847  21056253.309    21056258.609
  21772340.445    -2659514.54849  -2064261.65547  21772340.003    21772346.167
  24568752.214    -3991527.72349  -3090435.57945  24568751.047    24568757.770
  20676688.305     -674377.89149   -582489.46048  20676687.757    20676693.049
  24589060.966      363439.69149    275384.63745  24589060.177    24589067.277
  20384236.678    -2491329.59349  -1932165.62848  20384235.877    20384242.345
  23259011.533    -4219362.07749  -3266630.62646  23259011.102    23259018.709
  24220015.272     1000492.37749    765855.10945  24220015.293    24220022.911
 04  7 14 15 48  0.0000000  0  9G22G21G 3G19G18G16G15G14G26
  20542662.205    -2095858.20949  -1510492.36248  20542661.941    20542665.476
  21064937.424     -408522.74749   -399068.58447  21064936.737    21064942.016
  21764580.478    -2700293.81349  -2096037.72747  21764580.004    21764586.190
  24549834.271    -4090944.68949  -3167903.30845  24549833.043    24549839.401
  20683696.302     -637550.97649   -553793.19148  20683695.755    20683701.058
  24603674.067      440229.77349    335221.01145  24603673.062    24603680.193
  20377144.327    -2528600.52849  -1961207.93148  20377143.507    20377149.956
  23238291.804    -4328244.80049  -3351474.26146  23238291.446    23238299.039
  24239942.084     1105208.61249    847452.10545  24239942.077    24239949.785
 04  7 14 15 48 30.0000000  0  9G22G21G 3G19G18G16G15G14G26
  20539066.442    -2114754.33649  -1525216.63348  20539066.190    20539069.718
  21073680.857     -362576.12049   -363266.07147  21073680.165    21073685.426
  21756920.466    -2740547.77249  -2127404.46047  21756919.988    21756926.203
  24530952.475    -4190170.78449  -3245222.31445  24530951.365    24530957.391
  20690763.043     -600415.30949   -524856.33648  20690762.493    20690767.769
  24618308.698      517140.32549    395151.21744  24618308.049    24618315.491
  20370107.214    -2565580.79949  -1990023.74048  20370106.409    20370112.807
  23217605.428    -4436952.67649  -3436181.69846  23217605.066    23217612.636
  24259924.796     1210217.39249    929277.06845  24259924.782    24259932.444
 04  7 14 15 49  0.0000000  0  9G22G21G 3G19G18G16G15G14G26
  20535541.095    -2133280.58149  -1539652.67748  20535540.811    20535544.318
  21082484.252     -316314.31549   -327217.95947  21082483.590    21082488.864
  21749360.524    -2780275.41349  -2158361.07447  21749360.051    21749366.336
  24512107.173    -4289204.17849  -3322391.15945  24512106.192    24512111.963
  20697888.142     -562972.87349   -495680.43548  20697887.600    20697892.860
  24632965.857      594166.20649    455171.26445  24632965.553    24632972.990
  20363125.598    -2602269.63649  -2018612.45548  20363124.802    20363131.196
  23196952.694    -4545483.38049  -3520750.98046  23196952.344    23196960.010
  24279962.299     1315514.95649   1011327.07345  24279962.272    24279969.889
 04  7 14 15 49 30.0000000  0  9G22G21G 3G19G18G16G15G14G26
  20532085.956    -2151437.85149  -1553801.21248  20532085.663    20532089.141
  21091347.660     -269737.09949   -290924.08147  21091347.004    21091352.261
  21741900.952    -2819475.61749  -2188906.70547  21741900.525    21741906.854
  24493298.877    -4388042.64549  -3399408.09245  24493297.813    24493303.356
  20705071.330     -525225.23049   -466266.72448  20705070.788    20705076.051
  24647646.018      671305.65649    515279.81245  24647645.079    24647652.118
  20356199.692    -2638665.94649  -2046973.23948  20356198.867    20356205.289
  23176334.312    -4653834.52649  -3605180.41446  23176333.868    23176341.442
  24300053.959     1421097.92549   1093599.42945  24300054.003    24300061.724
 04  7 14 15 50  0.0000000  0  9G22G21G 3G19G18G16G15G14G26
  20528700.773    -2169227.33549  -1567663.15548  20528700.476    20528703.909
  21100270.856     -222845.60849   -254385.30547  21100270.207    21100275.447
  21734541.953    -2858147.53249  -2219040.67347  21734541.520    21734547.887
  24474527.879    -4486684.14549  -3476271.56445  24474526.748    24474532.385
  20712312.158     -487174.76849   -436617.04148  20712311.605    20712316.864
  24662346.584      748554.26249    575473.48645  24662345.393    24662352.174
  20349329.460    -2674769.28249  -2075105.72148  20349328.633    20349335.062
  23155750.652    -4762003.95849  -3689468.24946  23155750.107    23155757.459
  24320199.311     1526962.39949   1176091.17345  24320199.356    24320207.091
 04  7 14 15 50 30.0000000  0  9G22G21G 3G19G18G16G15G14G26
  20525385.693    -2186648.49649  -1581238.09948  20525385.401    20525388.816
  21109254.130     -175638.63549   -217600.70147  21109253.488    21109258.699
  21727283.916    -2896288.56249  -2248760.97747  21727283.504    21727289.921
  24455795.051    -4585125.12049  -3552978.79445  24455794.066    24455799.733
  20719610.617     -448821.55449   -406731.45048  20719610.032    20719615.269
  24677066.949      825910.49049    635750.96145  24677065.773    24677072.625
  20342515.492    -2710577.11749  -2103007.94648  20342514.650    20342521.066
  23135202.132    -4869987.81149  -3773611.45946  23135201.623    23135208.840
  24340398.110     1633106.46849   1258800.75345  24340397.993    24340405.808
 04  7 14 15 51  0.0000000  0  9G22G21G 3G19G18G16G15G14G26
  20522140.483    -2203702.14549  -1594526.67248  20522140.198    20522143.653
  21118297.480     -128115.88749   -180570.04047  21118296.837    21118301.996
  21720127.227    -2933897.25749  -2278066.47447  21720126.799    21720133.270
  24437100.750    -4683362.91449  -3629527.68045  24437099.868    24437105.629
  20726966.365     -410167.04049   -376611.07848  20726965.760    20726970.994
  24691806.524      903371.28749    696109.91345  24691805.700    24691813.229
  20335758.012    -2746088.06949  -2130678.83048  20335757.208    20335763.590
  23114689.289    -4977783.20049  -3857607.81846  23114688.704    23114695.987
  24360649.316     1739527.04049   1341725.83545  24360649.264    24360656.917
 04  7 14 15 51 30.0000000  0  8G22G21G 3G19G18G15G14G26
  20518965.208    -2220388.19249  -1607528.80448  20518964.956    20518968.450
  21127401.095      -80276.69049   -143292.79147  21127400.415    21127405.561
  21713072.172    -2970971.91649  -2306955.84147  21713071.713    21713078.202
  24418446.030    -4781394.41049  -3705915.81745  24418445.142    24418450.843
  20734379.217     -371212.26449   -346256.73848  20734378.638    20734383.886
  20329057.423    -2781300.37649  -2158117.00848  20329056.587    20329062.970
  23094212.941    -5085386.93949  -3941454.81846  23094212.389    23094219.643
  24380952.449     1846221.64049   1424864.41745  24380952.538    24380960.414
 04  7 14 15 52  0.0000000  0  8G22G21G 3G19G18G15G14G26
  20515860.502    -2236703.91749  -1620242.36848  20515860.245    20515863.719
  21136565.426      -32118.13949   -105766.69247  21136564.741    21136569.925
  21706119.631    -3007508.10949  -2335425.62947  21706119.156    21706125.689
  24399831.760    -4879213.96049  -3782138.80045  24399830.809    24399836.490
  20741849.562     -331955.48449   -315667.06648  20741848.977    20741854.214
  20322414.399    -2816209.63749  -2185319.05248  20322413.576    20322419.989
  23073774.265    -5192793.66249  -4025148.34746  23073773.658    23073780.717
  24401308.074     1953190.20149   1508216.46345  24401308.115    24401316.070
 04  7 14 15 52 30.0000000  0  8G22G21G 3G19G18G15G14G26
  20512824.653    -2252657.66349  -1632673.87148  20512824.377    20512827.822
  21145789.142       16352.66849    -67997.27447  21145788.495    21145793.720
  21699268.393    -3043511.79949  -2363480.47847  21699267.959    21699274.468
  24381257.168    -4976826.24149  -3858200.29945  24381255.878    24381261.584
  20749375.739     -292405.26749   -284848.74448  20749375.147    20749380.445
  20315827.907    -2850822.03649  -2212289.77148  20315827.086    20315833.504
  23053372.332    -5300007.25949  -4108691.34246  23053371.673    23053378.678
  24421713.709     2060422.25749   1591773.85445  24421713.880    24421721.685
 04  7 14 15 53  0.0000000  0  8G22G21G 3G19G18G15G14G26
  20509857.893    -2268248.13149  -1644822.30048  20509857.601    20509861.066
  21155072.655       65137.53149    -29983.12647  21155071.978    21155077.225
  21692519.102    -3078979.93949  -2391118.00847  21692518.651    21692525.127
  24362722.371    -5074226.98349  -3934096.95045  24362721.219    24362726.947
  20756957.781     -252561.44149   -253801.63848  20756957.197    20756962.534
  20309298.613    -2885134.10349  -2239026.46548  20309297.776    20309304.139
  23033007.845    -5407023.45449  -4192080.52446  23033007.181    23033014.249
  24442169.210     2167916.67949   1675535.65245  24442169.368    24442177.100
 04  7 14 15 53 30.0000000  0  7G22G21G 3G19G18G15G14
  20506960.563    -2283473.73549  -1656686.42148  20506960.257    20506963.748
  21164416.402      114239.00149      8277.72047  21164415.740    21164421.007
  21685872.560    -3113908.61449  -2418335.17747  21685872.073    21685878.505
  24344228.761    -5171411.13849  -4009824.84545  24344227.562    24344233.370
  20764595.890     -212423.07549   -222525.01648  20764595.320    20764600.655
  20302827.072    -2919142.36749  -2265526.43348  20302826.226    20302832.610
  23012681.895    -5513837.20949  -4275311.96946  23012681.242    23012688.348
 04  7 14 15 54  0.0000000  0  7G22G21G 3G19G18G15G14
  20504132.396    -2298335.71349  -1668267.19248  20504132.115    20504135.632
  21173820.231      163656.25649     46784.63747  21173819.570    21173824.863
  21679328.742    -3148297.11249  -2445131.43047  21679328.213    21679334.622
  24325776.482    -5268376.84049  -4085382.51145  24325775.426    24325781.274
  20772289.753     -171991.91549   -191020.23948  20772289.163    20772294.491
  20296413.436    -2952846.10049  -2291789.10448  20296412.616    20296419.054
  22992394.866    -5620446.48249  -4358384.07946  22992394.257    22992401.281
 04  7 14 15 54 30.0000000  0  8G22G21G 3G 9G19G18G15G14
  20501373.059    -2312836.41849  -1679566.45548  20501372.775    20501376.312
  21183283.850      213387.72149     85536.39147  21183283.178    21183288.527
  21672887.430    -3182146.22049  -2471507.37647  21672886.943    21672893.394
  24411595.755    -4039347.32149  -3136991.05845  24411595.504    24411605.904
  24307366.095    -5365123.25249  -4160769.29745  24307365.022    24307371.085
  20780038.597     -131271.73149   -159290.25048  20780038.019    20780043.328
  20290057.693    -2986246.00949  -2317815.02948  20290056.886    20290063.325
  22972146.906    -5726850.11349  -4441295.95446  22972146.304    22972153.362
 04  7 14 15 55  0.0000000  0  8G22G21G 3G 9G19G18G15G14
  20498682.053    -2326977.95349  -1690585.84548  20498681.778    20498685.275
  21192806.975      263432.11349    124531.98447  21192806.325    21192811.717
  21666548.744    -3215455.85249  -2497462.94647  21666548.331    21666554.785
  24398855.747    -4106296.95649  -3189159.52345  24398855.464    24398865.791
  24288997.797    -5461649.18449  -4235984.28445  24288996.698    24289002.690
  20787841.942      -90265.19949   -127337.13148  20787841.367    20787846.649
  20283759.861    -3019341.78249  -2343603.96148  20283759.026    20283765.438
  22951938.098    -5833046.63749  -4524046.43546  22951937.564    22951944.754
 04  7 14 15 55 30.0000000  0  8G22G21G 3G 9G19G18G15G14
  20496059.938    -2340757.47449  -1701323.14548  20496059.653    20496063.107
  21202390.377      313793.04549    163774.23747  21202389.701    21202395.141
  21660313.657    -3248221.35849  -2522994.52647  21660313.267    21660319.733
  24386174.771    -4172935.42249  -3241085.53645  24386174.453    24386184.818
  24270672.757    -5557948.37249  -4311022.59945  24270671.654    24270677.241
  20795700.260      -48969.80449    -95158.93048  20795699.687    20795704.965
  20277520.762    -3052128.37349  -2369151.98248  20277519.945    20277526.388
  22931770.019    -5939030.06849  -4606630.87746  22931769.536    22931776.805
 04  7 14 15 56  0.0000000  0  8G22G21G 3G 9G19G18G15G14
  20493506.437    -2354176.38449  -1711779.44748  20493506.161    20493509.580
  21212033.849      364469.75349    203262.55347  21212033.185    21212038.666
  21654182.282    -3280442.22249  -2548101.71347  21654181.842    21654188.274
  24373553.721    -4239259.93149  -3292766.87845  24373553.370    24373563.359
  24252391.115    -5654019.03449  -4385882.84145  24252389.989    24252395.139
  20803613.147       -7387.79249    -62757.38548  20803612.549    20803617.793
  20271340.617    -3084605.39549  -2394458.77948  20271339.823    20271346.264
  22911643.153    -6044798.22349  -4689047.56846  22911642.620    22911649.818
 04  7 14 15 56 30.0000000  0  8G22G21G 3G 9G19G18G15G14
  20491021.417    -2367235.68549  -1721955.53348  20491021.121    20491024.533
  21221737.330      415461.75749    242996.55547  21221736.657    21221742.183
  21648154.781    -3312117.36549  -2572783.66447  21648154.315    21648160.720
  24360992.829    -4305267.71049  -3344201.41745  24360992.386    24361002.444
  24234153.555    -5749858.80149  -4460563.16645  24234152.355    24234157.259
  20811580.165       34479.02649    -30133.92348  20811579.593    20811584.818
  20265219.623    -3116771.84949  -2419523.56648  20265218.791    20265225.238
  22891557.528    -6150348.74449  -4771294.69646  22891557.015    22891564.217
 04  7 14 15 57  0.0000000  0  8G22G21G 3G 9G19G18G15G14
  20488604.725    -2379935.73749  -1731851.68648  20488604.414    20488607.842
  21231500.901      466769.53749    282976.61947  21231500.228    21231505.765
  21642231.346    -3343245.43349  -2597039.32047  21642230.885    21642237.238
  24348492.898    -4370955.33949  -3395386.46845  24348492.410    24348502.410
  24215960.346    -5845464.79549  -4535061.33245  24215959.051    24215964.046
  20819601.173       76629.45749      2710.54248  20819600.590    20819605.816
  20259157.992    -3148626.10049  -2444345.08748  20259157.137    20259163.602
  22871513.854    -6255678.54349  -4853369.81646  22871513.301    22871520.575
 04  7 14 15 57 30.0000000  0  8G22G21G 3G 9G19G18G15G14
  20486256.067    -2392277.71949  -1741468.82448  20486255.780    20486259.236
  21241324.538      518392.67049    323202.40747  21241323.827    21241329.363
  21636412.076    -3373825.80249  -2620868.19847  21636411.604    21636418.025
  24336054.243    -4436320.19949  -3446320.07445  24336053.670    24336063.642
  24197811.593    -5940834.98249  -4609375.73845  24197810.545    24197815.730
  20827675.802      119061.68249     35774.58548  20827675.220    20827680.484
  20253155.918    -3180167.23049  -2468922.62048  20253155.082    20253161.588
  22851512.602    -6360785.45349  -4935271.25946  22851512.067    22851519.293
 04  7 14 15 58  0.0000000  0  8G22G21G 3G 9G19G18G15G14
  20483975.841    -2404260.51449  -1750806.07348  20483975.559    20483978.990
  21251208.463      570332.83749    363675.23147  21251207.735    21251213.240
  21630697.589    -3403855.34549  -2644267.85847  21630697.110    21630703.663
  24323678.193    -4501357.17049  -3496998.18445  24323677.518    24323687.391
  24179708.956    -6035964.88249  -4683502.89645  24179707.966    24179713.056
  20835804.141      161776.21049     69058.60348  20835803.563    20835808.812
  20247214.034    -3211392.03949  -2493253.66548  20247213.216    20247219.735
  22831554.850    -6465664.85349  -5016995.43646  22831554.253    22831561.330
 04  7 14 15 58 30.0000000  0  8G22G21G 3G 9G19G18G15G14
  20481763.414    -2415887.08649  -1759865.74348  20481763.140    20481766.552
  21261152.263      622587.85049    404393.38547  21261151.531    21261157.041
  21625087.655    -3433335.51449  -2667239.43547  21625087.184    21625093.827
  24311364.532    -4566065.01849  -3547419.81445  24311363.983    24311373.765
  24161652.167    -6130854.09749  -4757442.52045  24161651.276    24161656.267
  20843985.483      204769.27049    102559.65548  20843984.899    20843990.173
  20241332.219    -3242301.58749  -2517339.05048  20241331.378    20241337.862
  22811640.359    -6570316.28749  -5098541.96446  22811639.770    22811646.856
 04  7 14 15 59  0.0000000  0  8G22G21G 3G 9G19G18G15G14
  20479618.739    -2427157.45149  -1768647.85548  20479618.475    20479621.901
  21271156.068      675158.43449    445357.44947  21271155.356    21271160.935
  21619582.640    -3462264.50649  -2689781.52147  21619582.205    21619588.898
  24299114.087    -4630439.91749  -3597581.97845  24299113.664    24299123.200
  24143641.960    -6225499.43949  -4831192.10945  24143640.975    24143646.140
  20852219.677      248040.21849    136277.24248  20852219.089    20852224.423
  20235510.703    -3272893.76449  -2541177.13648  20235509.878    20235516.376
  22791769.832    -6674736.41049  -5179908.26246  22791769.316    22791776.316
 04  7 14 15 59 30.0000000  0  8G22G21G 3G 9G19G18G15G14
  20477541.604    -2438072.92749  -1777153.43248  20477541.323    20477544.805
  21281219.888      728044.10449    486567.03247  21281219.198    21281224.816
  21614182.666    -3490641.77249  -2711893.69347  21614182.233    21614188.934
  24286927.749    -4694479.38049  -3647482.76145  24286927.430    24286936.799
  24125678.682    -6319898.64749  -4904749.89345  24125677.580    24125682.710
  20860506.388      291587.12449    170209.86048  20860505.832    20860511.167
  20229749.725    -3303167.87349  -2564767.37648  20229748.926    20229755.460
  22771943.838    -6778923.06749  -5261092.64246  22771943.331    22771950.136
 04  7 14 16  0  0.0000000  0  8G22G21G 3G 9G19G18G15G14
  20475531.818    -2448634.53149  -1785383.26048  20475531.534    20475535.021
  21291343.643      781244.45749    528021.83147  21291342.950    21291348.545
  21608887.863    -3518466.48249  -2733575.30347  21608887.408    21608894.101
  24274805.720    -4758180.43649  -3697119.87245  24274805.372    24274814.645
  24107762.562    -6414049.61649  -4978114.25945  24107761.374    24107766.424
  20868845.218      335407.90849    204355.89948  20868844.669    20868850.007
  20224049.554    -3333122.74549  -2588108.85848  20224048.752    20224055.276
  22752162.732    -6882873.88949  -5342093.23646  22752162.176    22752168.903
 04  7 14 16  0 30.0000000  0  8G22G21G 3G 9G19G18G15G14
  20473589.412    -2458842.07149  -1793337.19748  20473589.129    20473592.591
  21301527.428      834760.33049    569722.46847  21301526.720    21301532.289
  21603698.618    -3545736.72549  -2754824.86347  21603698.151    21603704.748
  24262748.892    -4821539.24749  -3746490.28445  24262748.539    24262757.701
  24089894.123    -6507948.66149  -5051282.31345  24089892.924    24089898.048
  20877236.199      379502.47849    238715.27348  20877235.620    20877240.965
  20218410.535    -3362756.28149  -2611199.94448  20218409.716    20218416.235
  22732427.228    -6986585.10149  -5422907.13546  22732426.559    22732433.237
 04  7 14 16  1  0.0000000  0  8G22G21G 3G 9G19G18G15G14
  20471714.092    -2468697.16349  -1801016.49748  20471713.777    20471717.249
  21311771.036      888590.84049    611668.28747  21311770.378    21311775.960
  21598614.921    -3572452.23449  -2775642.16147  21598614.400    21598620.985
  24250757.739    -4884553.50049  -3795592.20145  24250757.311    24250766.585
  24072074.078    -6601594.23649  -5124252.86345  24072072.800    24072077.921
  20885678.805      423868.26549    273285.98648  20885678.236    20885683.553
  20212832.682    -3392068.12649  -2634040.36448  20212831.838    20212838.393
  22712737.456    -7090054.84949  -5503532.87846  22712736.839    22712743.505
 04  7 14 16  1 30.0000000  0  8G22G21G 3G 9G19G18G15G14
  20469905.828    -2478199.75749  -1808421.12648  20469905.519    20469908.993
  21322074.835      942737.10449    653860.14547  21322074.155    21322079.709
  21593637.070    -3598611.23449  -2796025.82047  21593636.536    21593643.112
  24238832.681    -4947218.80449  -3844422.23445  24238832.345    24238841.702
  24054302.991    -6694982.36849  -5197022.82645  24054301.703    24054306.775
  20894172.998      468505.28749    308068.04348  20894172.405    20894177.739
  20207316.482    -3421055.87949  -2656628.24448  20207315.646    20207322.225
  22693094.508    -7193279.60249  -5583967.72446  22693093.908    22693100.392
 04  7 14 16  2  0.0000000  0  8G22G21G 3G 9G19G18G15G14
  20468164.440    -2487350.90549  -1815551.89948  20468164.105    20468167.612
  21332438.535      997198.23549    696297.36047  21332437.831    21332443.345
  21588765.185    -3624212.92649  -2815975.20647  21588764.679    21588771.256
  24226974.671    -5009532.58749  -3892978.39845  24226974.375    24226983.759
  24036581.028    -6788111.11349  -5269590.65945  24036579.753    24036584.994
  20902718.430      513411.58149    343059.93448  20902717.830    20902723.153
  20201862.183    -3449718.46449  -2678962.73848  20201861.372    20201867.964
  22673498.642    -7296257.00049  -5664209.82546  22673498.004    22673504.396
 04  7 14 16  2 30.0000000  0  8G22G21G 3G 9G19G18G15G14
  20466489.913    -2496150.73449  -1822408.92448  20466489.584    20466493.087
  21342862.273     1051974.98249    738980.49447  21342861.564    21342867.041
  21583999.559    -3649256.08449  -2835489.37347  21583999.118    21584005.684
  24215184.223    -5071491.24249  -3941257.82445  24215184.026    24215193.366
  24018908.718    -6880977.43549  -5341954.00945  24018907.667    24018913.125
  20911314.840      558586.03849    378260.77648  20911314.238    20911319.575
  20196470.086    -3478054.19849  -2701042.55448  20196469.285    20196475.869
  22653950.307    -7398983.71549  -5744256.57346  22653949.657    22653956.223
 04  7 14 16  3  0.0000000  0  8G22G21G 3G 9G19G18G15G14
  20464881.971    -2504600.55549  -1828993.20748  20464881.657    20464885.137
  21353345.940     1107066.79649    781909.14147  21353345.226    21353350.711
  21579340.375    -3673740.38049  -2854568.06147  21579339.944    21579346.474
  24203461.849    -5133091.96049  -3989258.34245  24203461.632    24203471.249
  24001286.938    -6973579.09449  -5414111.12745  24001285.956    24001291.685
  20919961.975      604026.91849    413669.23248  20919961.382    20919966.723
  20191140.399    -3506062.07049  -2722866.87948  20191139.575    20191146.168
  22634450.004    -7501457.70749  -5824106.39946  22634449.417    22634456.135
 04  7 14 16  3 30.0000000  0  8G22G21G 3G 9G19G18G15G14
  20463340.432    -2512701.29649  -1835305.48548  20463340.114    20463343.602
  21363889.520     1162473.23449    825082.95047  21363888.798    21363894.281
  21574787.723    -3697664.89049  -2873210.55747  21574787.295    21574793.811
  24191808.242    -5194331.94949  -4036977.77945  24191808.099    24191817.594
  23983716.272    -7065913.49249  -5486059.99245  23983715.160    23983721.189
  20928659.505      649732.59549    449284.01248  20928658.891    20928664.259
  20185873.306    -3533740.97949  -2744434.87648  20185872.481    20185879.062
  22614998.483    -7603676.52749  -5903757.39746  22614997.823    22615004.572
 04  7 14 16  4  0.0000000  0  8G22G21G 3G 9G19G18G15G14
  20461865.136    -2520454.34749  -1841346.83248  20461864.806    20461868.299
  21374492.845     1218194.16549    868501.82347  21374492.137    21374497.613
  21570341.713    -3721029.22249  -2891416.54547  21570341.273    21570347.775
  24180223.979    -5255208.42549  -4084413.98245  24180223.719    24180233.273
  23966196.720    -7157978.63649  -5557799.05145  23966195.698    23966201.836
  20937407.080      695701.24849    485103.71248  20937406.495    20937411.827
  20180668.960    -3561090.00849  -2765745.82048  20180668.174    20180674.765
  22595595.863    -7705637.89149  -5983207.76846  22595595.214    22595601.950
 04  7 14 16  4 30.0000000  0  8G22G21G 3G 9G19G18G15G14
  20460455.913    -2527859.91749  -1847117.41748  20460455.591    20460459.083
  21385156.033     1274229.66149    912165.81047  21385155.335    21385160.868
  21566002.532    -3743832.09349  -2909185.04247  21566002.087    21566008.567
  24168709.410    -5315718.09249  -4131564.35745  24168709.180    24168718.600
  23948729.134    -7249771.52249  -5629325.96245  23948728.240    23948734.260
  20946204.543      741931.88249    521127.55248  20946203.945    20946209.256
  20175527.772    -3588107.31949  -2786798.28548  20175526.973    20175533.551
  22576242.784    -7807338.46849  -6062454.95746  22576242.103    22576248.946
 04  7 14 16  5  0.0000000  0  8G22G21G 3G 9G19G18G15G14
  20459112.568    -2534919.36349  -1852618.29248  20459112.251    20459115.737
  21395879.038     1330579.03849    956074.38547  21395878.322    21395883.856
  21561770.262    -3766073.01249  -2926515.64347  21561769.807    21561776.262
  24157265.239    -5375858.08149  -4178426.66145  24157264.903    24157274.262
  23931314.026    -7341289.78049  -5700638.89345  23931313.057    23931318.932
  20955051.519      788422.66449    557354.10547  20955050.900    20955056.152
  20170449.859    -3614792.27149  -2807591.76348  20170449.039    20170455.586
  22556939.643    -7908776.38349  -6141497.44346  22556939.036    22556945.891
 04  7 14 16  5 30.0000000  0  8G22G21G 3G 9G19G18G15G14
  20457834.926    -2541633.31449  -1857849.95448  20457834.606    20457838.123
  21406661.783     1387242.39049   1000227.60347  21406661.037    21406666.575
  21557645.054    -3787751.27749  -2943407.81847  21557644.613    21557651.021
  24145891.905    -5435625.44749  -4224998.66345  24145891.597    24145900.949
  23913951.743    -7432530.89249  -5771735.86745  23913950.477    23913956.382
  20963947.739      835172.53549    593782.54347  20963947.131    20963952.367
  20165435.462    -3641143.30049  -2828125.04348  20165434.630    20165441.169
  22537687.292    -8009948.73649  -6220333.00646  22537686.624    22537693.473
 04  7 14 16  6  0.0000000  0  8G22G21G 3G 9G19G18G15G14
  20456622.973    -2548002.23249  -1862812.76448  20456622.665    20456626.174
  21417504.268     1444220.01349   1044625.71147  21417503.511    21417509.121
  21553627.139    -3808865.72649  -2959860.65247  21553626.695    21553633.077
  24134590.157    -5495016.96749  -4271277.74445  24134589.850    24134599.234
  23896642.235    -7523491.93149  -5842614.59545  23896641.200    23896647.009
  20972893.015      882180.23949    630411.88647  20972892.429    20972897.707
  20160484.914    -3667158.70149  -2848396.79648  20160484.097    20160490.631
  22518485.891    -8110852.70549  -6298959.44346  22518485.217    22518492.110
 04  7 14 16  6 30.0000000  0  8G22G21G 3G 9G19G18G15G14
  20455476.590    -2554026.64049  -1867507.11948  20455476.268    20455479.745
  21428406.587     1501512.13749   1089268.88147  21428405.853    21428411.539
  21549716.827    -3829414.81749  -2975872.94947  21549716.372    21549722.759
  24123360.736    -5554028.66449  -4317260.90945  24123360.426    24123369.586
  23879386.780    -7614169.89249  -5913272.73045  23879385.676    23879391.483
  20981887.241      929445.11249    667241.62447  20981886.672    20981891.956
  20155598.590    -3692836.82949  -2868405.73248  20155597.750    20155604.263
  22499335.961    -8211485.05249  -6377374.21146  22499335.374    22499342.367
 04  7 14 16  7  0.0000000  0  8G22G21G 3G 9G19G18G15G14
  20454395.631    -2559707.43249  -1871933.72648  20454395.297    20454398.738
  21439368.736     1559118.54249   1134156.94347  21439368.014    21439373.682
  21545914.101    -3849398.32949  -2991444.53847  21545913.654    21545920.034
  24112203.863    -5612657.91649  -4362946.04345  24112203.559    24112212.787
  23862185.619    -7704562.24949  -5983708.34345  23862184.644    23862190.314
  20990930.021      976965.06149    704270.12047  20990929.432    20990934.741
  20150776.631    -3718176.52849  -2888150.96648  20150775.778    20150782.301
  22480238.342    -8311843.34949  -6455575.44246  22480237.715    22480244.731
 04  7 14 16  7 30.0000000  0  8G22G21G 3G 9G19G18G15G14
  20453379.676    -2565046.35449  -1876093.94048  20453379.350    20453382.809
  21450390.523     1617038.23149   1179289.12447  21450389.824    21450395.488
  21542218.973    -3868816.49849  -3006575.59847  21542218.522    21542224.905
  24101120.303    -5670902.32549  -4408331.29845  24101120.042    24101129.184
  23845039.095    -7794667.27749  -6053920.04145  23845038.034    23845043.889
  21000020.946     1024737.87249    741495.65747  21000020.338    21000025.645
  20146019.101    -3743177.43949  -2907632.20248  20146018.262    20146024.800
  22461193.285    -8411925.56449  -6533561.53646  22461192.620    22461199.635
 04  7 14 16  8  0.0000000  0  8G22G21G 3G 9G19G18G15G14
  20452428.844    -2570043.20849  -1879987.61048  20452428.508    20452431.988
  21461472.058     1675271.85949   1224665.92747  21461471.352    21461477.046
  21538631.728    -3887667.77149  -3021264.92047  21538631.266    21538637.637
  24090110.597    -5728758.18449  -4453413.81045  24090110.304    24090119.793
  23827947.963    -7884481.30549  -6123904.99245  23827946.866    23827952.807
  21009159.918     1072763.39749    778918.11247  21009159.332    21009164.639
  20141326.525    -3767837.34349  -2926847.72048  20141325.680    20141332.180
  22442201.321    -8511728.42849  -6611329.95746  22442200.728    22442207.744
 04  7 14 16  8 30.0000000  0  8G22G21G 3G 9G19G18G15G14
  20451542.951    -2574698.99049  -1883615.50548  20451542.612    20451546.089
  21472613.284     1733819.17349   1270287.16247  21472612.570    21472618.311
  21535152.558    -3905951.32949  -3035511.86947  21535152.074    21535158.421
  24079175.419    -5786222.86949  -4498191.44145  24079175.044    24079184.634
  23810912.662    -7974002.07949  -6193661.43745  23810911.609    23810917.635
  21018346.621     1121039.82349    816536.07447  21018346.032    21018351.363
  20136699.039    -3792155.07749  -2945796.61248  20136698.194    20136704.682
  22423262.954    -8611249.63549  -6688878.88846  22423262.378    22423269.467
 04  7 14 16  9  0.0000000  0  8G22G21G 3G 9G19G18G15G14
  20450721.487    -2579015.82849  -1886979.28948  20450721.110    20450724.627
  21483813.979     1792679.00149   1316151.91147  21483813.256    21483819.071
  21531781.239    -3923667.90949  -3049317.02147  21531780.768    21531787.124
  24068315.090    -5843294.18949  -4542662.64745  24068314.712    24068324.346
  23793933.457    -8063227.94049  -6263188.08245  23793932.444    23793938.428
  21027580.671     1169565.02149    854347.88147  21027580.089    21027585.458
  20132136.717    -3816130.39449  -2964478.68848  20132135.852    20132142.345
  22404378.689    -8710487.45149  -6766207.02046  22404378.062    22404385.004
 04  7 14 16  9 30.0000000  0  8G22G21G 3G 9G19G18G15G14
  20449964.594    -2582993.11149  -1890078.48148  20449964.234    20449967.804
  21495074.312     1851852.32449   1362260.95247  21495073.590    21495079.448
  21528518.169    -3940815.54449  -3062678.83747  21528517.677    21528524.064
  24057530.307    -5899968.08549  -4586824.08345  24057529.958    24057539.408
  23777011.072    -8152155.20749  -6332482.05245  23777010.148    23777016.042
  21036862.027     1218338.71349    892353.32747  21036861.434    21036866.826
  20127640.007    -3839760.76049  -2982891.97048  20127639.135    20127645.634
  22385549.040    -8809438.10849  -6843311.38546  22385548.457    22385555.181
 04  7 14 16 10  0.0000000  0  8G22G21G 3G 9G19G18G15G14
  20449272.013    -2586632.45049  -1892914.34648  20449271.704    20449275.301
  21506394.176     1911338.53249   1408613.79047  21506393.513    21506399.358
  21525363.420    -3957394.11649  -3075597.24247  21525362.911    21525369.279
  24046821.758    -5956241.85849  -4630673.78345  24046821.423    24046830.796
  23760146.202    -8240781.59849  -6401541.57245  23760145.173    23760150.902
  21046190.299     1267359.11549    930551.00947  21046189.736    21046195.142
  20123209.104    -3863045.29449  -3001035.77648  20123208.253    20123214.728
  22366774.343    -8908099.50649  -6920190.36546  22366773.775    22366780.393
 04  7 14 16 10 30.0000000  0  8G22G21G 3G 9G19G18G15G14
  20448643.719    -2589934.38649  -1895487.29248  20448643.379    20448646.988
  21517773.588     1971137.41849   1455210.28247  21517772.946    21517778.753
  21522317.113    -3973402.88449  -3088071.62747  21522316.590    21522322.929
  24036189.837    -6012112.53349  -4674209.36345  24036189.522    24036198.780
  23743339.011    -8329104.60449  -6470364.67745  23743337.999    23743343.539
  21055565.293     1316624.96949    968939.95347  21055564.716    21055570.148
  20118844.299    -3885982.63449  -3018909.03548  20118843.464    20118849.904
  22348055.266    -9006468.83249  -6996841.73146  22348054.694    22348061.337
 04  7 14 16 11  0.0000000  0  8G22G21G 3G 9G19G18G15G14
  20448079.220    -2592900.82849  -1897798.81948  20448078.880    20448082.510
  21529212.379     2031248.19249   1502049.80347  21529211.697    21529217.488
  21519379.231    -3988842.05749  -3100102.17647  21519378.704    21519384.991
  24025635.160    -6067578.00649  -4717429.16045  24025634.928    24025644.055
  23726589.906    -8417122.53449  -6538950.06445  23726588.814    23726594.227
  21064986.527     1366133.66949   1007518.13047  21064985.934    21064991.369
  20114545.713    -3908572.07849  -3036511.21148  20114544.830    20114551.271
  22329392.145    -9104544.30049  -7073264.12846  22329391.584    22329398.171
 04  7 14 16 11 30.0000000  0  8G22G21G 3G 9G19G18G15G14
  20447578.548    -2595531.77449  -1899848.92148  20447578.246    20447581.841
  21540710.593     2091671.20849   1549132.62647  21540709.877    21540715.661
  21516549.856    -4003710.82849  -3111688.25647  21516549.303    21516555.545
  24015158.146    -6122634.86549  -4760330.58945  24015157.871    24015166.825
  23709899.360    -8504832.09549  -6607295.17045  23709898.279    23709903.635
  21074453.882     1415884.54949   1046285.01547  21074453.289    21074458.682
  20110313.636    -3930811.79649  -3053840.87548  20110312.780    20110319.203
  22310785.572    -9202323.11249  -7149455.36846  22310784.975    22310791.453
 04  7 14 16 12  0.0000000  0  8G22G21G 3G 9G19G18G15G14
  20447141.769    -2597827.48349  -1901637.79248  20447141.438    20447144.993
  21552268.211     2152406.61549   1596458.88047  21552267.536    21552273.268
  21513829.260    -4018007.85849  -3122828.81847  21513828.736    21513834.963
  24004759.456    -6177279.45449  -4802910.80745  24004759.041    24004768.456
  23693268.044    -8592230.05649  -6675397.45446  23693266.963    23693272.299
  21083967.237     1465877.18349   1085240.28447  21083966.624    21083972.009
  20106148.433    -3952700.18749  -3070896.77348  20106147.574    20106154.024
  22292236.047    -9299801.78849  -7225412.73046  22292235.406    22292241.856
 04  7 14 16 12 30.0000000  0  8G22G21G 3G 9G19G18G15G14
  20446768.533    -2599789.02149  -1903166.27548  20446768.187    20446771.771
  21563885.245     2213454.32949   1644028.48847  21563884.563    21563890.292
  21511217.549    -4031732.59949  -3133523.43747  21511217.024    21511223.264
  23994439.762    -6231509.06749  -4845167.57345  23994439.467    23994448.961
  23676696.579    -8679313.73149  -6743254.84846  23676695.475    23676700.786
  21093526.369     1516110.27149   1124382.92447  21093525.726    21093531.098
  20102050.312    -3974235.89849  -3087677.85848  20102049.481    20102055.947
  22273743.971    -9396977.73049  -7301134.19346  22273743.368    22273749.854
 04  7 14 16 13  0.0000000  0  8G22G21G 3G 9G19G18G15G14
  20446458.697    -2601417.43549  -1904435.18548  20446458.331    20446461.949
  21575561.595     2274814.05249   1691841.20947  21575560.910    21575566.723
  21508714.761    -4044885.08949  -3143772.14947  21508714.247    21508720.514
  23984199.575    -6285320.86049  -4887098.81445  23984199.364    23984208.847
  23660185.460    -8766080.96349  -6810865.66246  23660184.365    23660189.577
  21103130.848     1566581.96549   1163711.47847  21103130.207    21103135.612
  20098019.541    -3995417.79249  -3104183.24248  20098018.731    20098025.181
  22255309.959    -9493848.57049  -7376617.91546  22255309.370    22255315.918
 04  7 14 16 13 30.0000000  0  8G22G21G 3G 9G19G18G15G14
  20446211.929    -2602714.25549  -1905445.70648  20446211.592    20446215.179
  21587297.094     2336484.62549   1739896.15147  21587296.466    21587302.296
  21506320.779    -4057465.52649  -3153575.11147  21506320.304    21506326.606
  23974039.469    -6338712.78149  -4928702.82745  23974039.178    23974048.718
  23643734.878    -8852529.66949  -6878228.27446  23643733.783    23643738.967
  21112780.268     1617289.99149   1203224.19547  21112779.647    21112785.039
  20094056.215    -4016245.36749  -3120412.53048  20094055.375    20094061.826
  22236934.512    -9590412.50849  -7451862.49646  22236933.891    22236940.336
 04  7 14 16 14  0.0000000  0  8G22G21G 3G 9G19G18G15G14
  20446028.135    -2603680.15849  -1906198.36948  20446027.799    20446031.356
  21599091.891     2398466.12849   1788193.37747  21599091.240    21599097.035
  21504035.754    -4069473.36949  -3162931.89147  21504035.276    21504041.657
  23963959.939    -6391682.01749  -4969977.51545  23963959.625    23963969.093
  23627345.377    -8938656.96749  -6945340.43246  23627344.340    23627349.390
  21122474.551     1668233.73849   1242920.58847  21122473.916    21122479.351
  20090160.573    -4036717.22049  -3136364.63348  20090159.722    20090166.190
  22218617.906    -9686666.79849  -7526865.79746  22218617.252    22218623.663
 04  7 14 16 14 30.0000000  0  8G22G21G 3G 9G19G18G15G14
  20445907.294    -2604315.35949  -1906693.34148  20445906.933    20445910.507
  21610945.880     2460758.93049   1836733.17847  21610945.204    21610950.969
  21501859.917    -4080907.41649  -3171841.55847  21501859.423    21501865.906
  23953961.308    -6444224.68449  -5010919.80245  23953960.988    23953970.678
  23611017.795    -9024459.82249  -7012199.77446  23611016.613    23611021.672
  21132213.608     1719412.72949   1282800.28847  21132212.953    21132218.426
  20086333.002    -4056831.22849  -3152037.89948  20086332.162    20086338.633
  22200360.826    -9782608.21749  -7601625.30446  22200360.170    22200366.586
 04  7 14 16 15  0.0000000  0  8G22G21G 3G 9G19G18G15G14
  20445849.106    -2604621.31349  -1906931.76348  20445848.733    20445852.352
  21622858.927     2523362.28049   1885514.96647  21622858.237    21622864.014
  21499793.217    -4091767.84849  -3180304.25847  21499792.763    21499799.273
  23944044.516    -6496338.36849  -5051527.80445  23944044.253    23944053.847
  23594752.194    -9109936.17849  -7078804.70746  23594750.984    23594756.156
  21141996.963     1770824.69549   1322861.52547  21141996.330    21142001.842
  20082573.717    -4076586.37549  -3167431.53348  20082572.904    20082579.393
  22182163.521    -9878234.81849  -7676139.48946  22182162.968    22182169.395
 04  7 14 16 15 30.0000000  0  8G22G21G 3G 9G19G18G15G14
  20445853.381    -2604598.75449  -1906914.19448  20445853.021    20445856.644
  21634831.088     2586276.19249   1934538.74647  21634830.389    21634836.155
  21497835.852    -4102054.07649  -3188319.52147  21497835.338    21497841.895
  23934209.732    -6548020.21549  -5091799.31045  23934209.381    23934219.200
  23578549.138    -9195083.41549  -7145153.17446  23578547.981    23578553.340
  21151824.428     1822468.11849   1363103.12147  21151823.757    21151829.308
  20078882.995    -4095981.53849  -3182544.65648  20078882.149    20078888.671
  22164026.784    -9973543.95949  -7750406.30247  22164026.214    22164032.701
 04  7 14 16 16  0.0000000  0  8G22G21G 3G 9G19G18G15G14
  20445920.051    -2604248.39349  -1906641.19548  20445919.684    20445923.268
  21646862.332     2649500.55749   1983804.43147  21646861.600    21646867.418
  21495987.743    -4111765.84249  -3195887.14747  21495987.238    21495993.854
  23924457.887    -6599267.10649  -5131731.89445  23924457.543    23924467.151
  23562409.352    -9279898.64449  -7211242.92746  23562408.074    23562413.721
  21161695.740     1874342.31749   1403524.54547  21161695.083    21161700.661
  20075260.985    -4115015.16349  -3197376.06348  20075260.137    20075266.714
  22145950.985   -10068532.81949  -7824423.55347  22145950.427    22145956.955
 04  7 14 16 16 30.0000000  0  8G22G21G 3G 9G19G18G15G14
  20446048.776    -2603572.10149  -1906114.22248  20446048.425    20446051.987
  21658952.481     2713034.35649   2033311.24147  21658951.700    21658957.566
  21494248.921    -4120903.35049  -3203007.31047  21494248.441    21494255.113
  23914789.189    -6650077.29349  -5171324.16645  23914788.746    23914798.341
  23546333.045    -9364379.91049  -7277072.45246  23546331.883    23546337.516
  21171610.566     1926445.05449   1444124.04847  21171609.929    21171615.535
  20071707.885    -4133686.69249  -3211925.31548  20071707.066    20071713.670
  22127936.457   -10163199.72149  -7898189.92047  22127935.879    22127942.436
 04  7 14 16 17  0.0000000  0  8G22G21G 3G 9G19G18G15G14
  20446239.405    -2602570.40649  -1905333.69348  20446239.053    20446242.653
  21671101.394     2776877.33549   2083058.95947  21671100.639    21671106.542
  21492619.434    -4129466.43949  -3209679.87047  21492618.959    21492625.613
  23905203.940    -6700447.72249  -5210573.78945  23905203.452    23905213.216
  23530320.918    -9448524.95449  -7342640.00946  23530319.668    23530325.265
  21181568.637     1978774.75449   1484900.40547  21181567.966    21181573.573
  20068223.996    -4151994.73649  -3226191.33148  20068223.178    20068229.784
  22109983.747   -10257541.92449  -7971703.28147  22109983.167    22109989.708
 04  7 14 16 17 30.0000000  0  8G22G21G 3G 9G19G18G15G14
  20446491.922    -2601243.17949  -1904299.50248  20446491.568    20446495.236
  21683309.266     2841030.01149   2133048.00647  21683308.538    21683314.508
  21491099.539    -4137453.46649  -3215903.54747  21491099.062    21491105.695
  23895703.141    -6750374.40549  -5249477.62945  23895702.609    23895712.437
  23514373.385    -9532329.92249  -7407942.57046  23514372.149    23514377.597
  21191569.812     2031331.48249   1525853.66147  21191569.202    21191574.839
  20064809.714    -4169937.05149  -3240172.36148  20064808.902    20064815.521
  22092093.500   -10351555.99649  -8044960.95347  22092092.922    22092099.348
 04  7 14 16 18  0.0000000  0  8G22G21G 3G 9G19G18G15G14
  20446806.224    -2599591.68249  -1903012.63148  20446805.891    20446809.519
  21695576.030     2905492.07349   2183278.12947  21695575.326    21695581.321
  21489689.270    -4144864.78349  -3221678.62247  21489688.788    21489695.414
  23886287.296    -6799855.12249  -5288033.94345  23886286.778    23886296.339
  23498490.864    -9615792.69649  -7472978.48846  23498489.654    23498495.107
  21201613.954     2084113.67249   1566982.60447  21201613.348    21201618.989
  20061465.187    -4187512.75249  -3253867.72548  20061464.347    20061470.990
  22074266.007   -10445240.04249  -8117961.46447  22074265.404    22074271.789
 04  7 14 16 18 30.0000000  0  8G22G21G 3G 9G19G18G15G14
  20447181.996    -2597617.15949  -1901474.04948  20447181.641    20447185.253
  21707901.672     2970263.06249   2233748.96447  21707900.933    21707906.922
  21488388.531    -4151700.27149  -3227005.00547  21488388.038    21488394.661
  23876956.855    -6848887.15749  -5326240.68645  23876956.297    23876965.709
  23482673.878    -9698910.57849  -7537745.64446  23482672.694    23482678.278
  21211700.787     2137120.12049   1608286.29947  21211700.185    21211705.820
  20058190.614    -4204720.71449  -3267276.54148  20058189.784    20058196.443
  22056501.809   -10538591.28649  -8190702.64347  22056501.222    22056507.631
 04  7 14 16 19  0.0000000  0  8G22G21G 3G 9G19G18G15G14
  20447618.991    -2595320.64849  -1899684.57448  20447618.618    20447622.301
  21720285.965     3035342.66049   2284460.29047  21720285.259    21720291.192
  21487197.360    -4157959.94549  -3231882.69747  21487196.853    21487203.495
  23867712.057    -6897468.03049  -5364095.84845  23867711.497    23867720.893
  23466922.907    -9781681.53049  -7602242.49246  23466921.798    23466927.468
  21221829.934     2190348.96949   1649763.29947  21221829.363    21221834.979
  20054986.264    -4221559.79849  -3280397.91748  20054985.432    20054992.066
  22038801.354   -10631607.65149  -8263182.87347  22038800.755    22038807.223
 04  7 14 16 19 30.0000000  0  8G22G21G 3G 9G19G18G15G14
  20448117.081    -2592703.02749  -1897644.88448  20448116.743    20448120.473
  21732728.940     3100730.21449   2335411.57547  21732728.215    21732734.057
  21486115.761    -4163643.89749  -3236311.77847  21486115.262    21486121.935
  23858553.765    -6945595.11149  -5401597.42745  23858553.257    23858562.609
  23451238.610    -9864103.12649  -7666467.09446  23451237.486    23451243.138
  21232001.172     2243799.04349   1691412.67947  21232000.592    21232006.235
  20051852.333    -4238028.89549  -3293230.98448  20051851.472    20051858.075
  22021165.248   -10724286.53249  -8335400.13447  22021164.585    22021170.966
 04  7 14 16 20  0.0000000  0  8G22G21G 3G 9G19G18G15G14
  20448676.095    -2589765.73749  -1895356.09548  20448675.736    20448679.417
  21745230.274     3166424.86249   2386602.15047  21745229.511    21745235.376
  21485143.702    -4168752.29649  -3240292.37847  21485143.235    21485149.916
  23849482.118    -6993266.09049  -5438743.59745  23849481.647    23849491.089
  23435621.112    -9946173.10349  -7730417.71246  23435620.038    23435625.757
  21242214.164     2297468.41249   1733232.93547  21242213.581    21242219.260
  20048788.903    -4254127.21449  -3305775.13548  20048788.073    20048794.708
  22003593.669   -10816626.17649  -8407353.05847  22003592.960    22003599.238
 04  7 14 16 20 30.0000000  0  8G22G21G 3G 9G19G18G15G14
  20449295.927    -2586508.80249  -1892818.23748  20449295.547    20449299.172
  21757790.060     3232427.02049   2438032.33947  21757789.336    21757795.211
  21484281.348    -4173284.10149  -3243823.68647  21484280.902    21484287.602
  23840497.997    -7040477.70249  -5475531.79545  23840497.528    23840506.852
  23420071.184   -10027888.02149  -7794091.66946  23420070.093    23420075.838
  21252468.802     2351356.59349   1775223.69247  21252468.212    21252473.903
  20045796.432    -4269852.67549  -3318028.75748  20045795.614    20045802.274
  21986087.102   -10908623.29749  -8479039.09147  21986086.439    21986092.654
 04  7 14 16 21  0.0000000  0  8G22G21G 3G 9G19G18G15G14
  20449976.296    -2582933.24449  -1890032.09748  20449975.956    20449979.577
  21770408.437     3298736.70749   2489702.17747  21770407.660    21770413.548
  21483528.757    -4177239.35149  -3246905.72247  21483528.303    21483534.998
  23831601.820    -7087227.00949  -5511959.77745  23831601.315    23831610.970
  23404589.314   -10109245.36749  -7857487.00046  23404588.241    23404593.941
  21262764.894     2405462.49849   1817384.11547  21262764.295    21262769.959
  20042875.210    -4285203.94649  -3329990.79548  20042874.397    20042881.066
  21968646.191   -11000275.20149  -8550456.10847  21968645.573    21968651.802
 04  7 14 16 21 30.0000000  0  8G22G21G 3G 9G19G18G15G14
  20450717.074    -2579040.76249  -1886999.00348  20450716.723    20450720.344
  21783085.101     3365352.80249   2541610.76847  21783084.324    21783090.249
  21482885.667    -4180618.96649  -3249539.21447  21482885.218    21482891.915
  23822794.099    -7133512.19949  -5548026.11645  23822793.623    23822803.233
  23389175.861   -10190243.34849  -7920602.28646  23389174.751    23389180.328
  21273101.970     2459783.88649   1859712.44747  21273101.348    21273107.010
  20040025.327    -4300180.60149  -3341660.92148  20040024.500    20040031.141
  21951271.292   -11091580.42649  -8621602.99747  21951270.731    21951276.984
 04  7 14 16 22  0.0000000  0  8G22G21G 3G 9G19G18G15G14
  20451518.106    -2574831.49449  -1883719.06548  20451517.749    20451521.338
  21795820.078     3432275.48849   2593758.26447  21795819.278    21795825.260
  21482352.322    -4183421.97249  -3251723.40547  21482351.827    21482358.542
  23814075.349    -7179330.24349  -5583728.40145  23814074.889    23814084.253
  23373831.305   -10270879.05449  -7983435.30446  23373830.364    23373835.672
  21283479.925     2514320.17349   1902208.22847  21283479.294    21283484.947
  20037247.053    -4314780.83749  -3353037.73548  20037246.203    20037252.824
  21933963.097   -11182535.99649  -8692477.43947  21933962.474    21933968.700
 04  7 14 16 22 30.0000000  0  8G22G21G 3G 9G19G18G15G14
  20452379.103    -2570307.11049  -1880193.58348  20452378.723    20452382.260
  21808613.199     3499503.82149   2646143.92647  21808612.402    21808618.432
  21481928.510    -4185648.97449  -3253458.75247  21481928.051    21481934.790
  23805445.727    -7224678.93349  -5619065.02845  23805445.353    23805454.621
  23358556.401   -10351150.45149  -8045984.44246  23358555.378    23358560.490
  21293898.380     2569069.31849   1944869.87347  21293897.731    21293903.401
  20034540.464    -4329003.89249  -3364120.64048  20034539.607    20034546.249
  21916721.696   -11273139.82649  -8763077.78747  21916721.080    21916727.292
 04  7 14 16 23  0.0000000  0  8G22G21G 3G 9G19G18G15G14
  20453299.854    -2565468.53849  -1876423.28148  20453299.495    20453303.025
  21821464.408     3567037.33249   2698767.39847  21821463.655    21821469.674
  21481614.278    -4187300.00049  -3254745.29547  21481613.808    21481620.623
  23796905.833    -7269555.86049  -5654033.99345  23796905.455    23796914.640
  23343351.443   -10431054.93549  -8108247.66746  23343350.275    23343355.306
  21304357.152     2624030.42649   1987696.67847  21304356.511    21304362.197
  20031905.876    -4342848.69449  -3374908.80548  20031905.041    20031911.716
  21899547.619   -11363389.65849  -8833402.29447  21899546.999    21899553.268
 04  7 14 16 23 30.0000000  0  8G22G21G 3G 9G19G18G15G14
  20454280.225    -2560316.79749  -1872408.95148  20454279.867    20454283.395
  21834373.534     3634875.38249   2751628.16747  21834372.818    21834378.833
  21481409.643    -4188375.17049  -3255583.11747  21481409.200    21481416.065
  23788456.156    -7313958.32049  -5688633.24145  23788455.835    23788465.052
  23328216.539   -10510590.09649  -8170223.10646  23328215.362    23328220.335
  21314855.958     2679202.12049   2030687.58247  21314855.323    21314861.036
  20029343.546    -4356313.89749  -3385401.17448  20029342.714    20029349.402
  21882441.379   -11453283.27049  -8903449.23647  21882440.751    21882447.049
 04  7 14 16 24  0.0000000  0  8G22G21G 3G 9G19G18G15G14
  20455320.209    -2554851.74749  -1868150.48648  20455319.847    20455323.408
  21847340.908     3703018.97749   2804727.03147  21847340.151    21847346.083
  21481314.768    -4188873.79549  -3255971.67847  21481314.325    21481321.205
  23780097.426    -7357882.94149  -5722860.17145  23780096.952    23780106.424
  23313152.317   -10589752.62949  -8231908.18446  23313151.162    23313156.225
  21325394.779     2734583.88849   2073842.18147  21325394.157    21325399.851
  20026853.896    -4369397.32449  -3395596.06148  20026853.048    20026859.756
  21865403.596   -11542817.26249  -8973215.95047  21865403.007    21865409.347
 04  7 14 16 24 30.0000000  0  8G22G21G 3G 9G19G18G15G14
  20456419.523    -2549074.79749  -1863648.98248  20456419.166    20456422.734
  21860366.281     3771467.30149   2858063.35547  21860365.474    21860371.411
  21481329.634    -4188795.85549  -3255910.97047  21481329.195    21481336.068
  23771830.216    -7401327.16049  -5756712.76145  23771829.885    23771839.402
  23298159.496   -10668540.09949  -8293301.01446  23298158.361    23298163.464
  21335973.252     2790174.28349   2117159.35147  21335972.673    21335978.372
  20024437.060    -4382098.03649  -3405492.72948  20024436.191    20024442.892
  21848434.712   -11631989.45849  -9042700.75347  21848434.094    21848440.441
 04  7 14 16 25  0.0000000  0  8G22G21G 3G 9G19G18G15G14
  20457577.990    -2542986.97949  -1858905.24548  20457577.654    20457581.231
  21873449.384     3840219.66449   2911636.58547  21873448.627    21873454.620
  21481454.069    -4188142.05949  -3255401.54547  21481453.629    21481460.489
  23763654.782    -7444288.87949  -5790189.34445  23763654.445    23763663.996
  23283238.560   -10746950.25049  -8354399.83246  23283237.400    23283242.483
  21346591.176     2845971.87549   2160637.96947  21346590.633    21346596.326
  20022093.164    -4394415.37449  -3415090.66448  20022092.314    20022098.996
  21831535.059   -11720797.81449  -9111902.03747  21831534.403    21831540.800
 04  7 14 16 25 30.0000000  0  8G22G21G 3G 9G19G18G15G14
  20458795.464    -2536589.37849  -1853920.11648  20458795.111    20458798.715
  21886590.434     3909275.55349   2965446.32847  21886589.629    21886595.558
  21481688.104    -4186912.36549  -3254443.37447  21481687.687    21481694.529
  23755571.629    -7486765.43049  -5823287.86345  23755571.390    23755580.819
  23268389.802   -10824980.84349  -8415202.87546  23268388.700    23268393.830
  21357248.335     2901975.36949   2204277.02647  21357247.725    21357253.444
  20019822.451    -4406348.10949  -3424388.90448  20019821.586    20019828.233
  21814705.018   -11809239.80949  -9180817.85347  21814704.414    21814710.796
 04  7 14 16 26  0.0000000  0  8G22G21G 3G 9G19G18G15G14
  20460071.600    -2529883.25349  -1848694.57748  20460071.218    20460074.894
  21899789.001     3978634.21449   3019492.00347  21899788.192    21899794.093
  21482031.605    -4185107.53949  -3253037.04247  21482031.159    21482037.985
  23747581.320    -7528754.92049  -5856006.87845  23747580.972    23747590.415
  23253613.687   -10902629.79649  -8475708.53446  23253612.590    23253617.881
  21367944.310     2958183.24249   2248075.33947  21367943.720    21367949.438
  20017625.103    -4417895.52149  -3433386.89148  20017624.247    20017630.864
  21797945.061   -11897313.73749  -9249446.86147  21797944.457    21797950.846
 04  7 14 16 26 30.0000000  0  8G22G21G 3G 9G19G18G15G14
  20461406.263    -2522869.51749  -1843229.34248  20461405.893    20461409.571
  21913045.107     4048295.42549   3073773.43347  21913044.305    21913050.268
  21482484.609    -4182727.45149  -3251182.45747  21482484.136    21482490.882
  23739684.271    -7570254.81249  -5888344.36845  23739683.898    23739693.238
  23238910.669   -10979894.45149  -8535914.73046  23238909.637    23238915.006
  21378678.991     3014594.33249   2292032.00647  21378678.409    21378684.164
  20015501.326    -4429056.12049  -3442083.47048  20015500.467    20015507.075
  21781255.626   -11985017.14849  -9317787.15347  21781254.991    21781261.460
 04  7 14 16 27  0.0000000  0  8G22G21G 3G 9G19G18G15G14
  20462799.410    -2515548.87049  -1837524.95248  20462799.009    20462802.677
  21926358.782     4118258.78549   3128290.29647  21926357.988    21926363.961
  21483046.980    -4179772.30249  -3248879.76947  21483046.506    21483053.241
  23731880.812    -7611262.46749  -5920298.31745  23731880.381    23731889.798
  23224281.364   -11056772.07649  -8595819.35546  23224280.266    23224285.713
  21389452.116     3071207.16349   2336145.86947  21389451.521    21389457.257
  20013451.463    -4439828.33949  -3450477.41448  20013450.586    20013457.208
  21764637.100   -12072347.44049  -9385836.69847  21764636.516    21764643.090
 04  7 14 16 27 30.0000000  0  8G22G21G 3G 9G19G18G15G14
  20464250.731    -2507922.11049  -1831582.03648  20464250.334    20464254.005
  21939729.898     4188523.98349   3183042.35647  21939729.101    21939735.018
  21483718.818    -4176242.12449  -3246129.01347  21483718.311    21483725.019
  23724171.533    -7651775.33549  -5951866.72245  23724171.108    23724180.274
  23209726.277   -11133260.21749  -8655420.49146  23209725.042    23209730.441
  21400263.478     3128020.91249   2380416.28747  21400262.856    21400268.593
  20011475.698    -4450211.20849  -3458567.97548  20011474.824    20011481.408
  21748090.168   -12159302.16049  -9453593.60447  21748089.571    21748096.133
 04  7 14 16 28  0.0000000  0  8G22G21G 3G 9G19G18G15G14
  20465760.161    -2499989.92149  -1825401.12348  20465759.799    20465763.455
  21953158.455     4259090.89149   3238029.52547  21953157.655    21953163.464
  21484499.931    -4172137.06449  -3242930.29047  21484499.441    21484506.219
  23716556.884    -7691790.56649  -5983047.29945  23716556.420    23716565.532
  23195245.678   -11209355.97649  -8714715.87146  23195244.486    23195249.716
  21411112.911     3185034.71949   2424842.59547  21411112.265    21411118.008
  20009574.315    -4460203.15649  -3466353.91348  20009573.450    20009580.003
  21731615.292   -12245878.67149  -9521055.78947  21731614.656    21731621.099
 04  7 14 16 28 30.0000000  0  8G22G21G 3G 9G19G18G15G14
  20467327.335    -2491754.55049  -1818983.96248  20467326.964    20467330.573
  21966644.025     4329957.98249   3293250.60647  21966643.269    21966649.098
  21485390.225    -4167458.18949  -3239284.44247  21485389.754    21485396.611
  23709037.132    -7731307.03649  -6013839.30045  23709036.605    23709045.755
  23180840.013   -11285058.19949  -8773704.60246  23180838.769    23180843.984
  21421999.976     3242246.29949   2469423.01647  21421999.318    21422005.034
  20007747.344    -4469804.17249  -3473835.23248  20007746.465    20007753.006
  21715212.508   -12332075.96049  -9588222.48747  21715211.872    21715218.235
 04  7 14 16 29  0.0000000  0  8G22G21G 3G 9G19G18G15G14
  20468952.197    -2483215.85349  -1812330.43948  20468951.830    20468955.443
  21980186.827     4401125.61449   3348705.86747  21980186.044    21980191.899
  21486389.911    -4162204.96349  -3235191.04847  21486389.442    21486396.327
  23701613.031    -7770321.34649  -6044239.95945  23701612.495    23701621.455
  23166509.869   -11360363.51749  -8832384.04646  23166508.610    23166513.834
  21432924.521     3299655.09349   2514157.10547  21432923.866    21432929.581
  20005995.187    -4479011.89549  -3481010.09448  20005994.278    20006000.850
  21698882.493   -12417890.70649  -9655091.08047  21698881.837    21698888.230
 04  7 14 16 29 30.0000000  0  8G22G21G 3G 9G19G18G15G14
  20470634.396    -2474375.82549  -1805442.11048  20470634.035    20470637.647
  21993786.472     4472592.41349   3404394.24746  21993785.719    21993791.619
  21487498.641    -4156378.72649  -3230651.14447  21487498.155    21487505.061
  23694284.642    -7808832.31649  -6074248.41945  23694284.139    23694292.959
  23152255.381   -11435270.37649  -8890753.00746  23152254.168    23152259.605
  21443886.216     3357259.01049   2559043.23647  21443885.597    21443891.303
  20004317.875    -4487826.33249  -3487878.49748  20004316.979    20004323.555
  21682625.467   -12503321.77449  -9721660.70147  21682624.811    21682631.290
 04  7 14 16 30  0.0000000  0  8G22G21G 3G 9G19G18G15G14
  20472374.268    -2465232.78949  -1798317.67948  20472373.940    20472377.512
  22007443.515     4544360.51349   3460317.40146  22007442.754    22007448.723
  21488716.915    -4149977.06349  -3225662.86847  21488716.411    21488723.305
  23687052.953    -7846834.92049  -6103860.75845  23687052.426    23687061.215
  23138077.815   -11509773.84049  -8948807.62646  23138076.583    23138082.043
  21454885.338     3415059.66649   2604082.66447  21454884.742    21454890.470
  20002716.124    -4496243.63149  -3494437.45148  20002715.208    20002721.798
  21666442.425   -12588363.97849  -9787927.31747  21666441.854    21666448.304
 04  7 14 16 30 30.0000000  0  8G22G21G 3G 9G19G18G15G14
  20474171.104    -2455790.56849  -1790960.10748  20474170.766    20474174.292
  22021157.245     4616426.42149   3516472.61946  22021156.490    22021162.420
  21490044.026    -4143003.49449  -3220228.95347  21490043.473    21490050.375
  23679917.762    -7884329.51449  -6133077.27645  23679917.205    23679926.166
  23123976.958   -11583874.40749  -9006548.31146  23123975.705    23123981.122
  21465921.079     3473052.87849   2649272.14847  21465920.502    21465926.212
  20001189.610    -4504265.57849  -3500688.32848  20001188.695    20001195.294
  21650333.326   -12673018.17249  -9853891.58747  21650332.716    21650339.087
 04  7 14 16 31  0.0000000  0  8G22G21G 3G 9G19G18G15G14
  20476024.961    -2446048.74349  -1783369.08348  20476024.613    20476028.088
  22034927.853     4688791.51649   3572860.96146  22034927.117    22034933.110
  21491480.073    -4135457.04749  -3214348.62447  21491479.578    21491486.446
  23672879.833    -7921312.49249  -6161895.09045  23672879.407    23672888.497
  23109953.507   -11657568.21649  -9063972.04546  23109952.233    23109957.621
  21476993.556     3531238.73449   2694611.74047  21476992.957    21476998.679
  19999738.824    -4511889.66749  -3506629.19148  19999737.929    19999744.505
  21634298.767   -12757280.69149  -9919550.65847  21634298.177    21634304.412
 04  7 14 16 31 30.0000000  0  8G22G21G 3G 9G19G18G15G14
  20477935.654    -2436008.09549  -1775545.21248  20477935.300    20477938.752
  22048755.254     4761454.88449   3629481.71946  22048754.545    22048760.554
  21493025.220    -4127337.74849  -3208021.92347  21493024.699    21493031.559
  23665939.793    -7957781.37449  -6190312.31745  23665939.402    23665948.471
  23096007.843   -11730852.74649  -9121076.85946  23096006.697    23096012.052
  21488102.476     3589616.43349   2740100.81847  21488101.916    21488107.614
  19998363.966    -4519114.58249  -3512259.00448  19998363.081    19998369.641
  21618339.200   -12841149.12949  -9984902.64247  21618338.546    21618344.711
 04  7 14 16 32  0.0000000  0  8G22G21G 3G 9G19G18G15G14
  20479902.927    -2425670.22149  -1767489.73948  20479902.549    20479906.025
  22062639.151     4834415.47249   3686334.08046  22062638.453    22062644.532
  21494679.091    -4118646.76649  -3201249.75447  21494678.564    21494685.385
  23659097.880    -7993734.58949  -6218327.76045  23659097.508    23659106.750
  23082140.599   -11803726.28949  -9177861.43046  23082139.427    23082144.670
  21499247.618     3648184.15149   2785737.96847  21499247.061    21499252.737
  19997065.168    -4525939.99149  -3517577.51748  19997064.270    19997070.830
  21602454.841   -12924621.86249 -10049946.28947  21602454.192    21602460.294
 04  7 14 16 32 30.0000000  0  8G22G21G 3G 9G19G18G15G14
  20481926.548    -2415036.13449  -1759203.45448  20481926.168    20481929.663
  22076579.549     4907672.75749   3743417.63146  22076578.852    22076584.880
  21496441.662    -4109384.55649  -3194032.47247  21496441.134    21496447.964
  23652354.478    -8029169.99749  -6245939.69145  23652354.236    23652363.593
  23068351.960   -11876186.43249  -9234323.87446  23068350.733    23068355.949
  21510428.665     3706940.57049   2831522.15447  21510428.051    21510433.707
  19995842.608    -4532364.60749  -3522583.72948  19995841.707    19995848.285
  21586646.212   -13007696.92749 -10114680.06547  21586645.526    21586651.623
 04  7 14 16 33  0.0000000  0  8G22G21G 3G 9G19G18G15G14
  20484006.278    -2404107.09849  -1750687.33948  20484005.898    20484009.422
  22090576.367     4981226.28449   3800732.01946  22090575.653    22090581.728
  21498312.792    -4099551.84749  -3186370.65047  21498312.268    21498319.099
  23645710.171    -8064085.25049  -6273146.31145  23645709.905    23645719.287
  23054642.328   -11948231.02749  -9290462.51646  23054641.204    23054646.280
  21521645.377     3765884.57449   2877452.50847  21521644.745    21521650.439
  19994696.518    -4538387.43649  -3527276.86148  19994695.630    19994702.184
  21570913.586   -13090372.03049 -10179102.17847  21570912.928    21570919.028
 04  7 14 16 33 30.0000000  0  8G22G21G 3G 9G19G18G15G14
  20486141.921    -2392884.15049  -1741942.19748  20486141.549    20486145.104
  22104629.333     5055075.12649   3858276.52746  22104628.644    22104634.759
  21500292.356    -4089149.31349  -3178264.80447  21500291.858    21500298.689
  23639165.313    -8098478.45149  -6299946.12445  23639164.957    23639174.403
  23041012.425   -12019857.81349  -9346275.60046  23041011.239    23041016.143
  21532897.513     3825014.45349   2923527.70447  21532896.856    21532902.478
  19993626.985    -4544007.87149  -3531656.43548  19993626.111    19993632.644
  21555257.488   -13172645.20649 -10243211.09847  21555256.856    21555262.963
 04  7 14 16 34  0.0000000  0  8G22G21G 3G 9G19G18G15G14
  20488333.375    -2381367.97949  -1732968.57248  20488333.022    20488336.576
  22118738.539     5129219.34149   3916051.17646  22118737.846    22118743.970
  21502380.284    -4078177.38949  -3169715.28147  21502379.752    21502386.610
  23632720.333    -8132347.51049  -6326337.54445  23632719.898    23632729.416
  23027462.410   -12091064.42749  -9401761.28046  23027461.181    23027466.037
  21544184.789     3884329.39349   2969747.10347  21544184.122    21544189.715
  19992634.326    -4549224.47249  -3535721.33648  19992633.468    19992639.986
  21539678.286   -13254514.23849 -10307005.10047  21539677.612    21539683.746
 04  7 14 16 34 30.0000000  0  8G22G21G 3G 9G19G18G15G14
  20490580.508    -2369559.48949  -1723767.16648  20490580.127    20490583.703
  22132903.713     5203657.57649   3974054.93746  22132903.020    22132909.151
  21504576.424    -4066636.66049  -3160722.53047  21504575.902    21504582.788
  23626375.589    -8165690.18849  -6352318.79945  23626375.111    23626384.643
  23013992.673   -12161848.30349  -9456917.54246  23013991.476    23013996.379
  21555507.107     3943828.38349   3016109.90747  21555506.443    21555512.020
  19991718.810    -4554035.78249  -3539470.42548  19991717.942    19991724.461
  21524176.364   -13335976.89049 -10370482.44747  21524175.713    21524181.888
 04  7 14 16 35  0.0000000  0  8G22G21G 3G 9G19G18G15G14
  20492883.211    -2357458.96949  -1714338.19748  20492882.822    20492886.412
  22147124.986     5278390.46549   4032288.29146  22147124.285    22147130.440
  21506880.779    -4054526.97749  -3151286.44147  21506880.277    21506887.274
  23620131.537    -8198503.47749  -6377887.54345  23620131.134    23620140.481
  23000603.789   -12232206.28849  -9511741.95646  23000602.684    23000607.745
  21566864.409     4003511.09249   3062615.87847  21566863.721    21566869.289
  19990880.738    -4558440.00649  -3542902.30148  19990879.862    19990886.383
  21508752.418   -13417030.20049 -10433640.82947  21508751.761    21508757.868
 04  7 14 16 35 30.0000000  0  8G22G21G 3G 9G19G18G15G14
  20495241.160    -2345068.06049  -1704682.95148  20495240.750    20495244.363
  22161402.066     5353416.75649   4090750.28146  22161401.341    22161407.477
  21509293.179    -4041849.53149  -3141407.93547  21509292.696    21509299.764
  23613988.463    -8230785.91649  -6403042.64945  23613988.046    23613997.100
  22987296.279   -12302136.89949  -9566233.33346  22987295.177    22987300.389
  21578256.271     4063375.33249   3109263.30347  21578255.564    21578261.123
  19990120.144    -4562437.05949  -3546016.89548  19990119.248    19990125.787
  21493406.632   -13497672.88249 -10496479.23347  21493405.925    21493412.067
 04  7 14 16 36  0.0000000  0  8G22G21G 3G 9G19G18G15G14
  20497654.379    -2332386.72949  -1694801.40548  20497653.959    20497657.588
  22175735.080     5428737.08249   4149441.38946  22175734.378    22175740.620
  21511813.762    -4028603.87549  -3131086.67147  21511813.252    21511820.348
  23607947.000    -8262534.42449  -6427781.68245  23607946.648    23607955.304
  22974070.759   -12371636.72549  -9620389.05046  22974069.723    22974074.999
  21589682.666     4123421.40249   3156052.41247  21589681.964    21589687.510
  19989437.495    -4566024.66749  -3548812.44548  19989436.571    19989443.112
  21478139.565   -13577901.58349 -10558995.07147  21478138.864    21478144.984
 04  7 14 16 36 30.0000000  0  8G22G21G 3G 9G19G18G15G14
  20500122.306    -2319417.60449  -1684695.60248  20500121.881    20500125.535
  22190123.656     5504349.05149   4208359.74446  22190122.888    22190129.173
  21514442.090    -4014792.35649  -3120324.46747  21514441.542    21514448.644
  23602007.318    -8293748.57349  -6452104.31345  23602006.960    23602015.295
  22960927.522   -12440705.03949  -9674208.50946  22960926.432    22960931.654
  21601143.103     4183646.27949   3202980.85747  21601142.420    21601147.933
  19988832.588    -4569203.60549  -3551289.54348  19988831.660    19988838.204
  21462951.337   -13657716.01649 -10621188.09147  21462950.659    21462956.765
 04  7 14 16 37  0.0000000  0  8G22G21G 3G 9G19G18G15G14
  20502645.027    -2306160.79249  -1674365.63148  20502644.594    20502648.228
  22204567.656     5580252.91749   4267505.55546  22204566.938    22204573.258
  21517178.085    -4000414.83449  -3109121.23347  21517177.538    21517184.610
  23596169.644    -8324425.59049  -6476008.42945  23596169.271    23596177.725
  22947866.890   -12509339.06149  -9727689.57246  22947865.773    22947871.037
  21612637.531     4244049.70249   3250048.42847  21612636.823    21612642.333
  19988305.740    -4571972.05849  -3553446.78948  19988304.815    19988311.396
  21447842.526   -13737113.18649 -10683055.97247  21447841.838    21447847.895
 04  7 14 16 37 30.0000000  0  8G22G21G 3G 9G19G18G15G14
  20505222.239    -2292617.51549  -1663812.43648  20505221.800    20505225.421
  22219067.170     5656447.97049   4326878.26946  22219066.440    22219072.824
  21520021.591    -3985472.27549  -3097477.70547  21520021.049    21520028.087
  23590434.391    -8354563.80149  -6499492.69345  23590434.073    23590442.670
  22934889.300   -12577536.25249  -9780830.22046  22934888.227    22934893.560
  21624165.735     4304630.36649   3297254.10847  21624164.992    21624170.464
  19987857.165    -4574329.16249  -3555283.50348  19987856.265    19987862.877
  21432813.484   -13816091.18549 -10744597.22747  21432812.823    21432818.808
 04  7 14 16 38  0.0000000  0  8G22G21G 3G 9G19G18G15G14
  20507853.535    -2278789.89549  -1653037.67548  20507853.109    20507856.733
  22233621.738     5732932.15049   4386476.27346  22233620.975    22233627.380
  21522972.174    -3969966.74449  -3085395.49447  21522971.677    21522978.696
  23584802.071    -8384162.05249  -6522556.20745  23584801.681    23584810.401
  22921995.096   -12645295.99049  -9833630.00646  22921993.994    22921999.269
  21635727.177     4365386.02049   3344596.14947  21635726.468    21635731.945
  19987486.890    -4576275.03049  -3556799.76748  19987485.981    19987492.601
  21417864.380   -13894649.21349 -10805811.23847  21417863.711    21417869.647
 04  7 14 16 38 30.0000000  0  8G22G21G 3G 9G19G18G15G14
  20510539.246    -2264676.44049  -1642040.18748  20510538.839    20510542.432
  22248231.634     5809707.30049   4446300.99746  22248230.840    22248237.283
  21526030.200    -3953896.59549  -3072873.32847  21526029.720    21526036.776
  23579273.297    -8413216.05449  -6545195.63745  23579272.879    23579281.620
  22909185.139   -12712613.38249  -9886085.10946  22909183.981    22909189.172
  21647322.116     4426317.77049   3392075.39947  21647321.421    21647326.944
  19987195.575    -4577806.03349  -3557992.76348  19987194.653    19987201.239
  21402996.059   -13972782.80049 -10866694.50347  21402995.355    21403001.327
 04  7 14 16 39  0.0000000  0  8G22G21G 3G 9G19G18G15G14
  20513279.029    -2250279.00649  -1630821.41148  20513278.603    20513282.196
  22262896.523     5886771.88949   4506351.27746  22262895.758    22262902.234
  21529195.401    -3937263.27849  -3059912.32347  21529194.959    21529202.048
  23573848.320    -8441724.71149  -6567410.12745  23573847.775    23573856.626
  22896459.493   -12779487.12649  -9938194.50446  22896458.322    22896463.526
  21658950.239     4487423.60549   3439690.30547  21658949.541    21658955.047
  19986983.287    -4578921.91849  -3558862.28348  19986982.350    19986988.916
  21388208.652   -14050490.85849 -10927246.19047  21388207.972    21388213.970
 04  7 14 16 39 30.0000000  0  8G22G21G 3G 9G19G18G15G14
  20516072.621    -2235598.61149  -1619382.14748  20516072.199    20516075.763
  22277616.451     5964125.26549   4566626.57546  22277615.697    22277622.105
  21532467.583    -3920067.59149  -3046513.11147  21532467.153    21532474.292
  23568527.330    -8469686.20849  -6589198.26745  23568526.828    23568535.697
  22883818.788   -12845914.89149  -9989956.37346  22883817.583    22883822.824
  21670611.368     4548702.85449   3487440.34147  21670610.628    21670616.162
  19986850.077    -4579621.94749  -3559407.76848  19986849.142    19986855.708
  21373502.632   -14127771.23949 -10987464.63047  21373501.963    21373507.932
 04  7 14 16 40  0.0000000  0  8G22G21G 3G 9G19G18G15G14
  20518919.390    -2220638.98349  -1607725.28748  20518918.978    20518922.526
  22292390.798     6041764.11149   4627124.33346  22292389.989    22292396.304
  21535846.116    -3902313.29949  -3032678.61247  21535845.694    21535852.856
  23563310.346    -8497101.49149  -6610560.77345  23563309.801    23563318.652
  22871262.765   -12911897.27349 -10041371.19246  22871261.545    22871266.825
  21682304.601     4610151.26349   3535322.19547  21682303.913    21682309.475
  19986795.616    -4579907.98949  -3559630.66148  19986794.670    19986801.280
  21358877.889   -14204624.81449 -11047350.48547  21358877.217    21358883.128
 04  7 14 16 40 30.0000000  0  8G22G21G 3G 9G19G18G15G14
  20521820.159    -2205395.49349  -1595847.24548  20521819.740    20521823.285
  22307220.326     6119693.53749   4687848.50346  22307219.503    22307225.826
  21539331.860    -3883995.64049  -3018405.13947  21539331.431    21539338.575
  23558198.596    -8523963.01949  -6631491.76945  23558198.099    23558206.910
  22858793.037   -12977426.64549 -10092433.02446  22858791.748    22858797.060
  21694030.909     4671773.44049   3583339.44747  21694030.265    21694035.811
  19986821.271    -4579773.24349  -3559525.67548  19986820.332    19986826.972
  21344335.823   -14281043.99049 -11106897.85647  21344335.144    21344341.045
 04  7 14 16 41  0.0000000  0  8G22G21G 3G 9G19G18G15G14
  20524773.702    -2189874.45249  -1583752.92948  20524773.285    20524776.884
  22322103.964     6197907.17249   4748794.14046  22322103.119    22322109.412
  21542923.652    -3865120.64549  -3003697.37147  21542923.224    21542930.334
  23553191.810    -8550274.02349  -6651993.78345  23553191.305    23553200.112
  22846408.867   -13042505.93649 -10143144.14946  22846407.601    22846412.889
  21705789.103     4733563.00349   3631487.14447  21705788.425    21705794.030
  19986926.177    -4579221.92349  -3559096.08048  19986925.249    19986931.902
  21329875.750   -14357032.08449 -11166109.30647  21329875.075    21329880.937
 04  7 14 16 41 30.0000000  0  8G22G21G 3G 9G19G18G15G14
  20527780.645    -2174072.71949  -1571439.88948  20527780.253    20527783.852
  22337042.345     6276408.91249   4809964.27146  22337041.508    22337047.837
  21546622.127    -3845685.07949  -2988552.79647  21546621.704    21546628.794
  23548290.923    -8576028.38849  -6672062.07945  23548290.358    23548299.191
  22834111.661   -13107128.65049 -10193499.50246  22834110.384    22834115.550
  21717579.784     4795523.25849   3679767.83847  21717579.103    21717584.715
  19987111.376    -4578248.87549  -3558337.86948  19987110.441    19987117.080
  21315498.872   -14432583.01549 -11224980.11947  21315498.198    21315504.041
 04  7 14 16 42  0.0000000  0  8G22G21G 3G 9G19G18G15G14
  20530839.953    -2157996.01349  -1558912.58248  20530839.546    20530843.115
  22352034.474     6355192.95149   4871354.38246  22352033.619    22352039.987
  21550426.152    -3825694.76949  -2972975.95647  21550425.730    21550432.829
  23543495.356    -8601229.42349  -6691699.19745  23543494.738    23543503.624
  22821900.623   -13171297.90249 -10243501.51446  22821899.378    22821904.487
  21729401.739     4857647.99349   3728176.70047  21729401.049    21729406.722
  19987376.034    -4576858.08549  -3557254.14448  19987375.108    19987381.761
  21301204.630   -14507699.55449 -11283512.44647  21301203.953    21301209.843
 04  7 14 16 42 30.0000000  0  8G22G21G 3G 9G19G18G15G14
  20533952.593    -2141639.08449  -1546166.92248  20533952.161    20533955.768
  22367081.383     6434265.05149   4932968.95346  22367080.582    22367086.917
  21554336.815    -3805144.61249  -2956962.86247  21554336.353    21554343.409
  23538806.436    -8625869.23749  -6710898.99845  23538805.834    23538814.669
  22809777.467   -13235004.91249 -10293143.32746  22809776.211    22809781.433
  21741255.994     4919942.30349   3776717.70247  21741255.292    21741260.996
  19987721.578    -4575042.31749  -3555839.27048  19987720.659    19987727.312
  21286994.564   -14582373.68749 -11341700.03847  21286993.901    21286999.811
 04  7 14 16 43  0.0000000  0  8G22G21G 3G 9G19G18G15G14
  20537117.578    -2125006.80949  -1533206.71148  20537117.150    20537120.833
  22382182.296     6513620.42149   4994804.24746  22382181.468    22382187.869
  21558353.062    -3784039.46249  -2940517.31247  21558352.603    21558359.617
  23534223.921    -8649949.80649  -6729663.01945  23534223.425    23534232.351
  22797741.894   -13298251.46949 -10342426.35346  22797740.703    22797746.018
  21753141.595     4982401.41049   3825387.11247  21753140.864    21753146.633
  19988147.406    -4572804.60049  -3554095.60148  19988146.484    19988153.142
  21272868.332   -14656607.23949 -11399544.31947  21272867.710    21272873.603
 04  7 14 16 43 30.0000000  0  8G22G21G 3G 9G19G18G15G14
  20540334.267    -2108102.89949  -1520034.83748  20540333.863    20540337.547
  22397336.311     6593255.49249   5056857.48646  22397335.567    22397341.946
  21562474.266    -3762382.89549  -2923642.08947  21562473.790    21562480.761
  23529747.749    -8673472.19949  -6747992.09445  23529747.225    23529756.019
  22785793.896   -13361038.39449 -10391351.23146  22785792.724    22785798.004
  21765057.859     5045021.61549   3874182.05847  21765057.144    21765062.915
  19988653.199    -4570146.74249  -3552024.55848  19988652.284    19988658.953
  21258825.823   -14730401.12149 -11457046.00847  21258825.162    21258831.044
 04  7 14 16 44  0.0000000  0  8G22G21G 3G 9G19G18G15G14
  20543603.838    -2090921.17649  -1506646.47648  20543603.409    20543607.096
  22412544.941     6673176.68749   5119133.69346  22412544.158    22412550.505
  21566701.626    -3740168.94749  -2906332.53747  21566701.083    21566707.974
  23525379.379    -8696427.80449  -6765879.54645  23525378.899    23525387.668
  22773935.217   -13423356.26349 -10439910.61846  22773934.093    22773939.261
  21777005.886     5107808.84049   3923107.14547  21777005.193    21777010.952
  19989240.463    -4567060.90149  -3549620.01548  19989239.507    19989246.182
  21244868.692   -14803746.37549 -11514198.11547  21244867.994    21244873.848
 04  7 14 16 44 30.0000000  0  8G22G21G 3G 9G19G18G15G14
  20546924.884    -2073468.86549  -1493047.27548  20546924.460    20546928.182
  22427806.580     6753377.21449   5181627.55446  22427805.823    22427812.242
  21571033.609    -3717404.71749  -2888594.20047  21571033.034    21571039.860
  23521117.968    -8718820.98449  -6783328.70745  23521117.469    23521126.223
  22762165.043   -13485209.39449 -10488107.87646  22762163.892    22762168.973
  21788984.296     5170755.71149   3972156.63047  21788983.611    21788989.385
  19989908.189    -4563552.05449  -3546885.86248  19989907.245    19989913.892
  21230996.073   -14876647.44349 -11571004.10947  21230995.358    21231001.204
 04  7 14 16 45  0.0000000  0  8G22G21G 3G 9G19G18G15G14
  20550298.103    -2055742.36049  -1479234.41648  20550297.695    20550301.448
  22443122.268     6833860.90649   5244342.07246  22443121.440    22443127.872
  21575470.919    -3694086.81849  -2870424.42747  21575470.323    21575477.134
  23516964.804    -8740645.41849  -6800334.71145  23516964.435    23516972.940
  22750484.644   -13546590.92949 -10535937.65346  22750483.448    22750488.445
  21800993.764     5233865.83249   4021333.33247  21800993.086    21800998.878
  19990657.426    -4559614.75149  -3543817.84048  19990656.486    19990663.136
  21217209.212   -14949097.83949 -11627458.92547  21217208.472    21217214.364
 04  7 14 16 45 30.0000000  0  8G22G21G 3G 9G19G18G15G14
  20553722.708    -2037746.24249  -1465211.47048  20553722.264    20553726.016
  22458490.966     6914623.43749   5307273.85946  22458490.141    22458496.530
  21580012.628    -3670219.93649  -2851826.88147  21580012.049    21580018.862
  23512919.600    -8761903.24949  -6816899.22645  23512919.175    23512927.634
  22738893.522   -13607502.56049 -10583401.27546  22738892.402    22738897.355
  21813033.375     5297134.38549   4070633.47247  21813032.682    21813038.511
  19991487.678    -4555251.78249  -3540418.13248  19991486.742    19991493.386
  21203507.715   -15021099.28549 -11683563.91547  21203506.998    21203512.902
 04  7 14 16 46  0.0000000  0  8G22G21G 3G 9G19G18G15G14
  20557198.878    -2019478.84749  -1450977.13548  20557198.438    20557202.157
  22473913.028     6995666.66649   5370424.38146  22473912.185    22473918.661
  21584659.103    -3645802.44249  -2832800.28347  21584658.552    21584665.342
  23508983.083    -8782589.95949  -6833018.71245  23508982.680    23508991.056
  22727392.819   -13667939.36149 -10630494.88846  22727391.634    22727396.593
  21825103.571     5360563.16849   4120058.46947  21825102.826    21825108.642
  19992399.642    -4550459.49749  -3536683.88948  19992398.700    19992405.363
  21189892.540   -15092647.36349 -11739315.63247  21189891.863    21189897.784
 04  7 14 16 46 30.0000000  0  8G22G21G 3G 9G19G18G15G14
  20560726.053    -2000943.30749  -1436533.85548  20560725.626    20560729.298
  22489388.018     7076987.65949   5433791.32746  22489387.151    22489393.619
  21589409.758    -3620837.70049  -2813347.25847  21589409.213    21589415.974
  23505155.218    -8802706.21449  -6848693.68945  23505154.750    23505162.987
  22715982.269   -13727901.60449 -10677218.71246  22715981.074    22715986.125
  21837203.556     5424148.94649   4169605.80847  21837202.799    21837208.584
  19993393.036    -4545239.31349  -3532616.22648  19993392.093    19993398.746
  21176363.619   -15163742.29649 -11794714.24747  21176362.919    21176368.866
 04  7 14 16 47  0.0000000  0  8G22G21G 3G 9G19G18G15G14
  20564304.614    -1982138.02949  -1421880.39248  20564304.188    20564307.826
  22504916.064     7158588.03749   5497375.98246  22504915.222    22504921.702
  21594264.808    -3595324.58249  -2793466.92947  21594264.262    21594271.031
  23501436.489    -8822248.16249  -6863921.13645  23501435.994    23501444.355
  22704662.863   -13787384.73549 -10723569.20446  22704661.690    22704666.874
  21849333.693     5487893.25049   4219276.67347  21849332.952    21849338.734
  19994468.460    -4539587.74549  -3528212.42048  19994467.538    19994474.180
  21162921.623   -15234380.02649 -11849756.60647  21162920.975    21162926.905
 04  7 14 16 47 30.0000000  0  8G22G21G 3G 9G19G18G15G14
  20567933.875    -1963065.98149  -1407019.05948  20567933.446    20567937.083
  22520496.710     7240465.23949   5561176.33746  22520495.945    22520502.431
  21599223.616    -3569266.13249  -2773161.66247  21599223.059    21599229.813
  23497826.864    -8841216.10149  -6878701.32245  23497826.353    23497834.851
  22693434.692   -13846388.79049 -10769546.38446  22693433.593    22693438.894
  21861493.497     5551793.06349   4269068.71947  21861492.743    21861498.466
  19995625.783    -4533506.06849  -3523473.46248  19995624.847    19995631.494
  21149566.710   -15304560.67049 -11904442.79147  21149566.060    21149571.931
 04  7 14 16 48  0.0000000  0  8G22G21G 3G 9G19G18G15G14
  20571613.670    -1943728.54649  -1391950.93248  20571613.248    20571616.854
  22536129.970     7322618.06949   5625191.48846  22536129.192    22536135.668
  21604285.946    -3542663.84449  -2752432.63147  21604285.374    21604292.113
  23494326.643    -8859608.88349  -6893033.33145  23494326.137    23494334.696
  22682298.262   -13904911.78849 -10815148.71646  22682297.122    22682302.487
  21873682.576     5615847.16449   4318980.99447  21873681.825    21873687.507
  19996865.079    -4526993.61849  -3518398.83748  19996864.139    19996870.738
  21136299.073   -15374282.66549 -11958771.58947  21136298.395    21136304.211
 04  7 14 16 48 30.0000000  0  8G22G21G 3G 9G19G18G15G14
  20575344.253    -1924124.39349  -1376674.97248  20575343.836    20575347.358
  22551815.804     7405047.99749   5689422.53346  22551815.073    22551821.573
  21609451.985    -3515516.60949  -2731278.95947  21609451.368    21609458.117
  23490936.763    -8877422.56049  -6906914.08545  23490936.254    23490944.934
  22671254.010   -13962949.81949 -10860373.14246  22671252.878    22671258.316
  21885901.211     5680056.90449   4369014.53847  21885900.536    21885906.199
  19998186.890    -4520047.46849  -3512986.26548  19998185.964    19998192.539
  21123119.436   -15443542.07849 -12012739.92947  21123118.769    21123124.548
 04  7 14 16 49  0.0000000  0  8G22G21G 3G 9G19G18G15G14
  20579125.021    -1904256.58449  -1361193.55548  20579124.588    20579128.096
  22567553.804     7487751.84949   5753867.04646  22567553.068    22567559.636
  21614720.972    -3487828.03249  -2709703.45947  21614720.350    21614727.118
  23487657.061    -8894658.26349  -6920344.47845  23487656.484    23487665.050
  22660301.943   -14020503.10749 -10905219.84846  22660300.830    22660306.292
  21898148.863     5744418.65049   4419166.52647  21898148.227    21898153.878
  19999590.960    -4512668.99449  -3507236.81148  19999590.032    19999596.629
  21110027.727   -15512339.44049 -12066348.23047  21110027.033    21110032.809
 04  7 14 16 49 30.0000000  0  8G22G21G 3G 9G19G18G15G14
  20582955.843    -1884125.20649  -1345506.77648  20582955.417    20582958.973
  22583344.078     7570729.58849   5818524.96146  22583343.267    22583349.811
  21620092.890    -3459598.50549  -2687706.44747  21620092.272    21620099.039
  23484487.594    -8911313.61649  -6933322.64345  23484487.088    23484495.795
  22649442.844   -14077568.67649 -10949686.51146  22649441.688    22649447.041
  21910425.450     5808932.47249   4469437.01747  21910424.808    21910430.452
  20001077.657    -4504856.51249  -3501149.17448  20001076.743    20001083.377
  21097024.349   -15580672.27149 -12119594.56647  21097023.675    21097029.482
 04  7 14 16 50  0.0000000  0  8G22G21G 3G 9G19G18G15G14
  20586836.568    -1863731.90549  -1329615.89248  20586836.140    20586839.697
  22599186.140     7653980.10349   5883395.43646  22599185.330    22599191.925
  21625567.397    -3430829.82849  -2665289.32147  21625566.772    21625573.545
  23481428.695    -8927387.67649  -6945847.85145  23481428.266    23481437.104
  22638676.795   -14134145.23349 -10993772.13546  22638675.601    22638680.838
  21922730.734     5873596.77749   4519824.77347  21922730.039    21922735.641
  20002646.985    -4496609.69249  -3494723.09348  20002646.056    20002652.740
  21084109.607   -15648539.41849 -12172478.02547  21084108.945    21084114.806
 04  7 14 16 50 30.0000000  0  8G22G21G 3G 9G19G18G15G14
  20590767.112    -1843076.90449  -1313521.08948  20590766.669    20590770.205
  22615080.083     7737503.28949   5948478.39746  22615079.237    22615085.873
  21631144.288    -3401522.65849  -2642452.59047  21631143.731    21631150.525
  23478480.957    -8942878.30949  -6957918.44246  23478480.506    23478489.364
  22628004.289   -14190229.89449 -11037474.45546  22628003.079    22628008.227
  21935064.571     5938411.43149   4570329.67847  21935063.831    21935069.479
  20004299.302    -4487926.82049  -3487957.22348  20004298.352    20004305.048
  21071284.007   -15715938.22349 -12224996.54147  21071283.324    21071289.231
 04  7 14 16 51  0.0000000  0  8G22G21G 3G 9G19G18G15G14
  20594747.409    -1822160.09149  -1297222.28448  20594746.953    20594750.546
  22631025.970     7821299.22549   6013773.88046  22631025.187    22631031.822
  21636823.681    -3371677.17949  -2619196.38947  21636823.169    21636829.966
  23475644.594    -8957783.23849  -6969532.64446  23475644.160    23475652.927
  22617425.862   -14245819.96049 -11080791.38346  22617424.593    22617429.653
  21947426.934     6003376.33949   4620951.66047  21947426.233    21947431.898
  20006034.874    -4478806.25449  -3480850.29648  20006033.941    20006040.647
  21058548.031   -15782866.15649 -12277148.13947  21058547.321    21058553.245
 04  7 14 16 51 30.0000000  0  8G22G21G 3G 9G19G18G15G14
  20598776.918    -1800984.86649  -1280722.12048  20598776.484    20598780.095
  22647023.224     7905364.67449   6079279.37746  22647022.423    22647029.052
  21642604.787    -3341297.37549  -2595523.83247  21642604.297    21642611.076
  23472919.476    -8972103.71349  -6980691.44845  23472919.016    23472927.704
  22606941.402   -14300915.85549 -11123723.22946  22606940.171    22606945.197
  21959817.333     6068488.11249   4671688.09047  21959816.625    21959822.288
  20007853.442    -4469249.71549  -3473403.65448  20007852.492    20007859.201
  21045901.481   -15849324.05549 -12328933.48347  21045900.776    21045906.630
 04  7 14 16 52  0.0000000  0  8G22G21G 3G 9G19G18G15G14
  20602855.764    -1779550.79549  -1264020.25448  20602855.310    20602858.902
  22663071.743     7989699.86549   6144995.04546  22663070.953    22663077.603
  21648487.658    -3310383.22749  -2571434.90047  21648487.124    21648493.856
  23470306.103    -8985836.79049  -6991392.53445  23470305.636    23470314.269
  22596551.633   -14355514.42049 -11166267.55246  22596550.354    22596555.405
  21972235.695     6133747.05149   4722539.19747  21972234.988    21972240.654
  20009755.385    -4459255.15949  -3465615.70148  20009754.435    20009761.141
  21033344.986   -15915308.96249 -12380350.25847  21033344.279    21033350.032
 04  7 14 16 52 30.0000000  0  8G22G21G 3G 9G19G18G15G14
  20606983.800    -1757857.86149  -1247116.67648  20606983.332    20606986.936
  22679171.662     8074305.16249   6210921.19646  22679170.817    22679177.472
  21654472.120    -3278935.08949  -2546929.87947  21654471.541    21654478.210
  23467804.946    -8998980.25249  -7001634.16045  23467804.437    23467813.172
  22586256.994   -14409612.81349 -11208422.12346  22586255.740    22586260.848
  21984682.101     6199153.28149   4773505.06447  21984681.382    21984687.052
  20011741.029    -4448820.62549  -3457484.90348  20011740.071    20011746.772
  21020878.964   -15980818.37049 -12431396.51247  21020878.269    21020883.929
 04  7 14 16 53  0.0000000  0  8G22G21G 3G 9G19G18G15G14
  20611160.485    -1735909.19449  -1230013.82648  20611160.031    20611163.655
  22695322.392     8159177.73049   6277055.61846  22695321.605    22695328.199
  21660557.549    -3246956.34149  -2522011.39647  21660556.938    21660563.574
  23465415.892    -9011535.06749  -7011417.11645  23465415.441    23465423.893
  22576057.654   -14463211.05349 -11250186.96446  22576056.341    22576061.460
  21997156.102     6264704.15549   4824583.64847  21997155.307    21997160.981
  20013810.157    -4437947.34049  -3449012.21448  20013809.198    20013815.879
  21008503.348   -16045852.68149 -12482072.56247  21008502.626    21008508.254
 04  7 14 16 53 30.0000000  0  8G22G21G 3G 9G19G18G15G14
  20615385.961    -1713704.47949  -1212711.46348  20615385.496    20615389.122
  22711524.108     8244317.74749   6343398.42446  22711523.309    22711529.875
  21666743.784    -3214447.57249  -2496679.90147  21666743.206    21666749.771
  23463139.329    -9023498.77149  -7020739.46145  23463138.827    23463147.149
  22565953.968   -14516306.42649 -11291559.96746  22565952.656    22565957.824
  22009657.528     6330399.56049   4875774.85147  22009656.782    22009662.445
  20015963.134    -4426633.58049  -3440196.30048  20015962.168    20015968.805
  20996218.665   -16110409.14549 -12532376.26147  20996217.951    20996223.536
 04  7 14 16 54  0.0000000  0  8G22G21G 3G 9G19G18G15G14
  20619660.037    -1691244.11649  -1195209.89748  20619659.547    20619663.187
  22727776.600     8329724.70049   6409949.24846  22727775.788    22727782.349
  21673030.640    -3181409.78649  -2470936.19047  21673030.094    21673036.682
  23460975.435    -9034869.80949  -7029599.99545  23460974.925    23460983.277
  22555946.331   -14568896.73449 -11332539.41046  22555945.004    22555950.291
  22022186.301     6396238.63749   4927078.00147  22022185.558    22022191.166
  20018200.121    -4414878.36749  -3431036.39748  20018199.159    20018205.752
  20984025.249   -16174485.80849 -12582306.09547  20984024.552    20984030.124
 04  7 14 16 54 30.0000000  0  8G22G21G 3G 9G19G18G15G14
  20623982.437    -1668529.64949  -1177510.32448  20623981.964    20623985.609
  22744079.587     8415397.36649   6476707.12046  22744078.812    22744085.358
  21679417.845    -3147844.62649  -2444781.53047  21679417.312    21679423.916
  23458924.567    -9045647.50449  -7037998.18745  23458923.995    23458932.260
  22546035.120   -14620980.37349 -11373124.05046  22546033.766    22546039.114
  22034742.215     6462220.24849   4978492.21647  22034741.496    22034747.086
  20020521.174    -4402681.20749  -3421532.12248  20020520.182    20020526.774
  20971923.391   -16238081.58649 -12631861.20647  20971922.680    20971928.256
 04  7 14 16 55  0.0000000  0  8G22G21G 3G 9G19G18G15G14
  20628353.095    -1645561.76649  -1159613.28148  20628352.629    20628356.245
  22760433.158     8501335.34049   6543671.73346  22760432.320    22760438.835
  21685905.161    -3113753.34749  -2418216.91047  21685904.621    21685911.286
  23456986.704    -9055830.45749  -7045932.94045  23456986.187    23456994.455
  22536220.677   -14672555.39549 -11413312.36346  22536219.350    22536224.674
  22047325.162     6528343.99649   5030017.18647  22047324.435    22047330.081
  20022926.491    -4390041.15249  -3411682.73448  20022925.517    20022932.116
  20959913.423   -16301194.44249 -12681040.02047  20959912.714    20959918.282
 04  7 14 16 55 30.0000000  0  8G22G21G 3G 9G19G18G15G14
  20632771.645    -1622342.27849  -1141520.18948  20632771.170    20632774.822
  22776836.628     8587536.09149   6610841.07146  22776835.805    22776842.359
  21692492.046    -3079138.86649  -2391244.60747  21692491.491    21692498.215
  23455162.051    -9065418.73549  -7053404.28246  23455161.560    23455169.918
  22526503.258   -14723620.80949 -11453103.59346  22526501.888    22526507.178
  22059934.771     6594608.09849   5081651.51647  22059934.095    22059939.753
  20025416.014    -4376958.51649  -3401488.47748  20025415.044    20025421.657
  20947995.371   -16363823.98349 -12729842.22547  20947994.665    20948000.229
 04  7 14 16 56  0.0000000  0  8G22G21G 3G 9G19G18G15G14
  20637238.047    -1598871.12849  -1123230.99348  20637237.588    20637241.248
  22793290.108     8674000.04949   6678215.53446  22793289.314    22793295.935
  21699178.456    -3044001.51849  -2363864.87347  21699177.902    21699184.689
  23453451.214    -9074409.91149  -7060410.36346  23453450.644    23453459.044
  22516883.171   -14774174.22449 -11492495.84846  22516881.817    22516887.116
  22072571.033     6661012.01949   5133394.80147  22072570.378    22072576.019
  20027990.126    -4363431.46449  -3390947.92448  20027989.181    20027995.796
  20936169.708   -16425967.97749 -12778266.08547  20936168.992    20936174.559
 04  7 14 16 56 30.0000000  0  8G22G21G 3G 9G19G18G15G14
  20641752.016    -1575149.96149  -1104746.97148  20641751.573    20641755.227
  22809793.464     8760726.02549   6745794.15546  22809792.679    22809799.438
  21705963.949    -3008343.29049  -2336079.25647  21705963.384    21705970.253
  23451853.914    -9082803.59949  -7066950.83746  23451853.410    23451861.658
  22507360.776   -14824214.30849 -11531488.10946  22507359.499    22507364.762
  22085233.690     6727554.65949   5185246.17646  22085233.021    22085238.682
  20030648.808    -4349460.03249  -3380061.09648  20030647.861    20030654.475
  20924436.645   -16487625.28449 -12826310.70647  20924435.955    20924441.534
 04  7 14 16 57  0.0000000  0  8G22G21G 3G 9G19G18G15G14
  20646313.779    -1551177.94749  -1086067.48148  20646313.325    20646316.953
  22826346.714     8847713.91149   6813576.87446  22826345.950    22826352.692
  21712848.508    -2972164.37549  -2307887.91047  21712847.968    21712854.958
  23450370.832    -9090597.38449  -7073023.87746  23450370.396    23450378.554
  22497936.842   -14873737.62449 -11570077.70546  22497935.573    22497940.781
  22097922.861     6794236.59149   5237206.08546  22097922.187    22097927.896
  20033392.501    -4335042.05649  -3368826.31048  20033391.532    20033398.165
  20912796.791   -16548792.98749 -12873973.81247  20912796.083    20912801.699
 04  7 14 16 57 30.0000000  0  8G22G21G 3G 9G19G18G15G14
  20650922.870    -1526957.30949  -1067194.26548  20650922.404    20650926.040
  22842949.592     8934961.80349   6881562.17946  22842948.715    22842955.435
  21719831.458    -2935468.03649  -2279293.38447  21719830.974    21719838.091
  23449001.859    -9097791.52649  -7078629.64846  23449001.384    23449009.592
  22488611.317   -14922743.80549 -11608264.33046  22488610.059    22488615.244
  22110638.180     6861055.69849   5289272.89147  22110637.484    22110643.206
  20036220.954    -4320178.30149  -3357244.16748  20036220.004    20036226.660
  20901250.133   -16609470.94749 -12921255.30847  20901249.406    20901255.047
 04  7 14 16 58  0.0000000  0  8G22G21G 3G 9G19G18G15G14
  20655578.980    -1502489.43749  -1048128.39748  20655578.501    20655582.123
  22859601.546     9022468.59449   6949749.21546  22859600.707    22859607.461
  21726912.630    -2898255.92549  -2250296.95147  21726912.192    21726919.374
  23447747.160    -9104385.10449  -7083767.45745  23447746.662    23447754.774
  22479384.469   -14971231.63649 -11646047.05046  22479383.227    22479388.406
  22123379.288     6928010.59449   5341445.49947  22123378.604    22123384.338
  20039134.363    -4304868.23949  -3345314.25048  20039133.387    20039140.071
  20889796.805   -16669658.16649 -12968154.40547  20889796.105    20889801.794
 04  7 14 16 58 30.0000000  0  8G22G21G 3G 9G19G18G15G14
  20660281.760    -1477776.37949  -1028871.47748  20660281.285    20660284.872
  22876302.358     9110231.83749   7018136.11046  22876301.586    22876308.335
  21734091.626    -2860530.72549  -2220900.71147  21734091.112    21734098.345
  23446606.638    -9110378.38649  -7088437.50245  23446606.093    23446614.332
  22470256.396   -15019200.58549 -11683425.44447  22470255.116    22470260.318
  22136145.907     6995099.38349   5393722.43247  22136145.255    22136150.994
  20042132.542    -4289112.61449  -3333037.13848  20042131.591    20042138.284
  20878436.987   -16729354.12149 -13014670.69647  20878436.299    20878442.048
 04  7 14 16 59  0.0000000  0  8G22G21G 3G 9G19G18G15G14
  20665031.673    -1452815.51749  -1009421.45248  20665031.207    20665034.780
  22893052.637     9198254.59749   7086725.19046  22893051.720    22893058.598
  21741368.546    -2822290.78949  -2191103.37147  21741367.984    21741375.242
  23445581.211    -9115766.99449  -7092636.36745  23445580.642    23445588.908
  22461227.990   -15066645.39949 -11720395.42446  22461226.656    22461231.909
  22148938.503     7062324.55849   5446105.65947  22148937.850    22148943.584
  20045216.391    -4272907.13649  -3320409.48648  20045215.456    20045222.136
  20867171.598   -16788554.08849 -13060800.50548  20867170.918    20867176.713
 04  7 14 16 59 30.0000000  0  8G22G21G 3G 9G19G18G15G14
  20669828.206    -1427609.42749   -989780.34648  20669827.756    20669831.336
  22909851.621     9286533.70549   7155514.04346  22909850.731    22909857.587
  21748742.774    -2783539.32049  -2160907.44147  21748742.179    21748749.411
  23444670.643    -9120552.00149  -7096364.90745  23444670.142    23444678.206
  22452299.109   -15113566.26949 -11756957.12946  22452297.848    22452303.159
  22161756.504     7129683.70949   5498593.27746  22161755.906    22161761.633
  20048385.575    -4256253.06149  -3307432.28548  20048384.632    20048391.322
  20856000.491   -16847258.54349 -13106544.20048  20855999.792    20856005.611
 04  7 14 17  0  0.0000000  0  8G22G21G 3G 9G19G18G15G14
  20674671.013    -1402160.31449   -969949.87248  20674670.563    20674674.164
  22926698.974     9375067.16249   7224501.07946  22926698.158    22926705.038
  21756213.745    -2744279.27549  -2130315.22247  21756213.157    21756220.346
  23443874.887    -9124733.51149  -7099623.18845  23443874.363    23443882.556
  22443469.956   -15159962.71149 -11793110.18946  22443468.780    22443474.113
  22174599.640     7197174.74949   5551183.65646  22174599.034    22174604.812
  20051640.080    -4239150.75549  -3294105.81848  20051639.089    20051645.816
  20844923.710   -16905467.36349 -13151901.68848  20844923.000    20844928.808
 04  7 14 17  0 30.0000000  0  8G22G21G 3G 9G19G18G15G14
  20679560.125    -1376467.94849   -949929.84848  20679559.649    20679563.295
  22943594.945     9463855.04349   7293686.36546  22943594.040    22943600.935
  21763781.226    -2704511.72449  -2099327.54147  21763780.678    21763787.854
  23443194.396    -9128309.75349  -7102409.83745  23443193.835    23443202.033
  22434741.236   -15205832.23949 -11828852.67046  22434740.033    22434745.331
  22187467.866     7264797.56949   5603876.73246  22187467.216    22187473.041
  20054980.111    -4221598.57349  -3280428.80448  20054979.137    20054985.870
  20833941.748   -16963178.05849 -13196871.02648  20833941.043    20833946.809
 04  7 14 17  1  0.0000000  0  8G22G21G 3G 9G19G18G15G14
  20684495.457    -1350532.52149   -929720.42048  20684494.972    20684498.614
  22960539.163     9552897.17749   7363069.74846  22960538.170    22960545.224
  21771445.245    -2664237.26649  -2067944.86947  21771444.712    21771451.855
  23442629.249    -9131278.95349  -7104723.45645  23442628.657    23442636.880
  22426113.294   -15251172.30249 -11864182.58646  22426112.086    22426117.321
  22200361.288     7332552.52549   5656672.78546  22200360.620    22200366.420
  20058406.013    -4203595.30849  -3266400.29648  20058405.065    20058411.778
  20823054.929   -17020388.42649 -13241450.50248  20823054.220    20823059.968
 04  7 14 17  1 30.0000000  0  8G22G21G 3G 9G19G18G15G14
  20689476.643    -1324356.18249   -909323.27048  20689476.184    20689479.822
  22977531.173     9642191.36249   7432649.56545  22977530.267    22977537.415
  21779205.244    -2623458.79649  -2036169.45247  21779204.670    21779211.750
  23442179.367    -9133641.88249  -7106564.66445  23442178.937    23442187.216
  22417586.222   -15295982.55449 -11899099.65346  22417584.998    22417590.170
  22213279.390     7400437.13949   5709569.86846  22213278.697    22213284.494
  20061917.626    -4185141.71649  -3252020.88148  20061916.674    20061923.382
  20812263.375   -17077098.56549 -13285640.18748  20812262.630    20812268.356
 04  7 14 17  2  0.0000000  0  8G22G21G 3G 9G19G18G15G14
  20694503.551    -1297939.58349   -888738.90448  20694503.054    20694506.731
  22994571.028     9731736.62849   7502425.02046  22994570.190    22994577.378
  21787060.820    -2582177.94249  -2004002.56347  21787060.192    21787067.214
  23441845.414    -9135397.26549  -7107932.44645  23441844.889    23441853.046
  22409160.360   -15340261.21549 -11933602.49746  22409159.122    22409164.173
  22226221.983     7468450.93149   5762567.61446  22226221.317    22226227.117
  20065515.154    -4166236.84449  -3237289.81748  20065514.144    20065520.867
  20801567.253   -17133306.66049 -13329438.67348  20801566.545    20801572.245
 04  7 14 17  2 30.0000000  0  8G22G21G 3G 9G19G18G15G14
  20699576.119    -1271283.25249   -867967.73548  20699575.622    20699579.307
  23011658.757     9821532.25849   7572395.57946  23011657.930    23011665.026
  21795011.649    -2540396.34949  -1971445.49347  21795011.028    21795018.029
  23441626.936    -9136544.24649  -7108826.12245  23441626.450    23441634.664
  22400835.980   -15384006.65649 -11967689.84447  22400834.715    22400839.721
  22239189.150     7536593.51049   5815665.70546  22239188.430    22239194.261
  20069198.589    -4146880.01949  -3222206.58648  20069197.614    20069204.356
  20790966.933   -17189011.64649 -13372845.12548  20790966.234    20790971.887
 04  7 14 17  3  0.0000000  0  8G22G21G 3G 9G19G18G15G14
  20704693.952    -1244388.96549   -847011.14448  20704693.439    20704697.101
  23028793.952     9911576.72949   7642560.01746  23028792.988    23028800.046
  21803057.223    -2498116.59849  -1938500.25247  21803056.618    21803063.595
  23441524.395    -9137082.80949  -7109245.73145  23441523.991    23441532.179
  22392613.095   -15427218.11549 -12001361.09947  22392611.837    22392616.884
  22252180.473     7604863.02049   5868862.70246  22252179.697    22252185.541
  20072968.046    -4127071.50049  -3206771.38448  20072967.054    20072973.814
  20780462.469   -17244212.89849 -13415859.05748  20780461.756    20780467.367
 04  7 14 17  3 30.0000000  0  8G22G21G 3G 9G19G18G15G14
  20709857.188    -1217255.91149   -825868.50648  20709856.694    20709860.344
  23045976.377    10001870.44249   7712918.68246  23045975.473    23045982.417
  21811197.612    -2455338.76849  -1905166.89247  21811197.022    21811203.923
  23441538.199    -9137010.66049  -7109189.47745  23441537.751    23441545.959
  22384492.411   -15469892.35549 -12034613.75047  22384491.169    22384496.277
  22265196.089     7673260.59249   5922159.49146  22265195.336    22265201.194
  20076823.828    -4106809.10749  -3190982.51448  20076822.835    20076829.632
  20770054.430   -17298907.39649 -13458478.11248  20770053.731    20770059.313
 04  7 14 17  4  0.0000000  0  8G22G21G 3G 9G19G18G15G14
  20715065.560    -1189886.02149   -804541.31848  20715065.029    20715068.659
  23063205.898    10092411.53249   7783470.11246  23063205.044    23063211.958
  21819432.311    -2412065.72349  -1871447.64647  21819431.662    21819438.509
  23441668.045    -9136328.22349  -7108657.64645  23441667.582    23441675.821
  22376474.088   -15512028.87349 -12067447.39647  22376472.890    22376477.984
  22278235.749     7741784.55749   5975554.77146  22278235.029    22278240.823
  20080765.885    -4086093.36849  -3174840.38848  20080764.916    20080771.759
  20759742.857   -17353095.01049 -13500702.19448  20759742.130    20759747.691
 04  7 14 17  4 30.0000000  0  8G22G21G 3G 9G19G18G15G14
  20720318.885    -1162279.86149   -783030.02148  20720318.332    20720321.957
  23080482.272    10183198.87449   7854213.43946  23080481.445    23080488.289
  21827760.888    -2368299.19249  -1837343.86947  21827760.196    21827767.007
  23441914.073    -9135034.73549  -7107649.66445  23441913.630    23441921.887
  22368558.457   -15553626.15449 -12099860.85947  22368557.220    22368562.332
  22291299.319     7810434.05849   6029047.87546  22291298.575    22291304.384
  20084794.384    -4064923.44949  -3158344.35448  20084793.397    20084800.268
  20749527.977   -17406774.55449 -13542530.36848  20749527.251    20749532.806
 04  7 14 17  5  0.0000000  0  8G22G21G 3G 9G19G18G15G14
  20725616.984    -1134438.02649   -761335.09148  20725616.454    20725620.089
  23097805.536    10274232.11449   7925148.34446  23097804.603    23097811.446
  21836182.999    -2324040.50849  -1802856.59847  21836182.326    21836189.184
  23442276.583    -9133129.28449  -7106164.84646  23442276.120    23442284.570
  22360745.811   -15594682.29749 -12131852.65447  22360744.499    22360749.668
  22304386.656     7879208.31849   6082638.19346  22304385.875    22304391.754
  20088909.401    -4043298.80549  -3141493.99648  20088908.418    20088915.256
  20739410.088   -17459944.33149 -13583961.32548  20739409.356    20739414.898
 04  7 14 17  5 30.0000000  0  8G22G21G 3G 9G19G18G15G14
  20730959.690    -1106361.99849   -739457.66848  20730959.166    20730962.792
  23115174.984    10365509.18549   7996273.27346  23115174.088    23115180.908
  21844698.189    -2279292.47549  -1767988.01147  21844697.571    21844704.477
  23442755.565    -9130611.95049  -7104203.23246  23442755.128    23442763.771
  22353036.101   -15635196.70349 -12163422.31047  22353034.816    22353040.091
  22317497.443     7948106.21949   6136324.85446  22317496.659    22317502.632
  20093110.947    -4021219.63649  -3124289.45248  20093109.959    20093116.765
  20729389.306   -17512603.94049 -13624994.75348  20729388.563    20729394.107
 04  7 14 17  6  0.0000000  0  8G22G21G 3G 9G19G18G15G14
  20736346.824    -1078052.35849   -717398.21448  20736346.286    20736349.917
  23132590.662    10457029.50049   8067587.73546  23132589.791    23132596.779
  21853306.284    -2234056.68049  -1732739.34847  21853305.661    21853312.587
  23443351.250    -9127481.74449  -7101764.05346  23443350.766    23443359.470
  22345429.830   -15675167.48549 -12194568.36547  22345428.572    22345433.870
  22330631.689     8017127.16549   6190107.38446  22330630.926    22330636.891
  20097399.212    -3998684.91849  -3106729.94548  20097398.221    20097404.979
  20719465.838   -17564751.83049 -13665629.43848  20719465.103    20719470.663
 04  7 14 17  6 30.0000000  0  8G22G21G 3G 9G19G18G15G14
  20741778.241    -1049509.88449   -695157.32848  20741777.726    20741781.384
  23150052.423    10548791.85749   8139090.80846  23150051.573    23150058.666
  21862006.787    -2188335.26649  -1697112.27747  21862006.158    21862013.097
  23444063.543    -9123738.25449  -7098847.00246  23444063.102    23444071.838
  22337927.224   -15714593.53749 -12225289.95547  22337925.986    22337931.268
  22343789.211     8086270.33049   6243985.17346  22343788.477    22343794.426
  20101774.112    -3975694.37549  -3088815.25248  20101773.152    20101779.909
  20709639.926   -17616387.00649 -13705864.60348  20709639.195    20709644.783
 04  7 14 17  7  0.0000000  0  8G22G21G 3G 9G19G18G15G14
  20747253.891    -1020735.11649   -672735.43448  20747253.385    20747257.068
  23167560.281    10640795.69349   8210782.04546  23167559.363    23167566.559
  21870799.446    -2142129.38249  -1661107.70347  21870798.831    21870805.754
  23444892.779    -9119380.59849  -7095451.37646  23444892.309    23444901.075
  22330528.801   -15753472.70549 -12255585.40247  22330527.547    22330532.716
  22356969.974     8155535.74749   6297958.21346  22356969.232    22356975.158
  20106236.068    -3952246.97149  -3070544.56648  20106235.093    20106241.843
  20699911.896   -17667507.87449 -13745699.01148  20699911.160    20699916.749
 04  7 14 17  7 30.0000000  0  8G22G21G 3G 9G19G18G15G14
  20752773.311     -991730.25849   -650134.25448  20752772.804    20752776.520
  23185113.468    10733038.71549   8282659.66146  23185112.700    23185119.887
  21879683.619    -2095442.47449  -1624728.29947  21879683.021    21879690.004
  23445838.656    -9114409.62849  -7091577.87746  23445838.165    23445847.044
  22323234.463   -15791804.98649 -12285454.70547  22323233.207    22323238.265
  22370173.552     8224921.01349   6352024.62146  22370172.822    22370178.816
  20110784.711    -3928343.80049  -3051918.72148  20110783.734    20110790.468
  20690281.691   -17718114.70649 -13785132.86948  20690280.957    20690286.519
 04  7 14 17  8  0.0000000  0  8G22G21G 3G 9G19G18G15G14
  20758336.440     -962495.79249   -627354.15648  20758335.923    20758339.659
  23202712.330    10825520.36949   8354723.24646  23202711.487    23202718.578
  21888658.922    -2048276.32449  -1587975.46547  21888658.358    21888665.413
  23446901.393    -9108824.65749  -7087225.92546  23446900.809    23446909.805
  22316044.472   -15829589.05149 -12314896.82447  22316043.155    22316048.169
  22383399.844     8294425.80949   6406184.18646  22383399.145    22383405.121
  20115420.286    -3903984.01149  -3032937.07548  20115419.305    20115426.000
  20680749.621   -17768206.16049 -13824165.13448  20680748.886    20680754.399
 04  7 14 17  8 30.0000000  0  8G22G21G 3G 9G19G18G15G14
  20763943.439     -933030.82949   -604394.45348  20763942.931    20763946.696
  23220356.506    10918240.71649   8426972.78845  23220355.642    23220362.730
  21897725.447    -2000631.12549  -1550849.34547  21897724.881    21897732.035
  23448081.373    -9102623.73649  -7082394.00446  23448080.802    23448089.708
  22308959.261   -15866821.80049 -12343909.34447  22308957.970    22308963.031
  22396649.081     8364050.82949   6460437.42846  22396648.413    22396654.400
  20120143.135    -3879165.59649  -3013598.05048  20120142.155    20120148.808
  20671316.091   -17817779.60249 -13862793.75248  20671315.356    20671320.832
 04  7 14 17  9  0.0000000  0  8G22G21G 3G 9G19G18G15G14
  20769593.899     -903337.35749   -581256.69248  20769593.410    20769597.158
  23238045.742    11011197.64149   8499406.70445  23238044.846    23238051.769
  21906882.578    -1952510.31149  -1513352.61947  21906881.991    21906889.179
  23449378.414    -9095807.49949  -7077082.61746  23449377.854    23449386.577
  22301979.085   -15903503.03349 -12372492.11647  22301977.782    22301982.854
  22409920.863     8433794.27149   6514782.95446  22409920.185    22409926.152
  20124953.069    -3853889.31849  -2993902.25248  20124952.056    20124958.720
  20661981.161   -17866835.01449 -13901018.71348  20661980.379    20661985.865
 04  7 14 17  9 30.0000000  0  8G22G21G 3G 9G19G18G15G14
  20775287.464     -873417.24249   -557942.32848  20775286.988    20775290.791
  23255779.543    11104389.45249   8572023.64245  23255778.709    23255785.682
  21916129.666    -1903916.57449  -1475487.37647  21916129.060    21916136.286
  23450792.515    -9088376.57949  -7071292.24846  23450791.855    23450800.619
  22295103.896   -15939632.41749 -12400644.87547  22295102.621    22295107.654
  22423214.880     8503654.62849   6569219.57246  22423214.172    22423220.108
  20129849.996    -3828155.80549  -2973850.16548  20129848.976    20129855.663
  20652744.779   -17915372.41349 -13938840.02548  20652744.023    20652749.500
 04  7 14 17 10  0.0000000  0  8G22G21G 3G 9G19G18G15G14
  20781024.349     -843269.80149   -534450.82848  20781023.856    20781027.663
  23273558.023    11197816.46949   8644823.81645  23273557.281    23273564.291
  21925466.595    -1854850.66249  -1437254.19547  21925465.976    21925473.227
  23452323.847    -9080329.12549  -7065021.49945  23452323.235    23452331.878
  22288334.219   -15975207.35949 -12428365.60647  22288332.968    22288337.943
  22436531.202     8573632.37249   6623747.65946  22436530.533    22436536.474
  20134834.290    -3801963.21049  -2953440.35648  20134833.275    20134839.960
  20643607.449   -17963389.27149 -13976255.72848  20643606.679    20643612.140
 04  7 14 17 10 30.0000000  0  8G22G21G 3G 9G19G18G15G14
  20786804.384     -812895.65149   -510782.67248  20786803.895    20786807.713
  23291381.204    11291477.07149   8717806.06145  23291380.452    23291387.351
  21934892.992    -1805314.66649  -1398654.72647  21934892.400    21934899.645
  23453972.637    -9071664.62149  -7058269.90045  23453972.023    23453980.624
  22281670.347   -16010226.34549 -12455653.12347  22281669.091    22281674.002
  22449869.874     8643727.18349   6678366.97146  22449869.159    22449875.128
  20139906.021    -3775311.06749  -2932672.44348  20139905.004    20139911.702
  20634569.422   -18010884.43249 -14013264.90248  20634568.645    20634574.103
 04  7 14 17 11  0.0000000  0  8G22G21G 3G 9G19G18G15G14
  20792626.950     -782297.98149   -486940.34448  20792626.454    20792630.252
  23309248.259    11385368.17149   8790967.89845  23309247.464    23309254.305
  21944408.015    -1755312.94849  -1359692.35547  21944407.383    21944414.652
  23455738.386    -9062385.25549  -7051039.18146  23455737.821    23455746.584
  22275112.022   -16044690.93849 -12482508.65847  22275110.762    22275115.583
  22463230.065     8713935.80349   6733074.96346  22463229.390    22463235.365
  20145064.802    -3748201.61549  -2911548.19748  20145063.793    20145070.486
  20625630.274   -18057859.69449 -14049868.96748  20625629.524    20625634.998
 04  7 14 17 11 30.0000000  0  8G22G21G 3G 9G19G18G15G14
  20798492.348     -751474.93949   -462922.40348  20798491.864    20798495.664
  23327159.224    11479491.43049   8864310.60445  23327158.484    23327165.469
  21954011.856    -1704844.69449  -1320366.45147  21954011.234    21954018.458
  23457621.826    -9052488.04249  -7043327.07346  23457621.187    23457629.794
  22268659.906   -16078597.10849 -12508929.05347  22268658.638    22268663.453
  22476612.423     8784260.47349   6787873.38246  22476611.746    22476617.706
  20150311.211    -3720631.52049  -2890065.01648  20150310.191    20150316.891
  20616790.787   -18104311.33249 -14086065.01348  20616790.033    20616795.530
 04  7 14 17 12  0.0000000  0  8G22G21G 3G 9G19G18G15G14
  20804400.368     -720428.21349   -438730.15948  20804399.894    20804403.684
  23345114.194    11573844.89049   8937832.72145  23345113.354    23345120.472
  21963703.927    -1653912.78949  -1280679.26047  21963703.324    21963710.500
  23459622.605    -9041973.73149  -7035134.08346  23459622.011    23459630.595
  22262314.159   -16111944.19049 -12534913.78447  22262312.892    22262317.834
  22490016.656     8854699.47049   6842760.88646  22490015.906    22490021.818
  20155645.169    -3692601.33649  -2868223.30848  20155644.148    20155650.844
  20608050.997   -18150239.13349 -14121852.87548  20608050.234    20608055.768
 04  7 14 17 12 30.0000000  0  8G22G21G 3G 9G19G18G15G14
  20810350.719     -689159.19349   -414364.70648  20810350.234    20810354.006
  23363112.466    11668426.37349   9011532.47545  23363111.614    23363118.928
  21973483.671    -1602520.35649  -1240633.22047  21973483.074    21973490.193
  23461740.816    -9030842.82849  -7026460.62146  23461740.165    23461748.635
  22256074.809   -16144732.02049 -12560462.73647  22256073.531    22256078.553
  22503442.221     8925251.33649   6897736.33546  22503441.511    22503447.377
  20161066.604    -3664111.54449  -2846023.47148  20161065.585    20161072.268
  20599410.944   -18195642.86449 -14157232.36748  20599410.155    20599415.714
 04  7 14 17 13  0.0000000  0  8G22G21G 3G 9G19G18G15G14
  20816343.400     -657667.47849   -389825.72248  20816342.916    20816346.717
  23381154.298    11763236.15849   9085410.14445  23381153.364    23381160.681
  21983350.963    -1550668.09549  -1200228.86947  21983350.303    21983357.318
  23463976.558    -9019094.01049  -7017305.66646  23463975.917    23463984.365
  22249942.374   -16176958.16649 -12585574.00347  22249941.066    22249946.158
  22516889.507     8995916.95349   6952800.42546  22516888.733    22516894.596
  20166575.782    -3635160.60949  -2823464.29848  20166574.761    20166581.424
  20590870.971   -18240520.45949 -14192201.88248  20590870.207    20590875.779
 04  7 14 17 13 30.0000000  0  8G22G21G 3G 9G19G18G15G14
  20822377.889     -625956.34449   -365115.76448  20822377.388    20822381.162
  23399238.757    11858270.80049   9159463.05845  23399237.815    23399245.147
  21993304.858    -1498360.74249  -1159469.90947  21993304.152    21993311.081
  23466329.404    -9006729.63749  -7007671.05345  23466328.829    23466337.227
  22243916.592   -16208624.10749 -12610248.75647  22243915.248    22243920.374
  22530357.723     9066692.78149   7007950.41046  22530356.948    22530362.757
  20172172.309    -3605750.80149  -2800547.56448  20172171.256    20172177.928
  20582430.851   -18284873.67249 -14226762.79248  20582430.090    20582435.620
 04  7 14 17 14  0.0000000  0  8G22G21G 3G 9G19G18G15G14
  20828454.637     -594023.24849   -340232.83748  20828454.081    20828457.816
  23417366.596    11953532.64049   9233692.98645  23417365.605    23417372.869
  22003345.560    -1445597.06649  -1118355.35847  22003344.831    22003351.707
  23468800.055    -8993746.17749  -6997554.04545  23468799.488    23468807.940
  22237998.232   -16239725.33049 -12634483.45947  22237996.856    22238002.014
  22543847.384     9137581.76149   7063188.54046  22543846.600    22543852.520
  20177856.832    -3575878.39049  -2777270.35848  20177855.791    20177862.472
  20574091.320   -18328698.16449 -14260911.70348  20574090.553    20574096.040
 04  7 14 17 14 30.0000000  0  8G22G21G 3G 9G19G18G15G14
  20834573.006     -561870.95949   -315179.11648  20834572.475    20834576.224
  23435536.927    12049018.37349   9308097.38445  23435535.926    23435543.263
  22013472.133    -1392381.19849  -1076888.45747  22013471.441    22013478.361
  23471388.134    -8980145.50349  -6986956.07745  23471387.556    23471396.007
  22232187.052   -16270262.75649 -12658278.84847  22232185.738    22232190.905
  22557358.146     9208580.96049   7118512.57746  22557357.326    22557363.134
  20183629.076    -3545545.21849  -2753634.12048  20183628.005    20183634.720
  20565852.159   -18371995.24949 -14294649.65048  20565851.377    20565856.844
 04  7 14 17 15  0.0000000  0  8G22G21G 3G 9G19G18G15G14
  20840732.919     -529500.21949   -289955.17448  20840732.411    20840736.197
  23453749.604    12144726.70349   9382675.21045  23453748.617    23453755.994
  22023684.384    -1338715.20749  -1035070.81547  22023683.681    22023690.637
  23474093.701    -8965927.60249  -6975877.13545  23474093.163    23474101.436
  22226483.474   -16300235.18449 -12681633.98247  22226482.157    22226487.293
  22570889.705     9279690.11149   7173922.27346  22570888.959    22570894.883
  20189488.983    -3514750.92649  -2729638.57148  20189487.948    20189494.703
  20557713.532   -18414763.98849 -14327975.90448  20557712.782    20557718.173
 04  7 14 17 15 30.0000000  0  8G22G21G 3G 9G19G18G15G14
  20846934.474     -496911.19249   -264561.14048  20846933.948    20846937.710
  23472004.590    12240656.95549   9457425.97045  23472003.690    23472010.854
  22033981.846    -1284601.03449   -992903.94047  22033981.203    22033988.191
  23476916.875    -8951092.00749  -6964316.90745  23476916.339    23476924.551
  22220887.636   -16329641.48049 -12704547.97247  22220886.320    22220891.424
  22584442.233     9350908.78049   7229417.31546  22584441.397    22584447.307
  20195436.729    -3483495.04849  -2705283.34948  20195435.721    20195442.517
  20549675.726   -18457003.11049 -14360889.46848  20549674.966    20549680.278
 04  7 14 17 16  0.0000000  0  8G22G21G 3G 9G19G18G15G14
  20853177.117     -464105.91649   -238998.59148  20853176.596    20853180.349
  23490301.467    12336807.00949   9532348.01345  23490300.553    23490307.655
  22044364.017    -1230041.85549   -950390.29747  22044363.415    22044370.438
  23479857.447    -8935639.62149  -6952276.04745  23479856.824    23479864.991
  22215399.613   -16358481.49349 -12727020.69247  22215398.280    22215403.349
  22598015.180     9422235.21449   7284996.31846  22598014.420    22598020.363
  20201472.263    -3451778.15149  -2680568.88548  20201471.262    20201478.056
  20541738.599   -18498713.03949 -14393390.66948  20541737.811    20541743.080
 04  7 14 17 16 30.0000000  0  8G22G21G 3G 9G19G18G15G14
  20859461.196     -431082.98949   -213266.44648  20859460.666    20859464.428
  23508640.344    12433177.42149   9607441.76145  23508639.377    23508646.367
  22054830.898    -1175038.07849   -907530.22447  22054830.259    22054837.325
  23482915.623    -8919568.68749  -6939753.18645  23482915.056    23482923.052
  22210019.824   -16386752.33649 -12749049.90347  22210018.484    22210023.541
  22611608.868     9493670.92149   7340660.47146  22611608.159    22611614.049
  20207595.893    -3419598.35049  -2655493.71748  20207594.893    20207601.657
  20533902.610   -18539891.20549 -14425477.51648  20533901.846    20533907.090
 04  7 14 17 17  0.0000000  0  8G22G21G 3G 9G19G18G15G14
  20865786.340     -397844.32449   -187366.19448  20865785.787    20865789.542
  23527020.692    12529765.85949   9682705.38545  23527019.652    23527026.568
  22065381.749    -1119592.85349   -864326.16947  22065381.144    22065388.229
  23486091.150    -8902880.38849  -6926749.25845  23486090.548    23486098.609
  22204748.285   -16414454.06649 -12770635.65647  22204747.023    22204751.995
  22625223.176     9565214.32649   7396408.54746  22625222.405    22625228.336
  20213807.502    -3386956.30649  -2630058.36748  20213806.493    20213813.204
  20526167.818   -18580537.63349 -14457150.02148  20526167.030    20526172.266
 04  7 14 17 17 30.0000000  0  8G22G21G 3G 9G19G18G15G14
  20872152.047     -364392.08749   -161299.51848  20872151.530    20872155.290
  23545442.054    12626569.88449   9758137.00345  23545441.020    23545447.911
  22076015.819    -1063710.28249   -820781.31647  22076015.243    22076022.354
  23489383.740    -8885576.41549  -6913265.60845  23489383.108    23489391.369
  22199585.096   -16441587.43249 -12791778.52247  22199583.768    22199588.678
  22638857.507     9636863.00049   7452238.66246  22638856.736    22638862.605
  20220106.757    -3353853.50649  -2604263.97948  20220105.762    20220112.420
  20518533.996   -18620653.31349 -14488408.95748  20518533.205    20518538.468
 04  7 14 17 18  0.0000000  0  8G22G21G 3G 9G19G18G15G14
  20878558.683     -330725.23049   -135065.60348  20878558.165    20878561.907
  23563904.332    12723590.13549   9833737.09545  23563903.379    23563910.192
  22086733.184    -1007390.54449   -776895.81847  22086732.593    22086739.685
  23492794.025    -8867654.90349  -6899300.76445  23492793.488    23492801.766
  22194530.553   -16468149.51149 -12812476.23447  22194529.147    22194534.093
  22652512.173     9708618.30249   7508151.83846  22652511.373    22652517.310
  20226494.112    -3320287.80049  -2578108.89248  20226493.110    20226499.729
  20511001.678   -18660235.72549 -14519252.36148  20511000.890    20511006.177
 04  7 14 17 18 30.0000000  0  8G22G21G 3G 9G19G18G15G14
  20885005.670     -296846.06049   -108666.24948  20885005.162    20885008.927
  23582407.444    12820823.90249   9909503.55245  23582406.489    23582413.115
  22097533.063     -950637.33249   -732672.55547  22097532.397    22097539.523
  23496321.594    -8849117.67549  -6884856.12445  23496320.986    23496329.234
  22189584.460   -16494140.83949 -12832729.20147  22189583.111    22189588.185
  22666186.698     9780478.13049   7564146.48946  22666185.886    22666191.807
  20232969.293    -3286260.62149  -2551594.21648  20232968.278    20232974.897
  20503570.674   -18699285.86749 -14549681.01048  20503569.864    20503575.205
 04  7 14 17 19  0.0000000  0  8G22G21G 3G 9G19G18G15G14
  20891493.241     -262753.35249    -82100.50748  20891492.761    20891496.570
  23600951.308    12918271.77449   9985436.87445  23600950.401    23600956.832
  22108415.158     -893451.42149   -688112.11447  22108414.513    22108421.701
  23499966.596    -8829962.79449  -6869930.21145  23499966.072    23499974.269
  22184747.528   -16519558.85249 -12852535.42747  22184746.230    22184751.379
  22679881.321     9852443.86449   7620223.64446  22679880.565    22679886.407
  20239532.578    -3251770.08049  -2524718.48148  20239531.574    20239538.227
  20496241.424   -18737801.12649 -14579692.87048  20496240.638    20496245.957
 04  7 14 17 19 30.0000000  0  8G22G21G 3G 9G19G18G15G14
  20898021.052     -228449.47849    -55370.21748  20898020.581    20898024.405
  23619535.234    13015931.01749  10061534.88045  23619534.397    23619540.709
  22119378.957     -835836.42149   -643217.32347  22119378.283    22119385.520
  23503728.873    -8810192.19849  -6854524.50245  23503728.388    23503736.441
  22180019.533   -16544404.42549 -12871895.59847  22180018.273    22180023.429
  22693595.784     9924512.96949   7676381.37246  22693594.971    22693600.713
  20246183.791    -3216817.64849  -2497482.82248  20246182.779    20246189.449
  20489013.798   -18775782.49149 -14609288.70248  20489013.012    20489018.348
 04  7 14 17 20  0.0000000  0  8G22G21G 3G 9G19G18G15G14
  20904589.080     -193934.45449    -28475.38948  20904588.604    20904592.396
  23638159.405    13113800.92049  10137797.06645  23638158.453    23638164.886
  22130424.127     -777793.83149   -597989.34447  22130423.437    22130430.698
  23507608.317    -8789805.07449  -6838638.37145  23507607.802    23507615.804
  22175400.830   -16568675.78549 -12890808.33147  22175399.590    22175404.746
  22707329.807     9996685.71749   7732619.83546  22707329.063    22707334.816
  20252923.109    -3181402.50949  -2469886.62048  20252922.094    20252928.750
  20481888.027   -18813228.54549 -14638467.41348  20481887.254    20481892.579
 04  7 14 17 20 30.0000000  0  8G22G21G 3G 9G19G18G15G14
  20911197.045     -159209.52149     -1417.00048  20911196.530    20911200.350
  23656823.219    13211879.82749  10214222.08845  23656822.203    23656828.678
  22141549.970     -719327.05549   -552430.82747  22141549.274    22141556.535
  23511604.849    -8768802.71349  -6822272.85745  23511604.364    23511612.279
  22170891.515   -16592372.75149 -12909273.48947  22170890.232    22170895.307
  22721083.459    10068961.03949   7788938.22846  22721082.622    22721088.429
  20259750.303    -3145525.20249  -2441930.28148  20259749.297    20259755.983
  20474864.115   -18850139.41849 -14667229.10148  20474863.327    20474868.650
 04  7 14 17 21  0.0000000  0  8G22G21G 3G 9G19G18G15G14
  20917845.299     -124272.47449     25806.67248  20917844.787    20917848.653
  23675526.981    13310169.38249  10290811.27045  23675526.004    23675532.692
  22152756.584     -660435.56549   -506541.37347  22152755.926    22152763.123
  23515718.920    -8747182.57449  -6805425.97445  23515718.407    23515726.393
  22166492.112   -16615491.99849 -12927288.47347  22166490.758    22166495.776
  22734856.953    10141341.03849   7845338.18946  22734856.127    22734861.988
  20266666.087    -3109182.69249  -2413611.45448  20266665.070    20266671.768
  20467942.686   -18886511.87649 -14695571.24548  20467941.879    20467947.187
 04  7 14 17 21 30.0000000  0  8G22G21G 3G 9G19G18G15G14
  20924533.207      -89127.49349     53192.37948  20924532.667    20924536.537
  23694270.101    13408665.00849  10367561.03045  23694269.149    23694275.943
  22164043.146     -601124.47749   -460324.95746  22164042.483    22164049.570
  23519950.017    -8724948.03749  -6788100.29845  23519949.468    23519957.531
  22162202.063   -16638035.81549 -12944855.06447  22162200.788    22162205.842
  22748649.688    10213822.32049   7901817.07346  22748648.858    22748654.894
  20273669.799    -3072378.00449  -2384932.47848  20273668.781    20273675.499
  20461123.209   -18922348.36349 -14723495.74448  20461122.400    20461127.695
 04  7 14 17 22  0.0000000  0  8G22G21G 3G 9G19G18G15G14
  20931260.450      -53775.92749     80739.06348  20931259.900    20931263.734
  23713052.068    13507364.67049  10444469.74345  23713051.056    23713057.916
  22175408.831     -541397.16849   -413784.21246  22175408.195    22175415.214
  23524297.858    -8702100.26849  -6770296.80645  23524297.298    23524305.176
  22158021.549   -16660004.15949 -12961973.24247  22158020.302    22158025.359
  22762461.311    10286403.04649   7958373.44246  22762460.557    22762466.552
  20280761.306    -3035111.84849  -2355893.91848  20280760.282    20280767.037
  20454405.675   -18957649.27749 -14751002.91848  20454404.880    20454410.148
 04  7 14 17 22 30.0000000  0  8G22G21G 3G 9G19G18G15G14
  20938027.261      -18216.14149    108447.99448  20938026.666    20938030.522
  23731872.910    13606269.48949  10521538.34345  23731872.126    23731879.010
  22186853.674     -481254.08549   -366919.48846  22186853.031    22186860.044
  23528762.740    -8678637.40649  -6752014.00145  23528762.077    23528769.715
  22153951.204   -16681394.12249 -12978640.72947  22153949.930    22153954.964
  22776292.212    10359085.19349   8015008.84846  22776291.421    22776297.620
  20287941.023    -2997382.16849  -2326494.16648  20287940.001    20287946.784
  20447790.585   -18992411.75249 -14778090.52248  20447789.780    20447795.046
 04  7 14 17 23  0.0000000  0  8G22G21G 3G 9G19G18G15G14
  20944833.205       17549.74149    136317.51748  20944832.654    20944836.535
  23750732.830    13705376.81049  10598764.75845  23750731.889    23750738.829
  22198377.074     -420698.57149   -319733.37746  22198376.404    22198383.478
  23533344.341    -8654561.10849  -6733253.22645  23533343.765    23533351.159
  22149990.866   -16702206.31649 -12994858.00647  22149989.541    22149994.543
  22790142.101    10431866.80449   8071721.75346  22790141.294    22790147.474
  20295208.719    -2959190.28849  -2296734.25848  20295207.680    20295214.493
  20441277.798   -19026636.51549 -14804759.13648  20441277.008    20441282.274
 04  7 14 17 23 30.0000000  0  8G22G21G 3G 9G19G18G15G14
  20951678.485       53521.81849    164347.70448  20951677.925    20951681.809
  23769630.855    13804686.15649  10676148.55845  23769629.819    23769636.899
  22209978.590     -359732.40749   -272227.29446  22209977.902    22209985.072
  23538042.634    -8629870.85549  -6714014.03645  23538042.082    23538049.602
  22146140.663   -16722439.63849 -13010624.21647  22146139.327    22146144.293
  22804010.959    10504748.19449   8128512.40746  22804010.172    22804016.440
  20302564.498    -2920535.51049  -2266613.66048  20302563.468    20302570.282
  20434867.490   -19060322.52149 -14831007.94048  20434866.706    20434872.006
 04  7 14 17 24  0.0000000  0  8G22G21G 3G 9G19G18G15G14
  20958562.738       89698.75049    192537.52848  20958562.189    20958566.047
  23788566.743    13904195.56649  10753688.25245  23788565.988    23788573.029
  22221657.589     -298358.79849   -224403.71046  22221656.927    22221664.170
  23542857.688    -8604568.01249  -6694297.50845  23542857.100    23542864.455
  22142400.607   -16742093.91249 -13025939.21147  22142399.276    22142404.224
  22817898.464    10577727.89649   8185379.67246  22817897.718    22817904.078
  20310008.195    -2881418.44849  -2236132.83448  20310007.155    20310014.007
  20428559.638   -19093470.20649 -14856837.26948  20428558.873    20428564.187
 04  7 14 17 24 30.0000000  0  8G22G21G 3G 9G19G18G15G14
  20965485.911      126080.59149    220887.01548  20965485.387    20965489.250
  23807540.830    14003904.16449  10831383.18945  23807539.994    23807547.176
  22233413.824     -236579.31349   -176263.86646  22233413.158    22233420.443
  23547789.014    -8578652.79849  -6674103.79345  23547788.465    23547795.973
  22138770.936   -16761167.83449 -13040801.98647  22138769.599    22138774.580
  22831804.788    10650806.22349   8242323.79146  22831804.081    22831810.493
  20317539.979    -2841838.53549  -2205291.34448  20317538.940    20317545.817
  20422354.509   -19126078.32549 -14882246.15948  20422353.719    20422359.028
 04  7 14 17 25  0.0000000  0  8G22G21G 3G 9G19G18G15G14
  20972447.984      162666.65949    249395.64048  20972447.497    20972451.350
  23826552.370    14103810.91849  10909232.53845  23826551.552    23826558.757
  22245246.851     -174396.36749   -127809.64546  22245246.216    22245253.461
  23552837.289    -8552125.05349  -6653432.83245  23552836.730    23552844.194
  22135251.826   -16779660.55149 -13055211.87947  22135250.505    22135255.527
  22845729.967    10723983.04849   8299344.64246  22845729.131    22845735.571
  20325159.943    -2801795.34849  -2174088.86748  20325158.875    20325165.784
  20416252.135   -19158146.29249 -14907234.15148  20416251.363    20416256.640
 04  7 14 17 25 30.0000000  0  8G22G21G 3G 9G19G18G15G14
  20979448.599      199454.93049    278061.82748  20979448.080    20979451.936
  23845601.264    14203913.29449  10987234.28945  23845600.465    23845607.802
  22257155.933     -111813.90949    -79044.11746  22257155.272    22257162.498
  23558001.710    -8524986.87749  -6632286.16945  23558001.036    23558008.514
  22131843.072   -16797573.30649 -13069169.85447  22131841.745    22131846.803
  22859673.398    10797256.01749   8356440.41646  22859672.518    22859679.102
  20332867.731    -2761290.60049  -2142526.72848  20332866.669    20332873.595
  20410252.358   -19189675.38149 -14931802.23448  20410251.587    20410256.830
 04  7 14 17 26  0.0000000  0  8G22G21G 3G 9G19G18G15G14
  20986487.896      236446.54849    306886.46048  20986487.367    20986491.222
  23864687.513    14304211.99249  11065389.05645  23864686.711    23864694.043
  22269140.998      -48832.47849    -29967.70447  22269140.325    22269147.477
  23563282.280    -8497236.84049  -6610662.74145  23563281.670    23563289.180
  22128545.229   -16814903.37949 -13082673.78747  22128543.948    22128548.951
  22873635.302    10870626.35349   8413612.07046  22873634.453    22873641.040
  20340663.663    -2720322.72149  -2110603.70348  20340662.602    20340669.540
  20404355.589   -19220663.15649 -14955948.51548  20404354.809    20404360.046
 04  7 14 17 26 30.0000000  0  8G22G21G 3G 9G19G18G15G14
  20993565.286      273638.57649    335867.26648  20993564.748    20993568.607
  23883810.658    14404703.10749  11143693.74945  23883809.653    23883817.122
  22281201.120       14543.15749     19415.88147  22281200.426    22281207.519
  23568678.700    -8468878.08849  -6588564.99645  23568678.044    23568685.620
  22125357.882   -16831653.00349 -13095725.42847  22125356.575    22125361.526
  22887615.286    10944091.51049   8470857.62646  22887614.504    22887620.908
  20348547.291    -2678893.92449  -2078321.52248  20348546.245    20348553.176
  20398561.393   -19251111.87149 -14979674.75248  20398560.610    20398565.836
 04  7 14 17 27  0.0000000  0  8G22G21G 3G 9G19G18G15G14
  21000680.564      311029.80049    365003.28948  21000680.072    21000683.927
  23902969.500    14505384.60249  11222146.74145  23902968.579    23902976.309
  22293335.611       78309.78549     69104.14047  22293334.875    22293341.951
  23574190.727    -8439911.73049  -6565993.75245  23574190.078    23574197.680
  22122280.966   -16847822.02349 -13108324.64447  22122279.685    22122284.623
  22901613.265    11017650.22449   8528176.06846  22901612.374    22901618.653
  20356518.487    -2637004.90249  -2045680.72448  20356517.446    20356524.367
  20392869.735   -19281021.58649 -15002980.99148  20392868.961    20392874.188
 04  7 14 17 27 30.0000000  0  8G22G21G 3G 9G19G18G15G14
  21007834.772      348625.33949    394298.52048  21007834.249    21007838.091
  23922165.598    14606260.94049  11300751.57445  23922164.670    23922172.536
  22305545.011      142470.38649    119099.38247  22305544.273    22305551.365
  23579819.263    -8410332.94849  -6542945.31945  23579818.711    23579826.511
  22119315.788   -16863404.21449 -13120466.60347  22119314.457    22119319.440
  22915629.896    11091307.75549   8585571.49846  22915629.020    22915635.258
  20364578.385    -2594649.93749  -2012676.86448  20364577.337    20364584.252
  20387281.820   -19310386.32249 -15025862.57248  20387281.059    20387286.253
 04  7 14 17 28  0.0000000  0  8G22G21G 3G 9G19G18G15G14
  21015026.660      386418.87949    423748.03148  21015026.130    21015030.011
  23941397.692    14707325.42749  11379503.03145  23941396.826    23941404.693
  22317827.729      207016.97849    169395.39447  22317827.070    22317834.144
  23585563.295    -8380147.81449  -6519424.38845  23585562.665    23585570.607
  22116461.157   -16878404.94649 -13132155.48247  22116459.883    22116464.940
  22929664.104    11165058.00749   8643039.19546  22929663.274    22929669.558
  20372725.782    -2551835.12849  -1979314.68848  20372724.736    20372731.623
  20381796.542   -19339211.56449 -15048323.76748  20381795.766    20381800.919
 04  7 14 17 28 30.0000000  0  8G22G21G 3G 9G19G18G15G14
  21022256.319      424410.99449    453352.27948  21022255.785    21022259.684
  23960665.476    14808577.99949  11458401.07645  23960664.517    23960672.510
  22330183.840      271948.63949    219991.47947  22330183.166    22330190.206
  23591423.061    -8349355.50849  -6495430.35945  23591422.398    23591430.149
  22113717.662   -16892822.36549 -13143389.82847  22113716.393    22113721.480
  22943716.285    11238901.99749   8700579.91946  22943715.277    22943721.722
  20380960.959    -2508559.06249  -1945593.07848  20380959.905    20380966.767
  20376414.225   -19367495.60849 -15070363.24748  20376413.462    20376418.578
 04  7 14 17 29  0.0000000  0  8G22G21G 3G 9G19G18G15G14
  21029523.788      462601.73449    483111.29448  21029523.254    21029527.143
  23979968.700    14910018.02249  11537445.16445  23979967.883    23979975.981
  22342612.856      337263.33049    270886.01947  22342612.201    22342619.281
  23597398.106    -8317956.48849  -6470963.55545  23597397.372    23597405.048
  22111085.341   -16906655.45149 -13154168.84247  22111084.075    22111089.191
  22957786.044    11312839.46049   8758193.49146  22957785.265    22957791.609
  20389283.998    -2464821.26849  -1911511.68148  20389282.983    20389289.806
  20371135.066   -19395237.78049 -15091980.49148  20371134.277    20371139.363
 04  7 14 17 29 30.0000000  0  8G22G21G 3G 9G19G18G15G14
  21036829.070      500991.12349    513025.10748  21036828.507    21036832.378
  23999307.652    15011644.48849  11616634.48945  23999306.905    23999315.077
  22355114.345      402958.66649    322077.17246  22355113.617    22355120.754
  23603488.491    -8285950.85549  -6446024.08245  23603487.816    23603495.593
  22108564.456   -16919903.23749 -13164491.77647  22108563.140    22108568.252
  22971873.832    11386870.60349   8815880.03446  22971872.953    22971879.304
  20397695.022    -2420621.26349  -1877070.12648  20397694.000    20397700.784
  20365959.066   -19422437.53249 -15113175.07148  20365958.291    20365963.342
 04  7 14 17 30  0.0000000  0  8G22G21G 3G 9G19G18G15G14
  21044171.689      539576.89249    543091.94747  21044171.143    21044174.991
  24018681.641    15113454.39149  11695966.75145  24018680.723    24018689.079
  22367687.396      469030.76649    373561.90746  22367686.713    22367693.893
  23609693.856    -8253340.99049  -6420613.74445  23609693.100    23609700.858
  22106154.587   -16932567.21049 -13174359.79847  22106153.239    22106158.325
  22985978.914    11460993.42149   8873638.04346  22985978.088    22985984.319
  20406193.543    -2375961.14949  -1842270.04948  20406192.547    20406199.343
  20360886.157   -19449095.88049 -15133947.78048  20360885.372    20360890.408
 04  7 14 17 30 30.0000000  0  8G22G21G 3G 9G19G18G15G14
  21051551.719      578359.15549    573311.90147  21051551.184    21051555.033
  24038090.146    15215447.45949  11775441.77945  24038089.347    24038097.756
  22380331.921      535477.89249    425338.86546  22380331.229    22380338.373
  23616014.212    -8220126.75249  -6394732.50045  23616013.534    23616021.260
  22103856.030   -16944646.11249 -13183771.91447  22103854.660    22103859.754
  23000101.629    11535208.34049   8931467.80046  23000100.741    23000107.050
  20414779.803    -2330840.11049  -1807110.80648  20414778.803    20414785.576
  20355916.377   -19475211.97849 -15154297.95748  20355915.603    20355920.647
 04  7 14 17 31  0.0000000  0  8G22G21G 3G 9G19G18G15G14
  21058968.774      617335.96749    603683.45147  21058968.220    21058972.053
  24057533.330    15317620.95949  11855057.40845  24057532.486    24057540.953
  22393047.046      602296.10249    477404.98246  22393046.337    22393053.438
  23622449.334    -8186310.47149  -6368382.08945  23622448.610    23622456.439
  22101668.583   -16956140.86249 -13192728.84447  22101667.194    22101672.359
  23014241.370    11609513.56849   8989367.93146  23014240.532    23014246.889
  20423453.477    -2285259.73949  -1771593.63548  20423452.458    20423459.228
  20351049.601   -19500787.08149 -15174226.57448  20351048.792    20351053.851
 04  7 14 17 31 30.0000000  0  8G22G21G 3G 9G19G18G15G14
  21066422.941      656507.91349    634207.04847  21066422.379    21066426.216
  24077010.422    15419974.34049  11934813.18745  24077009.653    24077018.294
  22405832.496      669484.10949    529759.25746  22405831.816    22405838.895
  23628998.803    -8151891.98649  -6341562.44445  23628998.164    23629006.008
  22099592.598   -16967050.23349 -13201229.63447  22099591.221    22099596.350
  23028398.557    11683909.67549   9047338.87346  23028397.613    23028404.004
  20432214.718    -2239219.23149  -1735717.91948  20432213.693    20432220.442
  20346285.997   -19525819.80749 -15193732.57048  20346285.200    20346290.270
 04  7 14 17 32  0.0000000  0  8G22G21G 3G 9G19G18G15G14
  21073914.470      695876.24149    664883.67447  21073913.933    21073917.747
  24096521.934    15522508.31149  12014709.69945  24096521.185    24096529.977
  22418688.066      737040.83749    582400.83746  22418687.396    22418694.500
  23635663.193    -8116870.02949  -6314272.57145  23635662.622    23635670.494
  22097628.396   -16977372.18349 -13209272.69747  22097626.991    22097632.064
  23042573.268    11758397.99749   9105381.69046  23042572.410    23042578.693
  20441063.901    -2192716.70149  -1699482.18248  20441062.857    20441069.584
  20341625.963   -19550308.29649 -15212814.47948  20341625.166    20341630.243
 04  7 14 17 32 30.0000000  0  8G22G21G 3G 9G19G18G15G14
  21081442.592      735436.68349    695709.99747  21081442.012    21081445.819
  24116067.138    15625218.02849  12094743.16045  24116066.365    24116075.072
  22431612.669      804960.24749    635325.03346  22431612.018    22431619.106
  23642441.570    -8081249.29449  -6286516.11045  23642440.989    23642449.038
  22095775.327   -16987110.03349 -13216860.62147  22095773.944    22095778.992
  23056764.757    11832974.51149   9163493.19946  23056763.794    23056770.132
  20450000.243    -2145756.12549  -1662889.53248  20449999.190    20450005.907
  20337068.816   -19574256.11149 -15231475.08948  20337068.031    20337073.117
 04  7 14 17 33  0.0000000  0  8G22G21G 3G 9G19G18G15G14
  21089007.628      775191.50149    726687.79147  21089007.064    21089010.876
  24135646.103    15728104.88549  12174914.65845  24135645.279    24135653.709
  22444606.403      873242.63449    688532.07146  22444605.753    22444612.849
  23649334.155    -8045028.02849  -6258291.70845  23649333.667    23649341.745
  22094033.977   -16996260.81249 -13223991.08247  22094032.629    22094037.647
  23070973.450    11907641.68149   9221675.37746  23070972.648    23070978.955
  20459024.209    -2098335.21749  -1625938.16848  20459023.143    20459029.818
  20332615.131   -19597660.39949 -15249712.16748  20332614.334    20332619.413
 04  7 14 17 33 30.0000000  0  8G22G21G 3G 9G19G18G15G14
  21096608.918      815136.53349    757813.79547  21096608.352    21096612.153
  24155257.782    15831163.84149  12255220.22745  24155256.953    24155265.361
  22457667.924      941881.67149    742017.00646  22457667.290    22457674.430
  23656340.227    -8008210.65949  -6229602.84045  23656339.608    23656347.786
  22092403.712   -17004827.92949 -13230666.75247  22092402.338    22092407.422
  23085198.732    11982395.51249   9279925.05946  23085197.850    23085204.314
  20468135.001    -2050457.70449  -1588631.01648  20468133.926    20468140.621
  20328264.160   -19620524.58249 -15267528.39048  20328263.366    20328268.451
 04  7 14 17 34  0.0000000  0  8G22G21G 3G 9G19G18G15G14
  21104247.526      855277.50149    789092.47447  21104246.934    21104250.721
  24174902.815    15934399.88749  12335663.73945  24174901.983    24174910.735
  22470798.162     1010880.94249    795782.64846  22470797.481    22470804.627
  23663460.495    -7970791.96649  -6200445.34845  23663459.998    23663468.351
  22090885.662   -17012805.00149 -13236882.64447  22090884.309    22090889.439
  23099441.426    12057241.66749   9338246.70046  23099440.580    23099447.095
  20477333.823    -2002117.55649  -1550963.37648  20477332.728    20477339.476
  20324017.146   -19642842.52749 -15284918.97548  20324016.356    20324021.471
 04  7 14 17 34 30.0000000  0  8G22G21G 3G 9G19G18G15G14
  21111921.962      895606.78349    820517.89247  21111921.341    21111925.150
  24194580.246    16037804.48549  12416238.63945  24194579.450    24194588.137
  22483995.046     1080230.81349    849821.48946  22483994.314    22484001.579
  23670693.994    -7932779.97049  -6170825.61745  23670693.330    23670701.589
  22089478.595   -17020199.05049 -13242644.22047  22089477.233    22089482.430
  23113700.311    12132172.87149   9396634.57846  23113699.568    23113706.140
  20486619.186    -1953322.30649  -1512941.10748  20486618.119    20486624.912
  20319872.795   -19664621.16949 -15301889.31748  20319872.015    20319877.117
 04  7 14 17 35  0.0000000  0  8G22G21G 3G 9G19G18G15G14
  21119632.517      936126.29349    852091.53447  21119631.933    21119635.746
  24214289.858    16141378.52149  12496945.62144  24214289.268    24214297.349
  22497258.454     1149931.17049    904133.41546  22497257.733    22497265.214
  23678040.547    -7894173.12149  -6140742.30545  23678039.884    23678048.281
  22088183.104   -17027007.09449 -13247949.17447  22088181.750    22088186.968
  23127976.017    12207191.04749   9455090.26946  23127975.166    23127981.540
  20495991.656    -1904069.55249  -1474562.33848  20495990.621    20495997.447
  20315831.536   -19685857.89849 -15318437.39348  20315830.753    20315835.839
 04  7 14 17 35 30.0000000  0  8G22G21G 3G 9G19G18G15G14
  21127379.473      976836.91649    883814.09747  21127378.860    21127382.720
  24234031.972    16245122.46749  12577784.94844  24234030.959    24234039.190
  22510588.361     1219980.92749    958717.60046  22510587.704    22510595.254
  23685500.505    -7854970.94149  -6110195.15945  23685499.910    23685508.157
  22086999.333   -17033227.83849 -13252796.48647  22086998.009    22087003.219
  23142268.242    12282297.20849   9513614.49846  23142267.442    23142273.882
  20505451.452    -1854357.91749  -1435826.00148  20505450.422    20505457.270
  20311893.666   -19706551.45849 -15334562.22248  20311892.889    20311897.935
 04  7 14 17 36  0.0000000  0  8G22G21G 3G 9G19G18G15G14
  21135162.362     1017736.36949    915683.80047  21135161.822    21135165.656
  24253805.418    16349033.32248  12658754.32144  24253804.762    24253812.995
  22523984.006     1290375.22849   1013570.27946  22523983.390    22523990.774
  23693073.177    -7815176.49249  -6079186.47545  23693072.537    23693080.694
  22085927.052   -17038863.07549 -13257187.56147  22085925.732    22085930.892
  23156576.902    12357489.34849   9572205.70846  23156576.036    23156582.589
  20514998.127    -1804189.95249  -1396734.08148  20514997.073    20515003.883
  20308058.834   -19726703.74949 -15350265.28348  20308058.054    20308063.051
 04  7 14 17 36 30.0000000  0  9G22G21G 3G 9G19G18G15G14G11
  21142981.218     1058824.67749    947700.66447  21142980.649    21142984.475
  24273610.371    16453109.88449  12739852.78844  24273609.800    24273618.016
  22537445.065     1361112.38249   1068690.10946  22537444.391    22537451.590
  23700758.328    -7774790.32349  -6047716.74045  23700757.747    23700765.957
  22084966.336   -17043912.15649 -13261121.90647  22084964.967    22084970.042
  23170901.801    12432767.53749   9630863.97946  23170900.949    23170907.509
  20524631.697    -1753565.42549  -1357286.40348  20524630.644    20524637.432
  20304327.085   -19746314.27949 -15365546.19548  20304326.317    20304331.261
                  -1448242.97249  -1106087.30643
 04  7 14 17 37  0.0000000  0  9G22G21G 3G 9G19G18G15G14G11
  21150835.777     1100100.67549    979863.77647  21150835.211    21150839.046
  24293446.145    16557349.27149  12821078.28144  24293445.928    24293454.043
  22550970.808     1432189.20249   1124074.61046  22550970.028    22550977.112
  23708555.906    -7733814.06049  -6015787.20145  23708555.319    23708563.501
  22084116.918   -17048375.78449 -13264600.04047  22084115.515    22084120.563
  23185243.172    12508130.79649   9689588.55346  23185242.231    23185248.645
  20534351.977    -1702485.15149  -1317483.59548  20534350.935    20534357.707
  20300698.339   -19765383.49149 -15380405.30148  20300697.570    20300702.476
                  -1548509.44149  -1184217.06143
 04  7 14 17 37 30.0000000  0  9G22G21G 3G 9G19G18G15G14G11
  21158726.334     1141565.92249   1012174.35447  21158725.789    21158729.626
  24313313.762    16661753.95649  12902432.49644  24313312.961    24313322.308
  22564560.696     1503604.71949   1179723.02746  22564559.930    22564567.101
  23716465.913    -7692246.80249  -5983397.10245  23716465.222    23716473.390
  22083379.324   -17052251.96549 -13267620.43647  22083377.895    22083382.885
  23199600.787    12583580.90949   9748380.79346  23199599.931    23199606.382
  20544159.187    -1650947.93949  -1277324.73848  20544158.145    20544164.910
  20297172.925   -19783909.85049 -15394841.40848  20297172.130    20297177.029
                  -1648703.11549  -1262290.81643
 04  7 14 17 38  0.0000000  0  9G22G21G 3G 9G19G18G15G14G11
  21166652.463     1183218.02149   1044630.53247  21166651.942    21166655.765
  24333212.050    16766319.64449  12983912.11344  24333211.377    24333220.689
  22578214.090     1575354.62449   1235632.00846  22578213.458    22578220.661
  23724487.764    -7650091.63249  -5950548.94345  23724487.238    23724495.026
  22082753.074   -17055542.56949 -13270184.53147  22082751.679    22082756.589
  23213974.462    12659115.40849   9807238.79246  23213973.641    23213980.109
  20554053.001    -1598955.67949  -1236811.29848  20554051.916    20554058.706
  20293750.450   -19801895.14849 -15408855.90848  20293749.659    20293754.531
                  -1748824.48749  -1340307.22444                  24537871.320
 04  7 14 17 38 30.0000000  0  9G22G21G 3G 9G19G18G15G14G11
  21174613.662     1225054.12849   1077230.08947  21174613.110    21174616.930
  24353140.358    16871042.71049  13065514.36444  24353139.643    24353148.833
  22591930.395     1647433.82449   1291797.59046  22591929.693    22591936.825
  23732620.936    -7607352.03849  -5917245.35545  23732620.328    23732627.994
  22082237.829   -17058249.82349 -13272294.07347  22082236.456    22082241.358
  23228363.737    12734731.81849   9866160.60546  23228362.919    23228369.586
  20564032.834    -1546511.17449  -1195945.45348  20564031.757    20564038.574
  20290430.493   -19819341.63049 -15422450.54948  20290429.698    20290434.573
  24518827.007    -1848873.33049  -1418267.27245  24518826.989    24518833.353
 04  7 14 17 39  0.0000000  0  9G22G21G 3G 9G19G18G15G14G11
  21182610.204     1267076.13449   1109974.50647  21182609.654    21182613.449
  24373098.956    16975924.18049  13147240.08344  24373097.576    24373107.205
  22605709.324     1719842.18449   1348219.65046  22605708.574    22605715.669
  23740865.567    -7564026.93849  -5883485.52645  23740864.981    23740872.524
  22081834.031   -17060371.41949 -13273947.25647  22081832.695    22081837.608
  23242768.964    12810431.97849   9925147.67146  23242768.236    23242774.870
  20574099.080    -1493612.49049  -1154725.70948  20574098.018    20574104.865
  20287213.380   -19836247.31649 -15435623.79648  20287212.605    20287217.501
  24499802.872    -1948845.80349  -1496167.87345  24499802.340    24499809.573
 04  7 14 17 39 30.0000000  0  9G22G21G 3G 9G19G18G15G14G11
  21190641.805     1309282.39349   1142862.49747  21190641.244    21190645.054
  24393086.879    17080961.56348  13229087.44644  24393086.055    24393094.254
  22619550.051     1792575.56049   1404894.97146  22619549.361    22619556.401
  23749221.120    -7520118.57949  -5849271.25545  23749220.576    23749228.003
  22081541.452   -17061908.71049 -13275145.14347  22081540.108    22081545.049
  23257189.951    12886214.66149   9984199.04946  23257189.313    23257195.989
  20584251.518    -1440261.09249  -1113153.19548  20584250.460    20584257.303
  20284098.973   -19852613.45149 -15448376.61248  20284098.211    20284103.116
  24480793.541    -2048740.90449  -1574008.16545  24480792.191    24480799.862
 04  7 14 17 40  0.0000000  0  9G22G21G 3G 9G19G18G15G14G11
  21198708.683     1351674.32049   1175895.16447  21198708.150    21198711.971
  24413104.085    17186155.27458  13311056.54544                  24413102.992
  22633452.596     1865633.25349   1461823.02746  22633451.877    22633458.918
  23757687.808    -7475626.17349  -5814601.87645  23757687.156    23757694.746
  22081360.432   -17062859.96749 -13275886.37247  22081359.103    22081364.053
  23271627.102    12962081.27249  10043315.82646  23271626.338    23271633.106
  20594490.370    -1386455.47749  -1071226.74148  20594489.332    20594496.163
  20281087.601   -19868438.15749 -15460707.53648  20281086.826    20281091.742
  24461799.304    -2148554.81849  -1651785.20145  24461797.909    24461805.704
 04  7 14 17 40 30.0000000  0  9G22G21G 3G 9G19G18G15G14G11
  21206811.094     1394252.80449   1209073.19547  21206810.551    21206814.384
                  17291498.96548  13393142.64843
  22647416.460     1939013.80449   1519002.64446  22647415.721    22647422.976
  23766265.402    -7430549.82049  -5779477.45045  23766264.797    23766272.627
  22081291.081   -17063224.05449 -13276170.06147  22081289.821    22081294.768
  23286080.312    13038032.69349  10102498.70646  23286079.562    23286086.285
  20604815.852    -1332194.87449  -1028945.75348  20604814.813    20604821.617
  20278179.417   -19883720.78449 -15472616.06648  20278178.639    20278183.537
  24442821.457    -2248284.10849  -1729496.29145  24442820.268    24442827.600
 04  7 14 17 41  0.0000000  0  8G22G 3G 9G19G18G15G14G11
  21214948.453     1437014.86049   1242394.28247  21214947.927    21214951.760
  22661440.740     2012712.11649   1576429.85246  22661440.111    22661447.467
  23774953.532    -7384893.20049  -5743900.88545  23774952.882    23774960.803
  22081333.151   -17063003.56049 -13275998.24047  22081331.832    22081336.793
  23300549.112    13114066.29649  10161745.59446  23300548.396    23300554.973
  20615227.343    -1277482.11149   -986312.43848  20615226.326    20615233.127
  20275373.936   -19898463.65649 -15484104.00448  20275373.171    20275378.044
  24423859.355    -2347929.04049  -1807141.65045  24423858.514    24423865.680
 04  7 14 17 41 30.0000000  0  8G22G 3G 9G19G18G15G14G11
  21223120.866     1479961.13449   1275858.91447  21223120.340    21223124.169
  22675525.316     2086726.57249   1634103.41946  22675524.571    22675531.909
  23783752.002    -7338656.75149  -5707872.48945  23783751.452    23783759.441
  22081486.503   -17062197.36449 -13275370.01847  22081485.206    22081490.281
  23315033.745    13190183.15749  10221057.39146  23315032.949    23315039.528
  20625724.995    -1222316.64049   -943326.35648  20625723.998    20625730.775
  20272671.321   -19912666.00449 -15495170.75148  20272670.532    20272675.397
  24404914.085    -2447486.60149  -1884718.86445  24404913.370    24404920.327
 04  7 14 17 42  0.0000000  0  8G22G 3G 9G19G18G15G14G11
  21231328.039     1523090.28649   1309466.04747  21231327.548    21231331.353
  22689669.338     2161053.81249   1692020.70846  22689668.569    22689675.807
  23792660.474    -7291842.65249  -5671393.99845  23792659.894    23792667.835
  22081751.100   -17060806.82949 -13274286.48347  22081749.803    22081754.883
  23329533.999    13266381.82849  10280432.91746  23329533.210    23329539.703
  20636308.531    -1166700.02549   -899988.73848  20636307.511    20636314.283
  20270071.403   -19926328.69549 -15505816.99048  20270070.612    20270075.454
  24385985.699    -2546956.07249  -1962227.46345  24385985.024    24385991.729
 04  7 14 17 42 30.0000000  0  8G22G 3G 9G19G18G15G14G11
  21239569.738     1566400.54949   1343214.29747  21239569.222    21239573.066
  22703872.072     2235689.71649   1750178.51746  22703871.297    22703878.537
  23801678.318    -7244453.62649  -5634467.51145  23801677.891    23801685.645
  22082126.631   -17058833.75049 -13272749.02247  22082125.313    22082130.405
  23344049.352    13342660.29249  10339870.60846  23344048.621    23344055.056
  20646977.524    -1110634.01249   -856300.94447  20646976.496    20646983.254
  20267573.776   -19939453.88549 -15516044.39748  20267572.991    20267577.788
  24367074.460    -2646336.53849  -2039666.70545  24367073.636    24367079.950
 04  7 14 17 43  0.0000000  0  8G22G 3G 9G19G18G15G14G11
  21247846.039     1609892.73049   1377104.30647  21247845.493    21247849.365
  22718133.167     2310632.88749   1808575.74546  22718132.424    22718139.768
  23810805.703    -7196489.73049  -5597093.08145  23810805.193    23810812.842
  22082613.288   -17056276.71949 -13270756.52347  22082611.936    22082617.012
  23358580.194    13419019.88949  10399371.52546  23358579.372    23358586.015
  20657732.217    -1054117.86449   -812262.39347  20657731.180    20657737.933
  20265178.656   -19952040.34649 -15525852.01248  20265177.879    20265182.626
  24348180.898    -2745624.52249  -2117033.89645  24348179.895    24348185.876
 04  7 14 17 43 30.0000000  0  8G22G 3G 9G19G18G15G14G11
  21256156.739     1653565.77949   1411135.24947  21256156.189    21256160.066
  22732452.106     2385879.68849   1867209.59446  22732451.451    22732458.762
  23820041.940    -7147952.98649  -5559272.27045  23820041.408    23820048.913
  22083210.816   -17053136.81849 -13268309.85147  22083209.412    22083214.497
  23373126.081    13495459.69649  10458934.95245  23373125.322    23373132.206
  20668572.376     -997152.53449   -767873.83447  20668571.336    20668578.112
  20262885.876   -19964089.05949 -15535240.60448  20262885.097    20262889.818
  24329304.841    -2844818.54949  -2194327.85645  24329303.864    24329309.805
 04  7 14 17 44  0.0000000  0  8G22G 3G 9G19G18G15G14G11
  21264501.828     1697419.57749   1445307.03947  21264501.302    21264505.167
  22746828.676     2461427.77149   1926078.19346  22746827.909    22746835.160
  23829386.982    -7098844.56049  -5521006.00145  23829386.518    23829393.908
  22083919.245   -17049413.99349 -13265408.95847  22083917.872    22083922.942
  23387687.422    13571979.53149  10518560.75245  23387686.602    23387693.595
  20679497.938     -939738.41049   -723135.56847  20679496.872    20679503.651
  20260695.408   -19975600.09249 -15544210.22248  20260694.623    20260699.332
  24310447.218    -2943916.63849  -2271547.07645  24310446.069    24310451.849
 04  7 14 17 44 30.0000000  0  8G22G 3G 9G19G18G15G14G11
  21272880.998     1741452.38949   1479618.32547  21272880.471    21272884.310
  22761261.608     2537273.39849   1985178.63746  22761260.906    22761268.131
  23838840.437    -7049167.12049  -5482296.36445  23838839.865    23838847.233
  22084738.241   -17045109.85049 -13262055.08347  22084736.895    22084741.949
  23402263.759    13648578.14549  10578247.92145  23402262.940    23402269.995
  20690508.534     -881877.42849   -678049.09347  20690507.470    20690514.248
  20258606.956   -19986574.82349 -15552761.94348  20258606.189    20258610.933
  24291607.954    -3042917.82749  -2348690.77845  24291606.731    24291612.448
 04  7 14 17 45  0.0000000  0  8G22G 3G 9G19G18G15G14G11
  21281294.547     1785665.96149   1514070.45647  21281294.027    21281297.841
  22775750.943     2613415.61549   2044510.18846  22775750.306    22775757.553
  23848402.172    -6998920.12149  -5443142.92345  23848401.545    23848409.048
  22085668.228   -17040222.82349 -13258247.01647  22085666.911    22085671.859
  23416855.359    13725257.24549  10637997.77845  23416854.539    23416861.674
  20701604.404     -823568.00749   -632613.18547  20701603.378    20701610.139
  20256620.806   -19997011.70249 -15560894.56848  20256620.064    20256624.835
  24272787.708    -3141817.94249  -2425755.73745  24272786.560    24272792.283
 04  7 14 17 45 30.0000000  0  8G22G 3G 9G19G18G15G14G11
  21289742.032     1830057.50349   1548661.26547  21289741.488    21289745.292
  22790295.905     2689849.59149   2104069.08346  22790295.247    22790302.549
  23858071.507    -6948107.54149  -5403548.73545  23858070.891    23858078.469
  22086708.671   -17034755.56849 -13253986.82347  22086707.311    22086712.186
  23431461.639    13802013.90349  10697808.09745  23431460.837    23431468.055
  20712785.146     -764812.89449   -586829.98747  20712784.088    20712790.867
  20254736.505   -20006913.59549 -15568610.31648  20254735.768    20254740.588
  24253986.777    -3240617.27649  -2502742.16945  24253985.555    24253991.414
 04  7 14 17 46  0.0000000  0  8G22G 3G 9G19G18G15G14G11
  21298223.562     1874628.37149   1583391.80447  21298223.017    21298226.833
  22804896.057     2766574.09849   2163854.37846  22804895.419    22804902.795
  23867848.469    -6896728.92349  -5363513.48945  23867847.863    23867855.574
  22087859.609   -17028706.78549 -13249273.48547  22087858.344    22087863.188
  23446083.161    13878849.86649  10757680.23845  23446082.335    23446089.506
  20724050.943     -705610.96049   -540698.61647  20724049.859    20724056.671
  20252954.288   -20016279.10349 -15575908.10448  20252953.532    20252958.379
  24235205.364    -3339312.05249  -2579647.14345  24235204.517    24235210.419
 04  7 14 17 46 30.0000000  0  9G22G 3G 9G19G18G25G15G14G11
  21306738.552     1919374.78249   1618259.13447  21306738.002    21306741.826
  22819550.379     2843583.25949   2223861.47646  22819549.745    22819557.214
  23877732.426    -6844788.97949  -5323040.84645  23877731.780    23877739.545
  22089120.582   -17022080.16549 -13244109.88247  22089119.281    22089124.178
  23460719.067    13955761.39549  10817611.23945  23460718.133    23460725.440
  24500991.565    -2406466.25949  -1849178.05145  24500991.216    24500999.339
  20735400.884     -645966.39949   -494222.33647  20735399.831    20735406.683
  20251273.448   -20025111.90649 -15582790.79348  20251272.686    20251277.576
  24216444.112    -3437903.59349  -2656471.68745  24216443.136    24216449.080
 04  7 14 17 47  0.0000000  0  9G22G 3G 9G19G18G25G15G14G11
  21315287.176     1964297.84449   1653264.11547  21315286.594    21315290.413
  22834258.626     2920875.67149   2284089.28946  22834257.962    22834265.456
  23887722.948    -6792287.83249  -5282130.91745  23887722.324    23887730.206
  22090491.755   -17014874.63349 -13238495.18547  22090490.422    22090495.397
  23475369.442    14032749.91749  10877602.23545  23475368.610    23475376.018
  24481863.198    -2506987.29049  -1927505.97745  24481862.738    24481870.591
  20746835.299     -585878.20549   -447400.37447  20746834.236    20746841.097
  20249694.238   -20033410.88349 -15589257.51048  20249693.469    20249698.326
  24197703.110    -3536388.02349  -2733212.76445  24197702.070    24197708.155
 04  7 14 17 47 30.0000000  0  9G22G 3G 9G19G18G25G15G14G11
  21323869.934     2009400.30749   1688408.89247  21323869.293    21323873.105
  22849020.880     2998451.83549   2344538.21746  22849020.242    22849027.763
  23897820.802    -6739223.95549  -5240782.44645  23897820.174    23897828.116
  22091973.499   -17007087.68949 -13232427.43647  22091972.216    22091977.205
  23490034.976    14109818.49449  10937655.60545  23490034.287    23490041.637
  24462729.631    -2607535.21049  -2005854.82845  24462729.026    24462737.014
  20758354.630     -525343.93249   -400230.82247  20758353.531    20758360.392
  20248217.058   -20041173.44549 -15595306.24748  20248216.292    20248221.113
  24178983.299    -3634760.11349  -2809866.28945  24178982.279    24178988.660
 04  7 14 17 48  0.0000000  0  9G22G 3G 9G19G18G25G15G14G11
  21332486.127     2054678.76349   1723690.80147  21332485.508    21332489.307
  22863836.296     3076305.90549   2405203.69446  22863835.565    22863842.943
  23908024.768    -6685602.20849  -5198999.28945  23908024.059    23908032.013
  22093565.321   -16998722.91049 -13225909.43347  22093564.064    22093569.012
  23504715.348    14186963.61649  10997768.61945  23504714.554    23504721.868
  24443590.502    -2708110.99149  -2084225.38545  24443589.626    24443597.956
  20769958.099     -464367.36349   -352716.61047  20769957.018    20769963.828
  20246841.296   -20048403.38249 -15600939.94548  20246840.514    20246845.292
  24160284.701    -3733020.74049  -2886432.96745  24160283.774    24160290.308
 04  7 14 17 48 30.0000000  0  9G22G 3G 9G19G18G25G15G14G11
  21341136.051     2100134.37449   1759110.76247  21341135.420    21341139.240
  22878704.209     3154436.52949   2466084.67546  22878703.463    22878710.849
  23918334.634    -6631422.69749  -5156781.51145  23918333.972    23918342.056
  22095267.300   -16989779.30549 -13218940.39447  22095266.036    22095270.957
  23519410.469    14264186.46949  11057942.23045  23519409.602    23519416.828
  24424446.838    -2808709.43949  -2162613.58345  24424446.118    24424454.762
  20781645.904     -402947.56649   -304857.03847  20781644.837    20781651.632
  20245567.138   -20055099.47949 -15606157.66448  20245566.346    20245571.066
  24141607.934    -3831166.74049  -2962910.31145  24141607.123    24141613.632
 04  7 14 17 49  0.0000000  0  9G22G 3G 9G19G18G25G15G14G11
  21349819.274     2145765.31449   1794667.33747  21349818.658    21349822.518
  22893623.866     3232839.49449   2527177.85746  22893623.155    22893630.659
  23928750.322    -6576688.36449  -5114131.40045  23928749.621    23928757.591
  22097079.142   -16980258.76649 -13211521.80147  22097077.791    22097082.630
  23534119.866    14341485.43749  11118175.14945  23534119.019    23534126.404
  24405299.355    -2909329.81349  -2241018.92645  24405298.804    24405307.104
  20793417.646     -341086.77249   -256653.82547  20793416.587    20793423.387
  20244394.137   -20061263.72249 -15610960.95048  20244393.348    20244398.030
  24122953.100    -3929196.96349  -3039297.43145  24122952.428    24122959.052
 04  7 14 17 49 30.0000000  0  9G22G 3G 9G19G18G25G15G14G11
  21358535.825     2191571.29249   1830360.30147  21358535.224    21358539.128
  22908594.771     3311512.19749   2588481.22746  22908594.061    22908601.749
  23939271.138    -6521400.82149  -5071050.22045  23939270.568    23939278.396
  22099000.629   -16970161.88649 -13203654.10747  22098999.221    22099004.022
  23548843.631    14418860.31449  11178467.18745  23548842.895    23548850.455
  24386147.810    -3009968.94249  -2319438.89245  24386147.403    24386156.000
  20805273.223     -278785.33449   -208107.25947  20805272.170    20805278.965
  20243322.236   -20066896.44349 -15615350.06648  20243321.460    20243326.113
  24104320.938    -4027109.48149  -3115592.84545  24104320.357    24104326.819
 04  7 14 17 50  0.0000000  0  9G22G 3G 9G19G18G25G15G14G11
  21367285.748     2237552.62449   1866189.91047  21367285.166    21367289.085
  22923616.474     3390452.39749   2649993.02446  22923615.851    22923623.607
  23949897.020    -6465560.93749  -5027538.64345  23949896.411    23949904.459
  22101031.656   -16959488.59949 -13195337.26047  22101030.255    22101035.078
  23563582.017    14496311.40449  11238818.62045  23563581.302    23563588.939
  24366993.611    -3110623.58349  -2397870.92645  24366993.152    24367002.240
  20817212.565     -216043.47649   -159217.50447  20817211.544    20817218.394
  20242351.463   -20071997.70749 -15619325.06148  20242350.682    20242355.360
  24085711.797    -4124901.36949  -3191794.24345  24085711.159    24085717.660
 04  7 14 17 50 30.0000000  0  9G22G 3G 9G19G18G25G15G14G11
  21376068.896     2283708.25949   1902155.33547  21376068.306    21376072.226
  22938688.626     3469656.82349   2711710.71246  22938687.986    22938695.738
  23960627.613    -6409171.26049  -4983598.64945  23960626.984    23960635.038
  22103172.225   -16948240.19849 -13186572.28247  22103170.783    22103175.589
  23578334.919    14573838.26749  11299229.10245  23578334.228    23578341.840
  24347837.172    -3211291.38649  -2476313.27445  24347836.634    24347845.835
  20829235.440     -152862.70749   -109985.74847  20829234.411    20829241.334
  20241481.618   -20076568.57549 -15622886.76048  20241480.854    20241485.576
  24067125.718    -4222571.22349  -3267900.54845  24067125.076    24067131.692
 04  7 14 17 51  0.0000000  0  9G22G 3G 9G19G18G25G15G14G11
  21384884.872     2330036.66849   1938255.39147  21384884.323    21384888.267
  22953810.540     3549121.61649   2773631.29646  22953809.778    22953817.386
  23971462.442    -6352234.48449  -4939232.34845  23971461.862    23971469.832
  22105421.820   -16936418.49249 -13177360.56847  22105420.386    22105425.184
  23593102.054    14651439.16049  11359697.26845  23593101.327    23593108.878
  24328678.220    -3311970.89449  -2554764.70945  24328677.777    24328687.119
  20841341.544      -89244.81449    -60413.37647  20841340.500    20841347.444
  20240712.365   -20080610.90149 -15626036.60848  20240711.577    20240716.327
  24048563.086    -4320117.80449  -3343910.80545  24048562.407    24048569.074
 04  7 14 17 51 30.0000000  0  9G22G 3G 9G19G18G25G15G14G11
  21393733.788     2376538.32949   1974490.44447  21393733.267    21393737.230
  22968981.417     3628844.67849   2835753.12046  22968980.645    22968988.291
  23982401.151    -6294751.76849  -4894440.65145  23982400.548    23982408.396
  22107780.501   -16924023.40949 -13167702.06847  22107779.083    22107783.861
  23607883.163    14729114.82649  11420223.69045  23607882.512    23607890.053
  24309518.097    -3412658.46949  -2633222.44845  24309517.661    24309526.953
  20853530.802      -25189.83549    -10500.41947  20853529.782    20853536.698
  20240043.672   -20084124.61649 -15628774.55848  20240042.890    20240047.669
  24030024.575    -4417538.31949  -3419822.82745  24030023.841    24030030.727
 04  7 14 17 52  0.0000000  0  9G22G 3G 9G19G18G25G15G14G11
  21402615.530     2423212.03449   2010859.56447  21402614.978    21402618.925
  22984200.713     3708822.47649   2898073.43646  22984199.900    22984207.631
  23993443.287    -6236725.45749  -4849225.34045  23993442.696    23993450.567
  22110248.040   -16911056.37549 -13157597.89747  22110246.625    22110251.400
  23622678.539    14806864.15449  11480807.51745  23622677.850    23622685.331
  24290356.734    -3513351.92849  -2711684.81045  24290356.237    24290365.688
  20865802.973       39300.75449     39751.97647  20865801.946    20865808.838
  20239475.375   -20087110.85849 -15631101.48648  20239474.613    20239479.431
  24011510.169    -4514831.25449  -3495635.44545  24011509.528    24011516.465
 04  7 14 17 52 30.0000000  0  9G22G 3G 9G19G18G25G15G14G11
  21411530.295     2470059.25649   2047363.88647  21411529.716    21411533.662
  22999467.986     3789053.57049   2960591.13646  22999467.310    22999475.073
  24004588.731    -6178156.06349  -4803586.90745  24004588.179    24004595.865
  22112824.577   -16897516.62049 -13147047.44647  22112823.171    22112827.964
  23637488.184    14884688.44249  11541449.74746  23637487.528    23637494.918
  24271194.759    -3614047.17949  -2790148.56345  24271194.382    24271203.824
  20878158.163      104227.75549     90344.43347  20878157.123    20878163.986
  20239007.674   -20089568.82349 -15633016.77248  20239006.897    20239011.718
  23993020.679    -4611993.04849  -3571345.87045  23993020.207    23993027.258
 04  7 14 17 53  0.0000000  0  9G22G 3G 9G19G18G25G15G14G11
  21420477.478     2517077.37649   2084001.37147  21420476.942    21420480.909
  23014782.751     3869533.05749   3023302.39246  23014782.028    23014789.730
  24015836.784    -6119047.50349  -4757528.28045  24015836.153    24015843.971
  22115509.540   -16883407.05749 -13136052.99547  22115508.142    22115512.931
  23652311.631    14962585.36749  11602148.57546  23652310.925    23652318.324
  24252033.143    -3714743.43749  -2868613.06145  24252032.557    24252041.861
  20890595.885      169588.29149    141274.70447  20890594.832    20890601.666
  20238639.916   -20091501.40449 -15634522.66848  20238639.122    20238643.952
  23974556.377    -4709023.77949  -3646954.15945  23974555.860    23974562.950
 04  7 14 17 53 30.0000000  0  9G22G 3G 9G19G18G25G15G14G11
  21429457.574     2564267.62249   2120772.98847  21429457.005    21429460.968
  23030144.617     3950259.87149   3086206.36846  23030143.843    23030151.463
  24027187.292    -6059399.93349  -4711049.69445  24027186.684    24027194.558
  22118303.077   -16868726.98449 -13124613.98247  22118301.668    22118306.500
  23667149.223    15040556.52349  11662905.25246  23667148.544    23667155.881
  24232871.924    -3815436.62249  -2947075.21045  24232871.362    24232880.652
  20903116.181      235382.91749    192543.22947  20903115.145    20903121.973
  20238372.264   -20092907.88049 -15635618.61548  20238371.477    20238376.325
  23956117.797    -4805919.43749  -3722457.21345  23956117.255    23956124.269
 04  7 14 17 54  0.0000000  0  9G22G 3G 9G19G18G25G15G14G11
  21438469.948     2611627.88149   2157677.07747  21438469.357    21438473.335
  23045552.579     4031229.45549   3149299.51146  23045551.847    23045559.437
  24038639.772    -5999217.13349  -4664154.02245  24038639.146    24038647.090
  22121204.545   -16853478.90249 -13112732.35947  22121203.180    22121208.110
  23682000.518    15118599.80849  11723718.12546  23681999.842    23682007.119
  24213711.612    -3916125.56949  -3025534.05745  24213710.946    24213720.159
  20915718.589      301609.06149    244147.99447  20915717.570    20915724.417
  20238204.323   -20093790.54749 -15636306.40248  20238203.523    20238208.368
  23937704.750    -4902679.76149  -3797854.80845  23937704.382    23937711.369
 04  7 14 17 54 30.0000000  0  9G22G 3G 9G19G18G25G15G14G11
  21447514.994     2659159.72349   2194714.86947  21447514.405    21447518.390
  23061006.609     4112440.83449   3212581.04746  23061005.898    23061013.605
  24050194.162    -5938498.87549  -4616841.14045  24050193.547    24050201.327
  22124214.333   -16837661.72349 -13100407.28247  22124212.996    22124218.082
  23696865.822    15196716.89249  11784588.50046  23696865.122    23696872.301
  24194553.082    -4016805.39249  -3103985.83145  24194552.300    24194561.303
  20928403.375      368267.88449    296089.90047  20928402.329    20928409.166
  20238136.261   -20094148.18349 -15636585.07548  20238135.460    20238140.299
  23919318.552    -4999300.56449  -3873143.67645  23919318.002    23919324.991
 04  7 14 17 55  0.0000000  0  9G22G 3G 9G19G18G25G15G14G11
  21456592.274     2706861.17849   2231884.83347  21456591.671    21456595.676
  23076505.931     4193889.76449   3276047.70046  23076505.187    23076513.052
  24061849.839    -5877248.54749  -4569113.63645  24061849.268    24061856.955
  22127332.002   -16821277.83749 -13087640.61547  22127330.698    22127335.847
  23711744.817    15274905.86649  11845514.89446  23711744.121    23711751.168
  24175396.169    -4117475.00649  -3182429.57745  24175395.263    24175404.334
  20941170.034      435356.97649    348367.09547  20941168.990    20941175.826
  20238167.656   -20093983.25349 -15636456.54748  20238166.869    20238171.667
  23900958.717    -5095781.11349  -3948323.27245  23900958.301    23900965.415
 04  7 14 17 55 30.0000000  0  9G22G 3G 9G19G18G25G15G14G11
  21465701.846     2754732.51449   2269187.16247  21465701.264    21465705.298
  23092049.728     4275573.59549   3339697.38146  23092049.117    23092056.939
  24073606.282    -5815467.65749  -4520972.74245  24073605.749    24073613.508
  22130557.475   -16804327.86749 -13074432.85147  22130556.184    22130561.343
  23726637.621    15353167.11649  11906497.59646  23726636.830    23726643.839
  24156241.730    -4218130.94349  -3260862.68545  24156241.142    24156250.163
  20954018.437      502875.75449    400979.10347  20954017.446    20954024.289
  20238298.469   -20093295.91849 -15635920.96048  20238297.668    20238302.446
  23882626.256    -5192118.82049  -4023391.56645  23882625.792    23882633.008
 04  7 14 17 56  0.0000000  0  9G22G 3G 9G19G18G25G15G14G11
  21474843.499     2802772.28649   2306620.74447  21474842.966    21474846.988
  23107637.550     4357488.46449   3403527.10746  23107636.956    23107644.703
  24085463.074    -5753159.24949  -4472420.75845  24085462.561    24085470.399
  22133890.449   -16786813.63149 -13060785.39447  22133889.087    22133894.197
  23741543.752    15431499.53249  11967535.76545  23741543.011    23741550.094
  24137090.196    -4318771.56349  -3339283.87145  24137089.701    24137098.718
  20966948.265      570822.33649    453924.46747  20966947.254    20966954.144
  20238528.271   -20092088.20449 -15634979.87248  20238527.449    20238532.224
  23864321.136    -5288312.54549  -4098347.66845  23864320.715    23864327.984
 04  7 14 17 56 30.0000000  0  9G22G 3G 9G19G18G25G15G14G11
  21484017.633     2850982.38049   2344187.04047  21484017.084    21484021.102
  23123269.542     4439633.99349   3467536.57346  23123268.844    23123276.569
  24097420.231    -5690323.10949  -4423457.57045  24097419.773    24097427.659
  22137331.050   -16768733.83949 -13046697.25447  22137329.665    22137334.682
  23756463.929    15509904.66649  12028630.61145  23756463.162    23756470.195
  24117942.727    -4419391.91749  -3417689.28745  24117942.226    24117951.354
  20979959.770      639197.92849    507204.12347  20979958.757    20979965.678
  20238857.372   -20090358.56749 -15633632.09848  20238856.571    20238861.344
  23846044.243    -5384358.29549  -4173188.45445  23846043.857    23846051.216
 04  7 14 17 57  0.0000000  0  9G22G 3G 9G19G18G25G15G14G11
  21493223.849     2899361.12849   2381884.75347  21493223.271    21493227.289
  23138944.523     4522005.66449   3531722.25146  23138943.762    23138951.557
  24109477.298    -5626962.72849  -4374085.86745  24109476.956    24109484.803
  22140878.723   -16750091.01749 -13032170.39147  22140877.330    22140882.236
  23771397.499    15588381.25049  12089781.10845  23771396.785    23771403.892
  24098799.464    -4519990.45549  -3496077.67145  24098799.009    24098808.037
  20993052.378      708000.09449    560816.17347  20993051.343    20993058.284
  20239285.388   -20088109.18549 -15631879.32848  20239284.615    20239289.405
  23827795.870    -5480254.79749  -4247912.94645  23827795.380    23827802.623
 04  7 14 17 57 30.0000000  0  9G22G 3G 9G19G18G25G15G14G11
  21502461.771     2947906.53249   2419712.32947  21502461.176    21502465.194
  23154661.337     4604598.92849   3596080.57846  23154660.662    23154668.611
  24121633.562    -5563081.77549  -4324308.51945  24121633.071    24121640.978
  22144532.942   -16730887.93149 -13017206.95047  22144531.580    22144536.394
  23786344.351    15666927.37849  12150985.82445  23786343.777    23786350.780
  24079660.266    -4620566.26949  -3574448.36045  24079659.799    24079669.127
  21006225.709      777226.34449    614758.67547  21006224.703    21006231.626
  20239811.825   -20085342.77249 -15629723.67648  20239811.050    20239815.791
  23809575.813    -5576001.67449  -4322520.83045  23809575.324    23809582.406
 04  7 14 17 58  0.0000000  0  9G22G 3G 9G19G18G25G15G14G11
  21511731.936     2996621.35349   2457671.91647  21511731.338    21511735.328
  23170420.422     4687414.09449   3660611.83546  23170419.822    23170427.665
  24133889.133    -5498679.06049  -4274124.62745  24133888.557    24133896.528
  22148294.200   -16711122.26449 -13001805.14347  22148292.876    22148297.633
  23801305.086    15745545.95449  12212246.97745  23801304.430    23801311.453
  24060526.562    -4721113.40949  -3652796.69745  24060526.225    24060535.560
  21019480.209      846878.96549    669033.42147  21019479.197    21019486.078
  20240437.089   -20082057.06449 -15627163.37348  20240436.307    20240441.024
  23791385.218    -5671593.71049  -4397008.07245  23791384.826    23791391.729
 04  7 14 17 58 30.0000000  0  9G22G 3G 9G19G18G25G15G14G11
  21521033.885     3045503.09649   2495761.57547  21521033.269    21521037.200
  23186221.022     4770446.27049   3725312.18446  23186220.404    23186228.120
  24146243.071    -5433758.75849  -4223537.41645  24146242.464    24146250.538
  22152161.900   -16690797.36249 -12985967.57647  22152160.578    22152165.317
  23816279.181    15824234.54249  12273562.68745  23816278.453    23816285.501
  24041398.598    -4821631.01449  -3731122.02045  24041398.216    24041407.706
  21032815.219      916954.73049    723637.88947  21032814.186    21032821.061
  20241160.671   -20078254.97449 -15624200.69348  20241159.877    20241164.529
  23773224.043    -5767030.49849  -4471374.34645  23773223.710    23773230.489
 04  7 14 17 59  0.0000000  0  9G22G 3G 9G19G18G25G15G14G11
  21530367.343     3094550.72549   2533980.49747  21530366.777    21530370.686
  23202062.288     4853691.90549   3790178.86246  23202061.587    23202069.297
  24158694.965    -5368323.71149  -4172549.08745  24158694.335    24158702.491
  22156135.673   -16669915.07549 -12969695.67747  22156134.377    22156139.099
  23831266.269    15902992.30349  12334932.30445  23831265.538    23831272.749
  24022276.723    -4922117.08449  -3809422.78645  24022276.334    24022285.782
  21046230.424      987451.91749    778570.73947  21046229.389    21046236.261
  20241982.130   -20073938.30749 -15620837.04548  20241981.338    20241985.952
  23755092.844    -5862310.66249  -4545618.56745  23755092.362    23755099.225
 04  7 14 17 59 30.0000000  0  9G22G 3G 9G19G18G25G15G14G11
  21539732.677     3143765.77049   2572329.87347  21539732.124    21539736.011
  23217943.879     4937149.86049   3855210.98146  23217943.132    23217951.013
  24171244.741    -5302374.16549  -4121159.91045  24171244.126    24171252.471
  22160215.695   -16648474.63949 -12952988.85947  22160214.443    22160219.091
  23846267.043    15981820.97549  12396357.14845  23846266.313    23846273.451
  24003161.715    -5022567.11149  -3887695.45045  24003161.277    24003170.664
  21059725.846     1058371.31949    833832.57847  21059724.836    21059731.745
  20242901.656   -20069106.11949 -15617071.69548  20242900.881    20242905.489
  23736992.009    -5957430.47749  -4619737.84345  23736991.563    23736998.476
 04  7 14 18  0  0.0000000  0  9G22G 3G 9G19G18G25G15G14G11
  21549129.636     3193147.06749   2610808.80247  21549129.088    21549132.949
  23233864.930     5020816.36449   3920405.59146  23233864.260    23233872.185
  24183891.904    -5235913.14649  -4069372.16345  24183891.281    24183899.586
  22164401.564   -16626478.27549 -12935848.84647  22164400.255    22164404.951
  23861280.794    16060719.24749  12457836.25045  23861280.080    23861287.449
  23984053.821    -5122979.11849  -3965938.51845  23984053.465    23984062.793
  21073301.314     1129710.81549    889421.77847  21073300.278    21073307.255
  20243918.898   -20063760.31249 -15612906.11948  20243918.137    20243922.746
  23718921.903    -6052388.68749  -4693731.18545  23718921.502    23718928.432
 04  7 14 18  0 30.0000000  0  9G22G 3G 9G19G18G25G15G14G11
  21558558.180     3242694.16049   2649416.92147  21558557.641    21558561.461
  23249825.204     5104688.47949   3985760.45346  23249824.711    23249832.311
  24196635.807    -5168942.95449  -4017187.61145  24196635.288    24196643.632
  22168692.976   -16603926.88849 -12918276.33647  22168691.664    22168696.371
  23876307.676    16139686.77349  12519369.30545  23876307.006    23876314.388
  23964953.803    -5223350.31449  -4044149.73545  23964953.418    23964962.795
  21086956.535     1201469.41249    945337.55447  21086955.495    21086962.454
  20245033.681   -20057901.85349 -15608341.07348  20245032.945    20245037.585
  23700883.181    -6147182.77349  -4767596.62745  23700882.711    23700889.673
 04  7 14 18  1  0.0000000  0  9G22G 3G 9G19G18G25G15G14G11
  21568018.130     3292406.46349   2688153.76747  21568017.602    21568021.374
  23265824.299     5188763.13949   4051273.13146  23265823.696    23265831.056
  24209476.060    -5101465.93249  -3964608.12045  24209475.589    24209483.960
  22173089.603   -16580822.19749 -12900272.69347  22173088.301    22173093.030
  23891347.708    16218723.39649  12580956.19245  23891347.066    23891354.447
  23945861.894    -5323678.24049  -4122327.24145  23945861.475    23945871.067
  21100691.225     1273645.75649   1001578.84647  21100690.216    21100697.193
  20246245.792   -20051532.12849 -15603377.64148  20246245.046    20246249.709
  23682875.974    -6241810.79449  -4841332.67545  23682875.616    23682882.456
 04  7 14 18  1 30.0000000  0  9G22G 3G 9G19G18G25G15G14G11
  21577509.528     3342283.87149   2727019.26647  21577508.981    21577512.733
  23281861.253     5273037.87249   4116941.68046  23281860.653    23281868.092
  24222412.624    -5033484.05249  -3911635.28245  24222411.923    24222420.443
  22177591.271   -16557165.39149 -12881838.82447  22177589.984    22177594.770
  23906400.917    16297828.95049  12642596.84445  23906400.294    23906407.794
  23926779.089    -5423960.12249  -4200468.86645  23926778.566    23926788.009
  21114505.342     1346239.17749   1058145.12947  21114504.313    21114511.286
  20247555.031   -20044651.98849 -15598016.48348  20247554.290    20247558.928
  23664900.910    -6336270.50849  -4914937.58945  23664900.560    23664907.278
 04  7 14 18  2  0.0000000  0  9G22G 3G 9G19G18G25G15G14G11
  21587032.346     3392326.43649   2766013.45947  21587031.799    21587035.576
  23297935.743     5357509.62949   4182763.76346  23297935.206    23297942.676
  24235444.924    -4964999.19749  -3858270.48545  24235444.321    24235452.701
  22182197.901   -16532957.26849 -12862975.35447  22182196.615    22182201.430
  23921467.379    16377003.55449  12704291.25045  23921466.723    23921474.220
  23907705.417    -5524192.58349  -4278571.98745  23907705.060    23907714.334
  21128398.640     1419248.66849   1115035.61747  21128397.585    21128404.532
  20248961.317   -20037261.94349 -15592257.99448  20248960.566    20248965.202
  23646958.422    -6430559.34649  -4988409.35545  23646958.051    23646964.555
 04  7 14 18  2 30.0000000  0  9G22G 3G 9G19G18G25G15G14G11
  21596586.298     3442532.81849   2805135.30147  21596585.775    21596589.532
  23314047.242     5442174.92349   4248736.65446  23314046.581    23314053.987
  24248572.444    -4896014.63649  -3804516.32845  24248571.673    24248580.025
  22186909.120   -16508199.62749 -12843683.69947  22186907.853    22186912.644
  23936546.689    16456245.95249  12766038.48545  23936546.125    23936553.701
  23888641.839    -5624373.29249  -4356634.77845  23888641.407    23888650.406
  21142370.736     1492672.22749   1172248.76347  21142369.672    21142376.586
  20250464.185   -20029364.26349 -15586103.95048  20250463.426    20250468.080
  23629048.605    -6524675.84549  -5061746.82945  23629048.210    23629054.600
 04  7 14 18  3  0.0000000  0  9G22G 3G 9G19G18G25G15G14G11
  21606171.421     3492902.62649   2844384.49247  21606170.869    21606174.629
  23330194.808     5527030.11449   4314857.52846  23330194.132    23330201.398
  24261794.416    -4826532.82149  -3750374.67045  24261793.670    24261802.072
  22191724.431   -16482894.49849 -12823965.42047  22191723.170    22191727.991
  23951638.985    16535555.62849  12827838.16445  23951638.217    23951645.987
  23869588.405    -5724500.06649  -4434655.60145  23869588.048    23869596.658
  21156421.335     1566508.30749   1229783.34247  21156420.275    21156427.163
  20252063.478   -20020959.90649 -15579555.08648  20252062.719    20252067.378
  23611172.086    -6618618.34649  -5134948.72345  23611171.566    23611177.836
 04  7 14 18  3 30.0000000  0  9G22G 3G 9G19G18G25G15G14G11
  21615787.635     3543436.14349   2883761.24747  21615787.082    21615790.870
  23346378.067     5612073.53549   4381125.05746  23346377.409    23346384.729
  24275110.712    -4756555.07149  -3695846.57345  24275110.031    24275118.507
  22196643.901   -16457042.04549 -12803820.65547  22196642.664    22196647.558
  23966744.021    16614933.47749  12889690.97345  23966743.308    23966751.176
  23850546.006    -5824569.56849  -4512631.71045  23850545.470    23850553.854
  21170550.334     1640756.59549   1287639.12547  21170549.264    21170556.174
  20253759.100   -20012049.37449 -15572611.80148  20253758.335    20253763.028
  23593329.170    -6712383.63049  -5208012.52445  23593328.649    23593334.844
 04  7 14 18  4  0.0000000  0  9G22G 3G 9G19G18G25G15G14G11
  21625434.992     3594133.41249   2923265.59247  21625434.443    21625438.244
  23362596.549     5697302.09449   4447536.85046  23362595.892    23362603.392
  24288521.110    -4686083.67649  -3640933.84145  24288520.358    24288529.006
  22201667.210   -16430644.10349 -12783250.85247  22201666.016    22201670.950
  23981862.019    16694378.86849  12951596.42045  23981861.353    23981868.995
  23831514.656    -5924578.71449  -4590560.80845  23831514.097    23831522.418
  21184757.525     1715415.93349   1345815.19047  21184756.478    21184763.408
  20255550.840   -20002633.82649 -15565275.00748  20255550.064    20255554.769
  23575520.387    -6805969.56049  -5280936.57845  23575519.817    23575526.010
 04  7 14 18  4 30.0000000  0  9G22G 3G 9G19G18G25G15G14G11
  21635113.561     3644994.55549   2962897.64647  21635113.033    21635116.820
  23378850.105     5782713.85449   4514091.41446  23378849.339    23378856.766
  24302025.043    -4615120.13649  -3585637.61445  24302024.258    24302032.707
  22206794.351   -16403700.98449 -12762256.21247  22206793.127    22206798.112
  23996993.003    16773892.54349  13013555.04445  23996992.387    23997000.006
  23812495.686    -6024523.92949  -4668440.12145  23812495.153    23812503.431
  21199042.864     1790486.02049   1404311.33647  21199041.839    21199048.801
  20257438.615   -19992713.62149 -15557544.96348  20257437.827    20257442.531
  23557746.347    -6899372.92649  -5353718.35845  23557745.763    23557752.020
 04  7 14 18  5  0.0000000  0  8G22G 3G19G18G25G15G14G11
  21644822.912     3696017.46749   3002655.74847  21644822.371    21644826.139
  23395137.517     5868304.10349   4580785.05446  23395136.673    23395144.171
  22212024.562   -16376215.99249 -12740839.34247  22212023.406    22212028.358
  24012136.586    16853472.47349  13075565.30945  24012136.034    24012143.520
  23793488.885    -6124404.36249  -4746268.93645  23793488.411    23793496.696
  21213405.779     1865963.77749   1463125.14547  21213404.736    21213411.767
  20259421.889   -19982291.64949 -15549423.93048  20259421.075    20259425.784
  23540006.953    -6992593.56849  -5426357.73945  23540006.422    23540012.780
 04  7 14 18  5 30.0000000  0  8G22G 3G19G18G25G15G14G11
  21654563.479     3747204.29349   3042541.57447  21654562.938    21654566.667
  23411458.309     5954071.85149   4647616.98546  23411457.635    23411465.287
  22217358.069   -16348188.42649 -12718999.69147  22217356.924    22217361.807
  24027293.404    16933120.94449  13137628.97445  24027292.821    24027300.165
  23774495.516    -6224215.04549  -4824043.38945  23774494.950    23774503.292
  21227846.488     1941850.16449   1522257.35647  21227845.438    21227852.486
  20261500.740   -19971367.12749 -15540911.30248  20261499.925    20261504.596
  23522303.397    -7085626.91849  -5498851.21045  23522302.679    23522309.176
 04  7 14 18  6  0.0000000  0  8G22G 3G19G18G25G15G14G11
  21664334.573     3798551.89749   3082552.67547  21664334.034    21664337.768
  23427812.027     6040011.65549   4714582.99746  23427811.473    23427819.136
  22222793.995   -16319622.33749 -12696740.40547  22222792.851    22222797.737
  24042462.733    17012835.05849  13199743.78645  24042462.069    24042469.436
  23755515.073    -6323955.66549  -4901763.25045  23755514.689    23755523.225
  21242364.223     2018141.41849   1581705.05547  21242363.158    21242370.264
  20263674.566   -19959943.57249 -15532009.81748  20263673.751    20263678.423
  23504635.211    -7178473.49549  -5571199.13045  23504634.530    23504641.002
 04  7 14 18  6 30.0000000  0  8G22G 3G19G18G25G15G14G11
  21674136.581     3850061.88449   3122690.31047  21674136.028    21674139.799
  23444198.808     6126122.72149   4781682.47546  23444198.089    23444205.658
  22228332.512   -16290517.19949 -12674061.07647  22228331.386    22228336.283
  24057644.772    17092616.40349  13261911.03245  24057644.030    24057651.468
  23736549.299    -6423621.49349  -4979424.83445  23736548.759    23736557.312
  21256959.170     2094838.23149   1641468.77647  21256958.074    21256965.238
  20265943.401   -19948020.29849 -15522718.94148  20265942.600    20265947.275
  23487003.256    -7271128.93049  -5643398.11045  23487002.687    23487009.219
 04  7 14 18  7  0.0000000  0  8G22G 3G19G18G25G15G14G11
  21683969.052     3901732.15849   3162952.84047  21683968.531    21683972.348
  23460616.763     6212400.13149   4848911.54246  23460616.104    23460623.974
  22233972.941   -16260876.49349 -12650964.43247  22233971.842    22233976.714
  24072839.109    17172462.58949  13324128.75745  24072838.320    24072845.712
  23717597.586    -6523211.59649  -5057027.41545  23717597.080    23717605.720
  21271630.640     2171937.35749   1701545.98647  21271629.587    21271636.804
  20268306.786   -19935600.49449 -15513041.16048  20268305.994    20268310.672
  23469407.857    -7363593.09849  -5715448.05545  23469407.338    23469413.713
 04  7 14 18  7 30.0000000  0  8G22G 3G19G18G25G15G14G11
  21693832.371     3953564.38749   3203341.56447  21693831.803    21693835.704
  23477066.130     6298842.42449   4916269.10546  23477065.486    23477073.441
  22239715.373   -16230699.89249 -12627450.21047  22239714.236    22239719.146
  24088046.030    17252375.34349  13386398.35245  24088045.293    24088052.621
  23698661.443    -6622721.43949  -5134567.48345  23698660.879    23698669.707
  21286378.795     2249439.19549   1761936.99447  21286377.757    21286384.949
  20270764.732   -19922683.54349 -15502975.99148  20270763.962    20270768.674
  23451849.641    -7455862.21649  -5787345.99745  23451849.053    23451855.426
 04  7 14 18  8  0.0000000  0  8G22G 3G19G18G25G15G14G11
  21703726.360     4005557.87649   3243855.95047  21703725.813    21703729.783
  23493546.527     6385446.66149   4983752.87546  23493545.897    23493553.529
  22245559.493   -16199989.29449 -12603519.88347  22245558.300    22245563.206
  24103265.545    17332354.39249  13448719.60245  24103264.808    24103272.237
  23679740.936    -6722148.21849  -5212042.77645  23679740.467    23679749.466
  21301203.295     2327342.20749   1822640.60847  21301202.254    21301209.456
  20273317.041   -19909271.06549 -15492524.69648  20273316.255    20273320.978
  23434328.865    -7547933.61749  -5859089.88045  23434328.372    23434334.701
 04  7 14 18  8 30.0000000  0  8G22G 3G19G18G25G15G14G11
  21713650.824     4057711.27649   3284494.94447  21713650.303    21713654.286
  23510057.033     6472209.25949   5051360.04146  23510056.297    23510063.798
  22251504.798   -16168747.29649 -12579175.47947  22251503.554    22251508.410
  24118497.399    17412398.38149  13511091.41645  24118496.772    24118504.097
  23660836.821    -6821490.30749  -5289452.10845  23660836.223    23660845.135
  21316103.659     2405644.00349   1883654.95747  21316102.659    21316109.841
  20275963.158   -19895365.46249 -15481689.15548  20275962.373    20275967.127
  23416845.991    -7639806.10449  -5930678.75045  23416845.485    23416851.841
 04  7 14 18  9  0.0000000  0  8G22G 3G19G18G25G15G14G11
  21723605.813     4110024.90849   3325258.79647  21723605.271    21723609.271
  23526596.867     6559127.58549   5119088.53046  23526596.186    23526604.071
  22257551.061   -16136974.77249 -12554417.67747  22257549.769    22257554.539
  24133741.795    17492507.55249  13573514.09845  24133741.109    24133748.534
  23641949.222    -6920744.45649  -5366792.90245  23641948.769    23641957.686
  21331079.879     2484344.13149   1944979.70147  21331078.831    21331085.984
  20278703.063   -19880967.20549 -15470469.72448  20278702.267    20278707.042
  23399401.486    -7731477.41849  -6002110.86945  23399400.922    23399407.266
 04  7 14 18  9 30.0000000  0  8G22G 3G19G18G25G15G14G11
  21733590.917     4162497.30149   3366146.35647  21733590.418    21733594.453
  23543165.924     6646197.43149   5186935.10946  23543165.256    23543173.079
  22263697.652   -16104674.77849 -12529248.86947  22263696.314    22263701.071
  24148998.471    17572680.69849  13635986.61145  24148997.676    24149005.022
  23623078.708    -7019908.60549  -5444063.54345  23623078.273    23623087.307
  21346131.353     2563439.87349   2006612.70947  21346130.331    21346137.457
  20281536.215   -19866078.89249 -15458868.43848  20281535.415    20281540.178
  23381995.541    -7822946.32449  -6073385.27645  23381994.901    23382001.171
 04  7 14 18 10  0.0000000  0  8G22G 3G19G18G25G15G14G11
  21743606.647     4215130.24849   3407159.02647  21743606.145    21743610.219
  23559763.845     6733418.03149   5254899.13746  23559763.035    23559770.614
  22269944.589   -16071846.77649 -12503668.62047  22269943.269    22269948.071
  24164267.462    17652919.58749  13698510.32345  24164266.626    24164274.144
  23604226.446    -7118977.99649  -5521260.40745  23604226.004    23604234.855
  21361258.234     2642931.88049   2068554.50047  21361257.199    21361264.280
  20284462.808   -19850699.69649 -15446884.63748  20284462.029    20284466.735
  23364628.948    -7914208.37949  -6144498.50545  23364628.325    23364634.517
 04  7 14 18 10 30.0000000  0  8G22G 3G19G18G25G15G14G11
  21753652.549     4267921.85349   3448295.33147  21753652.060    21753656.126
  23576389.101     6820784.91449   5322977.16446  23576388.316    23576395.882
  22276291.405   -16038493.93249 -12477679.39847  22276290.095    22276294.931
  24179548.719    17733222.48749  13761083.91545  24179547.848    24179555.437
  23585392.436    -7217951.43649  -5598382.46845  23585391.943    23585400.747
  21376460.051     2722817.46649   2130802.97547  21376458.975    21376466.075
  20287482.249   -19834832.57149 -15434520.63048  20287481.489    20287486.116
  23347301.812    -8005262.97349  -6215450.06145  23347301.179    23347307.406
 04  7 14 18 11  0.0000000  0  8G22G 3G19G18G25G15G14G11
  21763728.941     4320873.37449   3489556.24147  21763728.444    21763732.523
  23593041.838     6908296.55949   5391167.97846  23593041.207    23593048.966
  22282738.038   -16004616.61949 -12451281.50247  22282736.732    22282741.569
  24194842.230    17813590.86949  13823708.54045  24194841.301    24194849.097
  23566577.533    -7316824.82449  -5675426.57545  23566577.008    23566585.676
  21391736.713     2803096.55249   2193358.06547  21391735.659    21391742.694
  20290594.579   -19818477.41949 -15421776.34748  20290593.794    20290598.401
  23330014.918    -8096106.08649  -6286236.83745  23330014.227    23330020.510
 04  7 14 18 11 30.0000000  0  8G22G 3G19G18G25G15G14G11
  21773835.479     4373983.22149   3530940.52147  21773834.958    21773838.985
  23609721.790     6995948.86449   5459468.40646  23609721.080    23609728.795
  22289283.910   -15970217.68749 -12424477.14447  22289282.601    22289287.443
  24210147.846    17894022.80749  13886382.71445  24210147.083    24210154.946
  23547781.761    -7415596.43749  -5752391.34645  23547781.311    23547789.939
  21407087.782     2883766.55749   2256217.77847  21407086.712    21407093.688
  20293799.227   -19801636.80049 -15408653.77948  20293798.446    20293803.048
  23312768.278    -8186737.01949  -6356858.26745  23312767.717    23312773.970
 04  7 14 18 12  0.0000000  0  8G22G 3G19G18G25G15G14G11
  21783972.188     4427251.50349   3572448.25747  21783971.620    21783975.651
  23626428.002     7083739.24249   5527876.44246  23626427.244    23626434.722
  22295928.805   -15935298.46949 -12397267.37947  22295927.491    22295932.309
  24225465.924    17974518.92649  13949106.88445  24225465.120    24225473.032
  23529006.098    -7514263.16649  -5829274.40745  23529005.649    23529014.185
  21422513.045     2964826.33749   2319381.20747  21422511.943    21422518.917
  20297096.108   -19784311.69449 -15395153.69048  20297095.293    20297099.925
  23295562.834    -8277153.14249  -6427312.32645  23295562.138    23295568.334
 04  7 14 18 12 30.0000000  0  8G22G 3G19G18G25G15G14G11
  21794138.705     4480677.17349   3614078.63447  21794138.152    21794142.216
  23643159.533     7171663.81549   5596389.00846  23643158.652    23643166.215
  22302672.219   -15899861.79249 -12369654.39247  22302670.902    22302675.701
  24240795.914    18055078.02149  14011880.06145  24240795.056    24240803.223
  23510250.909    -7612823.11849  -5906074.24645  23510250.442    23510258.706
  21438011.962     3046273.65349   2382846.61447  21438010.894    21438017.886
  20300484.610   -19766504.61349 -15381278.04548  20300483.798    20300488.485
  23278398.434    -8367353.04749  -6497597.90245  23278397.681    23278403.730
 04  7 14 18 13  0.0000000  0  8G22G 3G19G18G25G15G14G11
  21804335.361     4534260.94449   3655832.20547  21804334.833    21804338.913
  23659915.939     7259720.69949   5665004.68145  23659915.132    23659922.980
  22309513.951   -15863908.44249 -12341638.81347  22309512.636    22309517.386
  24256138.019    18135700.80649  14074702.91545  24256137.165    24256145.181
  23491516.671    -7711272.34749  -5982787.84546  23491516.132    23491524.353
  21453584.601     3128108.19349   2446613.75047  21453583.513    21453590.537
  20303964.827   -19748215.66649 -15367026.91848  20303964.018    20303968.758
  23261275.785    -8457333.26149  -6567712.28346  23261274.984    23261281.027
 04  7 14 18 13 30.0000000  0  8G22G 3G19G18G25G15G14G11
  21814562.200     4588002.75649   3697708.92647  21814561.623    21814565.687
  23676697.231     7347907.22049   5733721.38045  23676696.543    23676704.442
  22316453.692   -15827439.84249 -12313221.73847  22316452.382    22316457.152
  24271491.976    18216387.06349  14137575.21345  24271491.176    24271499.405
  23472803.913    -7809608.09949  -6059412.97245  23472803.366    23472811.591
  21469230.563     3210328.52849   2510681.51347  21469229.482    21469236.556
  20307536.523   -19729446.30349 -15352401.43948  20307535.716    20307540.484
  23244195.238    -8547091.58849  -6637653.76146  23244194.470    23244200.425
 04  7 14 18 14  0.0000000  0  8G22G 3G19G18G25G15G14G11
  21824818.798     4641901.51049   3739707.93247  21824818.243    21824822.268
  23693502.873     7436219.75049   5802536.26245  23693502.090    23693509.849
  22323491.064   -15790458.60649 -12284405.20147  22323489.749    22323494.489
  24286857.896    18297136.14649  14200496.46545  24286857.020    24286865.688
  23454113.339    -7907827.94549  -6135947.82145  23454112.636    23454120.805
  21484949.597     3292932.52849   2575048.22947  21484948.530    21484955.640
  20311199.264   -19710198.48849 -15337403.14348  20311198.440    20311203.217
  23227157.084    -8636626.36249  -6707421.04546  23227156.505    23227162.480
 04  7 14 18 14 30.0000000  0  8G22G 3G19G18G25G15G14G11
  21835105.538     4695958.36649   3781830.14247  21835104.931    21835108.991
  23710332.075     7524656.29549   5871447.77445  23710331.059    23710338.682
  22330625.865   -15752965.18149 -12255189.56047  22330624.540    22330629.262
  24302236.024    18377949.15349  14263467.52345  24302235.302    24302243.859
  23435445.246    -8005927.66749  -6212389.01045  23435444.600    23435452.929
  21500741.628     3375919.92749   2639713.69747  21500740.517    21500747.628
  20314952.985   -19690472.57649 -15322032.30648  20314952.171    20314956.930
  23210162.256    -8725934.25549  -6777011.54746  23210161.750    23210167.723
 04  7 14 18 15  0.0000000  0  8G22G 3G19G18G25G15G14G11
  21845422.106     4750172.20949   3824074.67547  21845421.499    21845425.562
  23727183.946     7613213.37149   5940453.22945  23727183.003    23727190.636
  22337857.532   -15714962.67749 -12225577.23847  22337856.214    22337860.963
  24317626.353    18458825.34349  14326487.84745  24317625.778    24317634.064
  23416800.294    -8103905.71349  -6288735.40545  23416799.858    23416808.254
  21516606.120     3459288.64549   2704676.30247  21516605.024    21516612.174
  20318797.217   -19670270.94349 -15306290.77448  20318796.390    20318801.167
  23193211.218    -8815013.52349  -6846423.89846  23193210.485    23193216.409
 04  7 14 18 15 30.0000000  0  8G22G 3G19G18G25G15G14G11
  21855768.243     4804541.35149   3866440.22047  21855767.637    21855771.666
  23744057.953     7701886.84649   6009549.36545  23744056.962    23744064.843
  22345185.444   -15676454.28649 -12195570.71847  22345184.131    22345188.935
  24333028.547    18539762.71249  14389555.87545  24333027.925    24333036.062
  23398178.950    -8201760.50349  -6364985.76045  23398178.548    23398186.970
  21532542.620     3543035.60149   2769933.63847  21532541.561    21532548.695
  20322731.445   -19649596.32149 -15290180.68448  20322730.616    20322735.400
  23176303.771    -8903863.22049  -6915657.36346  23176302.929    23176308.783
 04  7 14 18 16  0.0000000  0  8G22G 3G19G18G25G15G14G11
  21866144.283     4859067.61349   3908928.19147  21866143.694    21866147.713
  23760953.428     7790675.67249   6078735.32545  23760952.724    23760960.797
  22352609.674   -15637439.74049 -12165169.79547  22352608.361    22352613.199
  24348442.558    18620763.01149  14452672.92945  24348442.013    24348450.032
  23379581.962    -8299487.23649  -6441136.31545  23379581.533    23379590.155
  21548551.233     3627161.23149   2835486.04047  21548550.149    21548557.292
  20326755.861   -19628448.01049 -15273701.48648  20326755.040    20326759.806
  23159440.623    -8992479.26749  -6984708.77346  23159439.893    23159445.701
 04  7 14 18 16 30.0000000  0  8G22G 3G19G18G25G15G14G11
  21876550.069     4913750.26049   3951538.02447  21876549.480    21876553.478
  23777870.954     7879576.72649   6148008.77845  23777870.302    23777877.867
  22360129.831   -15597921.17149 -12134376.13847  22360128.495    22360133.390
  24363868.370    18701825.86549  14515838.64445  24363867.666    24363875.767
  23361009.887    -8397083.09949  -6517184.93445  23361009.450    23361018.117
  21564631.621     3711663.87549   2901332.20747  21564630.537    21564637.641
  20330870.064   -19606827.92949 -15256854.67848  20330869.262    20330873.978
  23142622.289    -9080859.85149  -7053576.70846  23142621.566    23142627.335
 04  7 14 18 17  0.0000000  0  8G22G 3G19G18G25G15G14G11
  21886985.471     4968588.49649   3994269.08847  21886984.876    21886988.906
  23794809.252     7968586.06449   6217366.61945  23794808.496    23794815.917
  22367745.323   -15557901.40949 -12103191.93847  22367743.993    22367749.013
  24379305.670    18782950.20649  14579052.30245  24379305.008    24379313.319
  23342463.008    -8494546.33949  -6593130.15945  23342462.500    23342471.413
  21580783.285     3796541.23549   2967470.37147  21580782.175    21580789.306
  20335073.564   -19584738.63049 -15239642.24248  20335072.772    20335077.435
  23125849.053    -9169003.15449  -7122259.75246  23125848.379    23125854.206
 04  7 14 18 17 30.0000000  0  8G22G 3G19G18G25G15G14G11
  21897450.548     5023582.95549   4037121.89347  21897449.941    21897454.028
  23811767.331     8057701.89149   6286807.44845  23811766.538    23811774.248
  22375456.039   -15517381.60649 -12071618.09447  22375454.655    22375459.755
  24394755.148    18864136.86749  14642314.56245  24394754.484    24394762.699
  23323942.420    -8591872.80149  -6668968.79745  23323941.831    23323950.679
  21597006.148     3881792.68349   3033900.02747  21597004.995    21597012.159
  20339366.258   -19562180.39249 -15222064.39648  20339365.460    20339370.110
  23109121.809    -9256906.06349  -7190755.47046  23109120.959    23109126.814
 04  7 14 18 18  0.0000000  0  8G22G 3G19G18G25G15G14G11
  21907945.062     5078731.97949   4080095.14347  21907944.496    21907948.576
  23828744.507     8146919.83849   6356327.81545  23828744.054    23828751.878
  22383261.234   -15476364.94449 -12039657.06447  22383259.822    22383265.042
  24410216.139    18945384.29049  14705624.18045  24410215.229    24410223.723
  23305447.887    -8689061.34049  -6744699.96745  23305447.435    23305456.205
  21613299.508     3967415.22549   3100618.85847  21613298.464    21613305.580
  20343747.607   -19539156.31649 -15204123.55848  20343746.777    20343751.469
  23092440.302    -9344567.66249  -7259063.14346  23092439.456    23092445.392
 04  7 14 18 18 30.0000000  0  8G22G 3G19G18G25G15G14G11
  21918469.109     5134036.14649   4123189.29847  21918468.550    21918472.630
  23845741.553     8236237.76749   6425926.14445  23845740.897    23845748.544
  22391160.697   -15434852.76549 -12007309.91647  22391159.323    22391164.611
  24425688.686    19026693.04949  14768981.61145  24425687.828    24425696.379
  23286980.503    -8786108.61449  -6820321.05545  23286979.950    23286988.618
  21629663.444     4053408.16049   3167626.31347  21629662.436    21629669.492
  20348217.407   -19515667.20449 -15185820.35548  20348216.583    20348221.291
  23075805.146    -9431985.09949  -7327180.55746  23075804.433    23075810.341
 04  7 14 18 19  0.0000000  0  8G22G 3G19G18G25G15G14G11
  21929022.719     5189495.91049   4166404.68747  21929022.154    21929026.288
  23862756.819     8325653.52649   6495600.68245  23862755.949    23862763.876
  22399154.170   -15392846.58349 -11974577.83846  22399152.809    22399158.130
  24441173.143    19108063.75049  14832387.29545  24441172.238    24441180.671
  23268540.529    -8883011.22249  -6895829.40645  23268539.825    23268548.582
  21646097.689     4139770.39149   3234921.52747  21646096.659    21646103.682
  20352775.580   -19491713.91449 -15167155.45248  20352774.747    20352779.453
  23059217.010    -9519155.28549  -7395105.30346  23059216.387    23059222.308
 04  7 14 18 19 30.0000000  0  8G22G 3G19G18G25G15G14G11
  21939605.863     5245110.73649   4209740.91347  21939605.297    21939609.469
  23879789.846     8415163.98949   6565348.99045  23879789.195    23879797.216
  22407241.273   -15350348.58049 -11941462.52646  22407239.911    22407245.196
  24456669.349    19189495.94149  14895840.87545  24456668.381    24456676.679
  23250128.605    -8979766.15849  -6971222.70845  23250127.932    23250136.568
  21662601.856     4226500.17449   3302503.13947  21662600.843    21662607.832
  20357421.780   -19467298.10249 -15148130.14048  20357420.951    20357425.628
  23042676.393    -9606076.18249  -7462835.81446  23042675.808    23042681.729
 04  7 14 18 20  0.0000000  0  8G22G 3G19G18G25G15G14G11
  21950218.225     5300878.91849   4253196.63247  21950217.680    21950221.816
  23896840.739     8504764.53049   6635167.51245  23896839.931    23896847.624
  22415421.355   -15307362.05349 -11907966.54746  22415419.967    22415425.241
  24472176.842    19270987.62649  14959340.84945  24472175.885    24472184.142
  23231745.012    -9076371.95749  -7046499.81245  23231744.368    23231752.751
  21679175.347     4313594.31549   3370368.67347  21679174.310    21679181.298
  20362155.393   -19442422.84949 -15128746.82148  20362154.564    20362159.211
  23026183.462    -9692746.81249  -7530371.29646  23026182.865    23026188.763
 04  7 14 18 20 30.0000000  0  8G22G 3G19G18G25G15G14G11
  21960860.081     5356802.31749   4296773.30147  21960859.543    21960863.697
  23913908.479     8594454.49149   6705055.73445  23913907.528    23913914.830
  22423694.291   -15263887.29549 -11874090.12846  22423692.960    22423698.187
  24487695.935    19352541.25549  15022889.03345  24487695.052    24487703.289
  23213390.557    -9172824.15649  -7121657.21746  23213389.984    23213398.209
  21695818.289     4401053.55949   3438518.70647  21695817.298    21695824.272
  20366976.432   -19417087.85949 -15109005.26248  20366975.616    20366980.278
  23009738.974    -9779163.04049  -7597708.54046  23009738.360    23009744.183
 04  7 14 18 21  0.0000000  0  8G22G 3G19G18G25G15G14G11
  21971531.229     5412879.25549   4340469.60947  21971530.656    21971534.785
  23930991.409     8684229.52649   6775010.18445  23930990.740    23930998.388
  22432059.459   -15219927.88149 -11839836.05146  22432058.189    22432063.354
  24503226.617    19434154.69449  15086483.89045  24503225.640    24503233.580
  23195065.588    -9269121.27049  -7196693.78446  23195065.091    23195073.250
  21712530.073     4488874.73049   3506950.75647  21712529.129    21712536.087
  20371884.355   -19391296.13749 -15088907.81148  20371883.599    20371888.308
  22993343.025    -9865323.82349  -7664846.73546  22993342.440    22993348.206
 04  7 14 18 21 30.0000000  0  8G22G 3G19G18G25G15G14G11
  21982231.630     5469110.40649   4384286.06947  21982231.098    21982235.231
  23948091.187     8774087.52749   6845029.37645  23948090.412    23948097.716
  22440516.653   -15175484.99649 -11805205.24746  22440515.365    22440520.492
  24518768.637    19515828.74549  15150125.91345  24518767.710    24518775.781
  23176771.029    -9365259.30249  -7271606.41646  23176770.536    23176778.599
  21729310.651     4577056.82649   3575664.04647  21729309.722    21729316.647
  20376879.122   -19365048.53949 -15068455.13048  20376878.381    20376883.090
  22976996.376    -9951226.22649  -7731783.60546  22976995.697    22977001.394
 04  7 14 18 22  0.0000000  0  8G22G 3G19G18G25G15G14G11
  21992961.203     5525494.55449   4428221.76147  21992960.660    21992964.782
  23965205.734     8864024.96449   6915110.39145  23965205.084    23965212.637
  22449065.304   -15130561.92449 -11770200.26746  22449063.946    22449069.069
  24534322.310    19597562.19549  15213814.25045  24534321.233    24534329.283
  23158507.103    -9461236.61849  -7346393.78246  23158506.590    23158514.583
  21746159.416     4665597.39649   3644656.66347  21746158.478    21746165.395
  20381960.096   -19338347.78249 -15047649.33948  20381959.333    20381964.046
  22960699.038   -10036868.85849  -7798518.05046  22960698.429    22960704.081
 04  7 14 18 22 30.0000000  0  8G22G 3G19G18G25G15G14G11
  22003719.998     5582032.42749   4472277.23147  22003719.442    22003723.564
  23982334.871     8954039.52749   6985251.51945  23982334.246    23982342.135
  22457705.011   -15085159.73049 -11734821.94946  22457703.645    22457708.831
  24549887.122    19679355.69749  15277549.36745  24549886.047    24549894.108
  23140274.617    -9557049.51949  -7421053.03246  23140274.032    23140281.899
  21763076.320     4754495.82349   3713928.12947  21763075.346    21763082.284
  20387127.192   -19311194.35449 -15026490.81948  20387126.436    20387131.156
  22944451.709   -10122248.50149  -7865047.58546  22944451.117    22944456.789
 04  7 14 18 23  0.0000000  0  8G22G 3G19G18G25G15G14G11
  22014507.893     5638723.08549   4516451.75747  22014507.294    22014511.450
  23999477.953     9044127.56349   7055449.91945  23999477.447    23999485.273
  22466435.317   -15039281.52849 -11699072.71546  22466433.962    22466439.190
  24565463.228    19761208.22449  15341330.45545  24565462.214    24565470.281
  23122073.612    -9652696.05649  -7495582.65746  23122073.102    23122080.844
  21780060.692     4843749.36249   3783476.30547  21780059.748    21780066.777
  20392380.003   -19283590.62449 -15004981.41048  20392379.250    20392383.957
  22928254.888   -10207363.74349  -7931371.08946  22928254.161    22928259.775
 04  7 14 18 23 30.0000000  0  8G22G 3G19G18G25G15G14G11
  22025325.085     5695567.68649   4560746.23247  22025324.505    22025328.655
  24016635.076     9134287.55249   7125704.38645  24016634.510    24016641.927
  22475256.088   -14992927.78549 -11662952.92746  22475254.735    22475260.010
  24581050.911    19843121.62349  15405158.92745  24581049.813    24581058.300
  23103905.353    -9748171.70949  -7569979.15446  23103904.780    23103912.319
  21797112.709     4933358.00449   3853301.18647  21797111.734    21797118.756
  20397718.435   -19255537.04049 -14983121.47648  20397717.664    20397722.343
  22912108.854   -10292210.78949  -7997485.60746  22912108.228    22912113.791
 04  7 14 18 24  0.0000000  0  8G22G 3G19G18G25G15G14G11
  22036171.314     5752564.94549   4605159.66947  22036170.746    22036174.877
  24033804.829     9224515.63249   7196011.84845  24033804.333    24033812.085
  22484166.768   -14946101.93149 -11626465.27046  22484165.436    22484170.713
  24596649.720    19925094.22149  15469033.69145  24596648.525    24596657.523
  23085769.695    -9843475.27349  -7644241.52546  23085769.085    23085776.557
  21814231.796     5023318.98549   3923400.61647  21814230.732    21814237.816
  20403141.978   -19227036.28749 -14960913.09448  20403141.199    20403145.888
  22896014.228   -10376788.21349  -8063390.03146  22896013.630    22896019.190
 04  7 14 18 24 30.0000000  0  7G22G 3G19G25G15G14G11
  22047047.258     5809718.50049   4649694.89747  22047046.707    22047050.804
  24050987.882     9314812.56149   7266373.00145  24050987.377    24050995.136
  22493167.638   -14898802.60249 -11589608.66246  22493166.275    22493171.496
  23067667.993    -9938599.93149  -7718364.49146  23067667.406    23067674.877
  21831418.148     5113633.90649   3993775.83947  21831417.115    21831424.243
  20408650.989   -19198086.37349 -14938354.71848  20408650.215    20408654.874
  22879972.106   -10461090.06949  -8129079.72846  22879971.436    22879977.058
 04  7 14 18 25  0.0000000  0  7G22G 3G19G25G15G14G11
  22057952.552     5867026.32849   4694350.33247  22057951.978    22057956.101
  24068183.336     9405173.93249   7336784.38045  24068182.664    24068190.530
  22502257.847   -14851033.82949 -11552386.25846  22502256.482    22502261.571
  23049600.468   -10033544.49749  -7792347.13646  23049599.914    23049607.497
  21848671.230     5204299.63949   4064424.43047  21848670.210    21848677.435
  20414244.805   -19168690.68849 -14915448.98948  20414244.013    20414248.702
  22863982.367   -10545116.01249  -8194554.41846  22863981.715    22863987.391
 04  7 14 18 25 30.0000000  0  7G22G 3G19G25G15G14G11
  22068886.413     5924484.52049   4739122.93147  22068885.898    22068890.040
  24085389.808     9495593.12749   7407240.82445  24085389.083    24085396.934
  22511436.245   -14802801.78049 -11514802.86647  22511434.858    22511439.862
  23031567.234   -10128309.98649  -7866190.26846  23031566.598    23031574.127
  21865990.035     5295310.66049   4135342.06747  21865989.011    21865996.330
  20419922.393   -19138854.75949 -14892200.21748  20419921.583    20419926.294
  22848044.889   -10628867.64949  -8259815.36846  22848044.179    22848050.003
 04  7 14 18 26  0.0000000  0  7G22G 3G19G25G15G14G11
  22079849.039     5982093.52949   4784013.05447  22079848.529    22079852.712
  24102606.620     9586067.75449   7477740.43545  24102605.884    24102614.100
  22520702.376   -14754107.73749 -11476859.47747  22520701.073    22520706.055
  23013568.666   -10222892.77149  -7939891.05146  23013567.959    23013575.511
  21883374.312     5386665.98749   4206527.99347  21883373.306    21883380.750
  20425683.536   -19108579.44149 -14868609.06248  20425682.744    20425687.482
  22832160.262   -10712341.65649  -8324859.99046  22832159.595    22832165.393
 04  7 14 18 26 30.0000000  0  7G22G 3G19G25G15G14G11
  22090840.423     6039853.40049   4829020.73947  22090839.930    22090844.053
  24119833.519     9676595.50849   7548281.44045  24119832.936    24119841.191
  22530056.086   -14704953.56749 -11438557.55247  22530054.808    22530059.821
  22995605.357   -10317289.70549  -8013446.98446  22995604.664    22995612.238
  21900823.902     5478364.19149   4277981.10147  21900822.916    21900830.393
  20431528.068   -19077866.20149 -14844676.66548  20431527.278    20431532.027
  22816329.117   -10795535.22049  -8389686.08446  22816328.395    22816334.148
 04  7 14 18 27  0.0000000  0  7G22G 3G19G25G15G14G11
  22101860.527     6097764.41649   4874146.19647  22101860.041    22101864.144
  24137070.606     9767173.65349   7618861.75445  24137069.754    24137077.668
  22539496.934   -14655341.64149 -11399898.92247  22539495.642    22539500.735
  22977677.920   -10411497.87949  -8086855.86046  22977677.315    22977684.870
  21918338.499     5570403.81949   4349700.24747  21918337.481    21918344.995
  20437455.638   -19046716.56149 -14820404.21348  20437454.864    20437459.584
  22800551.631   -10878445.98249  -8454291.80346  22800551.047    22800556.787
 04  7 14 18 27 30.0000000  0  7G22G 3G19G25G15G14G11
  22112909.485     6155826.92749   4919389.70947  22112908.992    22112913.054
  24154316.025     9857800.07849   7689479.62245  24154315.266    24154323.419
  22549024.543   -14605273.39049 -11360884.72247  22549023.256    22549028.529
  22959787.114   -10505513.91749  -8160115.00446  22959786.531    22959794.115
  21935917.855     5662783.60449   4421684.45146  21935916.791    21935924.308
  20443466.124   -19015131.41449 -14795792.40248  20443465.353    20443470.054
  22784828.680   -10961071.03149  -8518674.90646  22784828.052    22784833.766
 04  7 14 18 28  0.0000000  0  7G22G 3G19G25G15G14G11
  22123987.326     6214041.01449   4964751.33347  22123986.813    22123990.834
  24171570.348     9948472.24449   7760133.19045  24171569.760    24171577.977
  22558638.618   -14554750.80649 -11321516.49547  22558637.380    22558642.792
  22941933.638   -10599334.53849  -8233221.90446  22941933.050    22941940.495
  21953561.703     5755502.29849   4493932.73846  21953560.596    21953568.173
  20449559.161   -18983112.50549 -14770842.60048  20449558.365    20449563.047
  22769160.315   -11043408.17549  -8582833.66346  22769159.799    22769165.513
 04  7 14 18 28 30.0000000  0  7G22G 3G19G25G15G14G11
  22135093.756     6272406.13549   5010230.63647  22135093.264    22135097.340
  24188833.279    10039186.92049   7830819.88245  24188832.380    24188840.468
  22568338.636   -14503777.27949 -11281796.87947  22568337.355    22568342.809
  22924117.884   -10692957.23249  -8306174.56946  22924117.264    22924124.513
  21971269.575     5848557.59749   4566443.32146  21971268.547    21971276.013
  20455734.264   -18950662.09949 -14745556.57048  20455733.460    20455738.136
  22753547.313   -11125455.22349  -8646766.36846  22753546.797    22753552.501
 04  7 14 18 29  0.0000000  0  7G22G 3G19G25G15G14G11
  22146228.920     6330921.53649   5055827.04447  22146228.425    22146232.471
  24206102.945    10129940.79049   7901537.06545  24206102.025    24206110.499
  22578124.030   -14452355.10249 -11241727.68347  22578122.721    22578128.126
  22906340.168   -10786379.77349  -8378971.28046  22906339.502    22906346.581
  21989041.133     5941947.34949   4639214.49946  21989040.084    21989047.493
  20461991.035   -18917782.33249 -14719935.97348  20461990.249    20461994.910
  22737989.936   -11207210.15849  -8710471.45746  22737989.328    22737995.058
 04  7 14 18 29 30.0000000  0  7G22G 3G19G25G15G14G11
  22157392.900     6389588.73549   5101541.73347  22157392.416    22157396.479
  24223379.849    10220732.54649   7972283.80645  24223379.283    24223387.766
  22587994.566   -14400485.23649 -11201309.62647  22587993.248    22587998.654
  22888601.210   -10879597.99449  -8451608.75746  22888600.602    22888607.642
  22006876.203     6035671.15249   4712245.98546  22006875.177    22006882.566
  20468329.539   -18884473.28349 -14693980.86748  20468328.771    20468333.426
  22722488.740   -11288669.27949  -8773946.04146  22722488.079    22722493.807
 04  7 14 18 30  0.0000000  0  7G22G 3G19G25G15G14G11
  22168585.570     6448405.99649   5147373.35847  22168585.008    22168588.994
  24240663.782    10311557.54849   8043056.48445  24240663.148    24240671.311
  22597949.643   -14348171.77049 -11160545.90447  22597948.256    22597953.595
  22870901.413   -10972610.65349  -8524086.08846  22870900.835    22870907.862
  22024774.306     6129725.78549   4785535.25546  22024773.247    22024780.668
  20474749.117   -18850738.30249 -14667693.86248  20474748.327    20474752.998
  22707043.963   -11369831.84649  -8837189.55346  22707043.251    22707049.034
 04  7 14 18 30 30.0000000  0  7G22G 3G19G25G15G14G11
  22179806.878     6507374.13149   5193322.54547  22179806.240    22179810.216
  24257953.105    10402414.32849   8113853.85145  24257952.471    24257960.810
  22607988.865   -14295416.08049 -11119437.59547  22607987.436    22607992.657
  22853241.570   -11065413.53149  -8596399.93846  22853241.030    22853248.026
  22042735.172     6224110.57949   4859081.79546  22042734.143    22042741.487
  20481249.537   -18816578.19049 -14641075.59148  20481248.757    20481253.469
  22691656.155   -11450694.41549  -8900199.28246  22691655.514    22691661.322
 04  7 14 18 31  0.0000000  0  7G22G 3G19G25G15G14G11
  22191056.683     6566493.15349   5239389.30347  22191056.191    22191060.180
  24275247.785    10493300.11949   8184673.88445  24275247.355    24275255.830
  22618111.731   -14242220.16349 -11077986.26546  22618110.338    22618115.481
  22835622.174   -11158003.96549  -8668548.27046  22835621.588    22835628.578
  22060758.552     6318823.97749   4932884.38446  22060757.525    22060764.864
  20487830.591   -18781994.39249 -14614127.17448  20487829.811    20487834.503
  22676325.937   -11531254.71349  -8962973.49446  22676325.307    22676331.088
 04  7 14 18 31 30.0000000  0  7G22G 3G19G25G15G14G11
  22202335.114     6625762.85849   5285573.47447  22202334.773    22202338.797
  24292548.396    10584211.88249   8255514.13445  24292547.599    24292555.900
  22628317.839   -14188586.93249 -11036194.16646  22628316.472    22628321.496
  22818043.651   -11250379.61349  -8740529.20946  22818042.968    22818050.087
  22078844.154     6413863.61649   5006941.19246  22078843.025    22078850.399
  20494491.819   -18746989.19349 -14586850.39148  20494491.059    20494495.764
  22661053.693   -11611510.49449  -9025510.41446  22661053.130    22661058.835
 04  7 14 18 32  0.0000000  0  7G22G 3G19G25G15G14G11
  22213642.253     6685183.22649   5331875.04047  22213642.105    22213646.171
  24309852.708    10675147.09149   8326372.66145  24309851.879    24309860.367
  22638606.695   -14134518.71949 -10994063.12346  22638605.359    22638610.293
  22800506.537   -11342537.16949  -8812340.22046  22800505.878    22800513.089
  22096991.418     6509227.89249   5081250.96946  22096990.301    22096997.641
  20501232.996   -18711564.15649 -14559246.45748  20501232.222    20501236.904
  22645839.797   -11691459.37649  -9087808.19346  22645839.282    22645844.971
 04  7 14 18 32 30.0000000  0  7G22G 3G19G25G15G14G11
  22224978.084     6744753.69549   5378293.56347  22224978.008    22224982.013
  24327160.587    10766102.45549   8397246.84545  24327159.928    24327168.881
  22648977.825   -14080018.25049 -10951595.25646  22648976.500    22648981.365
  22783011.359   -11434474.02449  -8883979.24746  22783010.780    22783018.068
  22115200.008     6604914.69849   5155812.06346  22115198.876    22115206.233
  20508053.660   -18675721.41549 -14531317.03948  20508052.880    20508057.539
  22630684.767   -11771099.27549  -9149865.20346  22630684.244    22630689.929
 04  7 14 18 33  0.0000000  0  7G22G 3G19G25G15G14G11
  22236342.424     6804473.63849   5424828.56047  22236342.360    22236346.369
  24344472.151    10857074.93749   8468134.39845  24344471.602    24344480.433
  22659430.600   -14025088.69049 -10908793.03246  22659429.253    22659434.025
  22765558.664   -11526188.39249  -8955444.93946  22765558.112    22765565.259
  22133469.543     6700921.61049   5230622.59446  22133468.369    22133475.800
  20514953.366   -18639463.25549 -14503063.92448  20514952.564    20514957.253
  22615588.813   -11850428.57449  -9211680.19646  22615588.284    22615593.975
 04  7 14 18 33 30.0000000  0  7G22G 3G19G25G15G14G11
  22247735.319     6864342.86949   5471479.88347  22247735.173    22247739.180
  24361786.430    10948061.65749   8539033.07645  24361785.778    24361794.327
  22669964.611   -13969732.24449 -10865658.17746  22669963.251    22669967.979
  22748149.012   -11617677.15349  -9026734.82746  22748148.464    22748155.483
  22151799.570     6797246.84249   5305681.14946  22151798.449    22151806.003
  20521931.710   -18602791.44849 -14474488.48948  20521930.913    20521935.651
  22600552.470   -11929444.75449  -9273251.18746  22600551.974    22600557.647
 04  7 14 18 34  0.0000000  0  7G22G 3G19G25G15G14G11
  22259156.598     6924360.62549   5518246.94247  22259156.257    22259160.296
  24379102.447    11039058.97649   8609939.98945  24379102.158    24379110.335
  22680579.097   -13913952.41649 -10822193.40046  22680577.743    22680582.513
  22730782.697   -11708938.37649  -9097847.38946  22730782.036    22730788.976
  22170189.738     6893887.58249   5380985.57046  22170188.567    22170196.169
  20528988.274   -18565708.73949 -14445592.86348  20528987.508    20528992.278
  22585576.031   -12008146.35949  -9334577.05946  22585575.561    22585581.157
 04  7 14 18 34 30.0000000  0  7G22G 3G19G25G15G14G11
  22270606.122     6984527.61149   5565130.28147  22270605.661    22270609.795
  24396420.640    11130064.92849   8680853.62745  24396420.190    24396428.382
  22691273.797   -13857750.76549 -10778399.94446  22691272.440    22691277.347
  22713460.285   -11799968.24549  -9168779.68446  22713459.649    22713466.472
  22188639.627     6990842.72349   5456534.97846  22188638.515    22188646.140
  20536122.890   -18528216.18049 -14416377.87848  20536122.118    20536126.914
  22570660.097   -12086530.52849  -9395655.57946  22570659.568    22570665.079
 04  7 14 18 35  0.0000000  0  7G22G 3G19G25G15G14G11
  22282083.897     7044843.19649   5612129.41547  22282083.335    22282087.547
  24413739.721    11221076.64149   8751771.74645  24413739.181    24413747.542
  22702048.267   -13801130.10049 -10734279.98046  22702046.920    22702051.919
  22696182.073   -11890764.51849  -9239529.94946  22696181.541    22696188.414
  22207149.084     7088110.44249   5532327.95046  22207147.931    22207155.614
  20543335.118   -18490315.71749 -14386845.04048  20543334.326    20543339.136
  22555804.965   -12164594.88849  -9456484.90046  22555804.402    22555809.860
 04  7 14 18 35 30.0000000  0  7G22G 3G19G25G15G14G11
  22293590.139     7105308.66049   5659245.34347  22293589.559    22293593.839
  24431059.408    11312092.60349   8822693.22945  24431058.939    24431066.975
  22712902.263   -13744091.83149 -10689834.61646  22712900.966    22712905.910
  22678949.219   -11981322.82249  -9310094.80346  22678948.721    22678955.650
  22225717.850     7185689.83249   5608363.78646  22225716.736    22225724.410
  20550624.802   -18452007.99949 -14356994.86048  20550624.019    20550628.822
  22541011.349   -12242335.88149  -9517062.24946  22541010.803    22541016.129
 04  7 14 18 36  0.0000000  0  7G22G 3G19G25G15G14G11
  22305124.433     7165922.86549   5706477.15347  22305124.004    22305128.363
  24448379.502    11403109.08549   8893615.04445  24448378.909    24448386.826
  22723835.162   -13686639.43849 -10645066.55146  22723833.807    22723838.749
  22661762.023   -12071641.64149  -9380473.03946  22661761.479    22661768.454
  22244345.344     7283578.08249   5684640.28946  22244344.241    22244351.982
  20557991.454   -18413295.91649 -14326829.59448  20557990.659    20557995.480
  22526279.573   -12319752.31149  -9577386.68846  22526278.971    22526284.222
 04  7 14 18 36 30.0000000  0  7G22G 3G19G25G15G14G11
  22316687.263     7226686.79149   5753825.64147  22316686.999    22316691.326
  24465699.349    11494124.02849   8964535.67045  24465698.678    24465706.681
  22734846.604   -13628774.68149 -10599977.16646  22734845.204    22734850.101
  22644621.048   -12161717.02349  -9450661.59246  22644620.515    22644627.637
  22263031.478     7381774.32149   5761156.77846  22263030.405    22263038.195
  20565434.939   -18374180.16549 -14296349.78148  20565434.126    20565438.955
  22511610.219   -12396840.89549  -9637455.66146  22511609.567    22511614.739
 04  7 14 18 37  0.0000000  0  7G22G 3G19G25G15G14G11
  22328278.581     7287599.76149   5801290.26847  22328278.345    22328282.663
  24483017.880    11585134.72449   9035452.99145  24483017.270    24483025.444
  22745935.946   -13570500.39749 -10554568.67146  22745934.527    22745939.389
  22627526.895   -12251546.58249  -9520658.57646  22627526.390    22627533.615
  22281775.945     7480276.36649   5837911.56646  22281774.828    22281782.572
  20572954.753   -18334663.14549 -14265557.29548  20572953.980    20572958.800
  22497003.584   -12473599.79349  -9697267.74546  22497002.889    22497008.031
 04  7 14 18 37 30.0000000  0  7G22G 3G19G25G15G14G11
  22339898.069     7348660.85749   5848870.31547  22339897.891    22339902.126
  24500335.078    11676137.47749   9106364.13345  24500334.720    24500342.778
  22757102.446   -13511819.95349 -10508843.68946  22757101.056    22757105.952
  22610479.919   -12341128.47349  -9590462.57946  22610479.442    22610486.725
  22300577.960     7579081.39749   5914902.42946  22300576.852    22300584.594
  20580550.436   -18294747.66349 -14234454.31648  20580549.652    20580554.472
  22482459.865   -12550027.45649  -9756821.71746  22482459.157    22482464.334
 04  7 14 18 38  0.0000000  0  7G22G 3G19G25G15G14G11
  22351545.943     7409871.14549   5896566.61847  22351545.847    22351550.058
  24517650.981    11767130.33749   9177267.59045  24517650.413    24517658.145
  22768345.997   -13452735.03049 -10462803.51246  22768344.623    22768349.523
  22593480.864   -12430459.20649  -9660070.88246  22593480.359    22593487.572
  22319437.388     7678188.49449   5992128.68246  22319436.336    22319444.099
  20588221.790   -18254434.40349 -14203041.38248  20588220.981    20588225.834
  22467979.588   -12626120.78249  -9816115.16946  22467979.012    22467984.266
 04  7 14 18 38 30.0000000  0  7G22G 3G19G25G15G14G11
  22363222.092     7471229.51249   5944378.30447  22363222.013    22363226.152
  24534963.846    11858109.91849   9248160.64845  24534963.119    24534971.403
  22779665.728   -13393249.27449 -10416451.01146  22779664.426    22779669.321
  22576529.988   -12519536.70549  -9729481.86046  22576529.433    22576536.609
  22338353.917     7777594.97049   6069588.22746  22338352.870    22338360.640
  20595968.329   -18213726.10049 -14171320.62248  20595967.548    20595972.379
  22453563.405   -12701878.24449  -9875146.90946  22453562.772    22453568.125
 04  7 14 18 39  0.0000000  0  7G22G 3G19G25G15G14G11
  22374926.501     7532735.84049   5992305.28947  22374926.341    22374930.378
  24552273.820    11949073.68849   9319041.37245  24552273.194    24552281.419
  22791061.405   -13333365.14749 -10369788.08946  22791060.077    22791064.971
  22559627.749   -12608358.02349  -9798693.19746  22559627.255    22559634.351
  22357326.975     7877298.94849   6147279.58346  22357325.915    22357333.759
  20603789.662   -18172624.61449 -14139293.48748  20603788.884    20603793.711
  22439211.612   -12777297.36049  -9933914.99946  22439210.948    22439216.308
 04  7 14 18 39 30.0000000  0  7G22G 3G19G25G15G14G11
  22386658.967     7594389.66849   6040347.20247  22386658.708    22386662.751
  24569580.307    12040018.39549   9389907.30145  24569579.465    24569587.553
  22802532.231   -13273085.69449 -10322817.12346  22802530.876    22802535.783
  22542774.813   -12696921.01849  -9867703.25546  22542774.322    22542781.260
  22376356.175     7977298.07249   6225200.90546  22376355.091    22376363.013
  20611685.406   -18131132.38749 -14106961.87748  20611684.608    20611689.418
  22424924.522   -12852376.38249  -9992418.09946  22424923.848    22424929.161
 04  7 14 18 40  0.0000000  0  7G22G 3G19G25G15G14G11
  22398419.668     7656191.11449   6088504.15547  22398419.247    22398423.159
  24586882.237    12130941.48349   9460756.34645  24586881.506    24586889.825
  22814077.778   -13212413.42049 -10275540.06046  22814076.453    22814081.379
  22525971.676   -12785222.73149  -9936509.72246  22525971.105    22525977.869
  22395441.126     8077590.33649   6303350.66146  22395440.099    22395448.044
  20619655.103   -18089251.22849 -14074327.20448  20619654.320    20619659.143
  22410702.644   -12927113.01649 -10050654.39346  22410701.934    22410707.217
 04  7 14 18 40 30.0000000  0  7G22G 3G19G25G15G14G11
  22410208.445     7718140.30849   6136776.23047  22410207.846    22410211.685
  24604180.126    12221840.76149   9531586.84145  24604179.250    24604187.707
  22825697.705   -13151350.79149 -10227958.82646  22825696.340    22825701.285
  22509218.710   -12873259.71449 -10005109.89746  22509218.152    22509224.916
  22414581.751     8178174.17749   6381727.62246  22414580.609    22414588.609
  20627698.547   -18046982.49449 -14041390.52548  20627697.782    20627702.587
  22396546.342   -13001504.30249 -10108621.58046  22396545.674    22396550.977
 04  7 14 18 41  0.0000000  0  7G22G 3G19G25G15G14G11
  22422025.177     7780237.19649   6185163.38947  22422024.535    22422028.392
  24621472.928    12312713.38949   9602396.59545  24621471.880    24621480.337
  22837391.271   -13089900.46349 -10180075.48946  22837389.974    22837394.984
  22492516.729   -12961029.52449 -10073501.89146  22492516.065    22492522.818
  22433777.297     8279047.62149   6460330.23746  22433776.270    22433784.192
  20635815.481   -18004328.02749 -14008153.27748  20635814.703    20635819.469
  22382456.171   -13075548.11249 -10166318.01246  22382455.539    22382460.870
 04  7 14 18 41 30.0000000  0  7G22G 3G19G25G15G14G11
  22433870.054     7842482.54149   6233666.21947  22433869.415    22433873.358
  24638759.763    12403557.55449   9673184.14045  24638758.861    24638767.579
  22849158.419   -13028064.09049 -10131891.34046  22849157.078    22849162.145
  22475866.025   -13048528.62749 -10141682.93346  22475865.403    22475872.200
  22453027.788     8380209.61549   6539157.70146  22453026.803    22453034.686
  20644005.527   -17961288.89549 -13974616.29548  20644004.753    20644009.515
  22368432.676   -13149241.34149 -10223741.26446  22368432.097    22368437.481
 04  7 14 18 42  0.0000000  0  7G22G 3G19G25G15G14G11
  22445743.101     7904876.17449   6282284.61547  22445742.546    22445746.456
  24656040.776    12494370.46549   9743947.35745  24656040.127    24656048.731
  22860998.326   -12965844.73949 -10083408.76746  22860996.981    22861002.198
  22459267.274   -13135754.58549 -10209651.13746  22459266.714    22459273.535
  22472332.922     8481658.04249   6618208.36346  22472331.898    22472339.737
  20652268.411   -17917867.19849 -13940781.20448  20652267.633    20652272.386
  22354476.354   -13222581.87649 -10280889.69246  22354475.779    22354481.206
 04  7 14 18 42 30.0000000  0  7G22G 3G19G25G15G14G11
  22457644.123     7967417.08249   6331017.76147  22457643.727    22457647.588
  24673315.576    12585148.69349   9814683.51345  24673314.939    24673323.542
  22872910.407   -12903245.75049 -10034630.37746  22872909.125    22872914.497
  22442720.955   -13222705.27349 -10277404.84946  22442720.498    22442727.312
  22491691.929     8583390.17649   6697480.09346  22491690.996    22491698.708
  20660603.566   -17874065.69649 -13906650.16648  20660602.792    20660607.553
  22340587.429   -13295568.21249 -10337762.11546  22340586.844    22340592.292
 04  7 14 18 43  0.0000000  0  7G22G 3G19G25G15G14G11
  22469573.346     8030106.37049   6379866.52147  22469573.029    22469576.977
  24690583.206    12675890.51649   9885391.30745  24690582.476    24690591.413
  22884894.485   -12840268.93649  -9985557.58946  22884893.188    22884898.750
  22426227.855   -13309376.86849 -10344941.07346  22426227.386    22426234.256
  22511104.794     8685404.71749   6776971.87846  22511103.758    22511111.521
  20669010.799   -17829885.23149 -13872223.83048  20669010.032    20669014.804
  22326766.510   -13368197.18749 -10394356.08246  22326765.932    22326771.408
 04  7 14 18 43 30.0000000  0  7G22G 3G19G25G15G14G11
  22481530.679     8092942.95449   6428830.06247  22481530.390    22481534.401
  24707843.322    12766592.24749   9956067.88545  24707842.705    24707851.408
  22896949.669   -12776918.19449  -9936193.42046  22896948.373    22896954.107
  22409788.280   -13395767.79949 -10412258.60746  22409787.717    22409794.592
  22530570.633     8787698.80249   6856681.48246  22530569.641    22530577.455
  20677489.624   -17785328.81649 -13837504.54448  20677488.852    20677493.641
  22313013.816   -13440467.59149 -10450670.63546  22313013.253    22313018.708
 04  7 14 18 44  0.0000000  0  7G22G 3G19G25G15G14G11
  22493515.913     8155926.18849   6477907.87746  22493515.623    22493519.753
  24725095.416    12857250.92049  10026710.88245  24725094.583    24725103.500
  22909075.484   -12713196.43449  -9886540.15146  22909074.268    22909080.043
  22393402.472   -13481875.56649 -10479355.49546  22393401.881    22393408.777
  22550089.443     8890270.23949   6936607.20846  22550088.369    22550096.165
  20686039.582   -17740398.57449 -13802493.96748  20686038.793    20686043.587
  22299329.767   -13512377.42749 -10506704.23946  22299329.206    22299334.653
 04  7 14 18 44 30.0000000  0  7G22G 3G19G25G15G14G11
  22505529.170     8219056.32549   6527100.16846  22505528.877    22505533.098
  24742338.378    12947864.11649  10097318.45345  24742337.706    24742346.675
  22921271.633   -12649106.22249  -9836599.75846  22921270.374    22921276.023
  22377071.037   -13567697.16949 -10546229.40046  22377070.477    22377077.395
  22569660.591     8993117.31349   7016747.71346  22569659.560    22569667.390
  20694660.331   -17695096.32549 -13767193.51448  20694659.545    20694664.353
  22285714.930   -13583924.07949 -10562454.84546  22285714.351    22285719.701
 04  7 14 18 45  0.0000000  0  7G22G 3G19G25G15G14G11
  22517570.504     8282333.31549   6576406.88347  22517570.150    22517574.446
  24759572.279    13038429.21849  10167888.55445  24759571.795    24759580.864
  22933537.369   -12584650.24049  -9786374.36546  22933536.043    22933541.570
  22360794.580   -13653229.93949 -10612878.25046  22360794.044    22360800.967
  22589283.806     9096237.95549   7097101.38946  22589282.825    22589290.585
  20703351.494   -17649423.97249 -13731604.66748  20703350.729    20703355.512
  22272169.616   -13655105.55849 -10617920.89946  22272169.008    22272174.259
 04  7 14 18 45 30.0000000  0  7G22G 3G19G25G15G14G11
  22529639.595     8345755.59349   6625826.81447  22529639.115    22529643.430
  24776796.677    13128942.19149  10238418.01945  24776795.981    24776805.140
  22945871.696   -12519832.78649  -9735867.30246  22945870.415    22945875.949
  22344573.419   -13738472.88049 -10679301.24946  22344572.814    22344579.691
  22608958.506     9199628.57149   7177665.45246  22608957.564    22608965.254
  20712112.439   -17603384.92649 -13695730.08248  20712111.683    20712116.469
  22258693.841   -13725921.00449 -10673101.72446  22258693.257    22258698.429
 04  7 14 18 46  0.0000000  0  7G22G 3G19G25G15G14G11
  22541736.697     8409324.63049   6675361.08347  22541736.041    22541740.359
  24794010.600    13219402.07949  10308906.15745  24794009.984    24794018.977
  22958274.501   -12454655.01949  -9685079.47846  22958273.268    22958278.880
  22328408.226   -13823421.58049 -10745494.97546  22328407.635    22328414.443
  22628684.571     9303288.87149   7258439.63846  22628683.578    22628691.234
  20720943.061   -17556979.58349 -13659570.07348  20720942.300    20720947.056
  22245288.534   -13796366.32649 -10727994.14246  22245287.957    22245293.080
 04  7 14 18 46 30.0000000  0  7G22G 3G19G25G15G14G11
  22553861.700     8473040.04749   6725009.41247  22553860.807    22553865.075
  24811213.963    13309805.74649  10379350.42945  24811213.354    24811222.390
  22970745.284   -12389120.21549  -9634013.46646  22970744.085    22970749.750
  22312299.477   -13908073.80649 -10811457.67846  22312298.857    22312305.534
  22648461.588     9407216.30749   7339421.97846  22648460.497    22648468.029
  20729842.986   -17510210.15949 -13623126.35948  20729842.239    20729846.989
  22231953.930   -13866440.41449 -10782597.28946  22231953.339    22231958.400
 04  7 14 18 47  0.0000000  0  7G22G 3G19G25G15G14G11
  22566014.385     8536901.29749   6774771.41847  22566013.314    22566017.521
  24828406.006    13400150.16949  10449748.55745  24828405.422    24828414.404
  22983283.440   -12323231.79649  -9582671.88546  22983282.294    22983287.922
  22296247.556   -13992427.17149 -10877187.50646  22296246.989    22296253.533
  22668288.787     9511408.33549   7420610.49046  22668287.710    22668295.193
  20738811.702   -17463079.04549 -13586400.81148  20738810.980    20738815.754
  22218690.438   -13936140.74749 -10836909.19946  22218689.801    22218694.800
 04  7 14 18 47 30.0000000  0  7G22G 3G19G25G15G14G11
  22578194.773     8600909.31749   6824647.75347  22578193.642    22578197.890
  24845586.396    13490433.48249  10520099.06445  24845585.749    24845594.687
  22995888.749   -12256991.56949  -9531056.17646  22995887.518    22995893.057
  22280253.173   -14076478.26149 -10942681.78946  22280252.662    22280259.089
  22688166.109     9615863.87849   7502004.35546  22688165.110    22688172.511
  20747849.015   -17415587.41549 -13549394.34848  20747848.284    20747853.091
  22205498.655   -14005464.25649 -10890927.48846  22205498.023    22205502.931
 04  7 14 18 48  0.0000000  0  6G22G19G25G15G14G11
  22590404.113     8665069.46249   6874642.64147  22590402.949    22590407.161
  23008561.732   -12190396.47849  -9479163.95246  23008560.325    23008565.675
  22264317.933   -14160218.58049 -11007933.91647  22264317.464    22264323.818
  22708094.322     9720586.50649   7583606.30946  22708093.274    22708100.727
  20756955.769   -17367731.19649 -13512103.78248  20756955.029    20756959.825
  22192380.049   -14074403.14849 -10944646.06946  22192379.415    22192384.279
 04  7 14 18 48 30.0000000  0  6G22G19G25G15G14G11
  22602641.317     8729375.96149   6924751.57347  22602640.147    22602644.300
  23021300.459   -12123455.28449  -9427002.04446  23021298.916    23021304.127
  22248441.164   -14243651.55549 -11072946.55847  22248440.645    22248447.037
  22728071.875     9825568.43349   7665410.34946  22728070.814    22728078.172
  20766130.369   -17319518.37349 -13474535.34748  20766129.608    20766134.436
  22179333.860   -14142961.12149 -10998067.83946  22179333.217    22179338.126
 04  7 14 18 49  0.0000000  0  6G22G19G25G15G14G11
  22614906.007     8793826.59449   6974972.80347  22614904.767    22614908.867
  23034103.753   -12056172.91949  -9374574.29146  23034102.293    23034107.439
  22232622.958   -14326776.51249 -11137719.18747  22232622.426    22232628.830
  22748097.930     9930805.61649   7747413.27846  22748096.860    22748104.254
  20775372.046   -17270953.01349 -13436692.20448  20775371.280    20775376.120
  22166360.132   -14211138.12449 -11051192.73946  22166359.469    22166364.422
 04  7 14 18 49 30.0000000  0  6G22G19G25G15G14G11
  22627198.285     8858422.81749   7025307.48546  22627197.028    22627201.122
  23046971.586   -11988550.80049  -9321881.79046  23046970.235    23046975.484
  22216864.064   -14409589.20849 -11202248.50047  22216863.596    22216870.018
  22768172.244    10036297.36749   7829614.56046  22768171.283    22768178.804
  20784680.727   -17222035.74649 -13398574.85148  20784679.955    20784684.814
  22153459.600   -14278930.73749 -11104018.11346  22153458.960    22153463.896
 04  7 14 18 50  0.0000000  0  6G22G19G25G15G14G11
  22639518.242     8923164.94949   7075755.86046  22639517.028    22639521.146
  23059903.650   -11920591.40949  -9268926.48546  23059902.342    23059907.922
  22201165.164   -14492086.84649 -11266532.31447  22201164.684    22201171.170
  22788294.856    10142041.67649   7912012.66046  22788293.862    22788301.391
  20794056.093   -17172768.12849 -13360184.49248  20794055.305    20794060.145
  22140632.779   -14346336.00449 -11156541.66246  22140632.130    22140637.044
 04  7 14 18 50 30.0000000  0  6G22G19G25G15G14G11
  22651865.880     8988052.40549   7126317.47446  22651864.730    22651868.911
  23072899.263   -11852298.21149  -9215711.06646  23072898.044    23072903.851
  22185526.680   -14574267.35749 -11330569.01247  22185526.180    22185532.748
  22808464.956    10248036.20549   7994605.71346  22808463.978    22808471.626
  20803497.667   -17123152.38049 -13321522.86948  20803496.879    20803501.739
  22127879.877   -14413352.36649 -11208762.16446  22127879.278    22127884.236
 04  7 14 18 51  0.0000000  0  6G22G19G25G15G14G11
  22664241.302     9053086.23849   7176993.14546  22664240.213    22664244.473
  23085958.333   -11783672.69649  -9162236.69346  23085957.085    23085963.006
  22169949.209   -14656126.73449 -11394355.49547  22169948.734    22169955.336
  22828682.560    10354280.18849   8077393.16246  22828681.563    22828689.280
  20813005.271   -17073189.47849 -13282590.73448  20813004.517    20813009.370
  22115201.660   -14479976.32949 -11260676.90246  22115201.085    22115206.127
 04  7 14 18 51 30.0000000  0  6G22G19G25G15G14G11
  22676644.373     9118265.30149   7227781.98746  22676643.416    22676647.701
  23099079.939   -11714718.94849  -9108506.56146  23099078.560    23099084.541
  22154433.256   -14737663.42449 -11457890.52747  22154432.795    22154439.306
  22848946.905    10460770.43549   8160372.48546  22848945.944    22848953.759
  20822578.391   -17022882.46449 -13243390.46348  20822577.659    20822582.484
  22102598.377   -14546206.98949 -11312285.17446  22102597.770    22102602.852
 04  7 14 18 52  0.0000000  0  6G22G19G25G15G14G11
  22689075.196     9183589.87549   7278684.20446  22689074.301    22689078.580
  23112263.196   -11645439.82549  -9054522.89246  23112262.004    23112267.863
  22138979.192   -14818874.79749 -11521172.05447  22138978.724    22138985.198
  22869257.873    10567504.75349   8243542.00246  22869256.844    22869264.770
  20832216.613   -16972233.10449 -13203923.42648  20832215.877    20832220.670
  22090070.394   -14612041.93949 -11363585.09747  22090069.783    22090074.871
 04  7 14 18 52 30.0000000  0  6G22G19G25G15G14G11
  22701533.526     9249059.23749   7329699.26546  22701532.726    22701537.040
  23125507.926   -11575838.70449  -9000288.31846  23125506.764    23125512.490
  22123587.420   -14899758.79449 -11584198.49447  22123586.920    22123593.362
  22889614.586    10674480.68649   8326899.80246  22889613.620    22889621.681
  20841919.540   -16921243.81049 -13164191.51048  20841918.810    20841923.614
  22077618.012   -14677479.51849 -11414575.38547  22077617.383    22077622.492
 04  7 14 18 53  0.0000000  0  6G22G19G25G15G14G11
  22714019.563     9314674.59549   7380828.08346  22714018.922    22714023.205
  23138813.800   -11505917.22049  -8945804.10246  23138812.583    23138818.156
  22108258.675   -14980311.48549 -11646966.76847  22108258.191    22108264.637
  22910017.201    10781697.39149   8410445.21146  22910016.316    22910024.441
  20851687.019   -16869915.22649 -13124195.21448  20851686.278    20851691.128
  22065241.939   -14742516.13149 -11465253.21747  22065241.301    22065246.445
 04  7 14 18 53 30.0000000  0  6G22G19G25G15G14G11
  22726533.297     9380434.92049   7432069.86646  22726532.709    22726536.993
  23152180.030   -11435679.12049  -8891073.17146  23152178.670    23152184.256
  22092993.348   -15060531.00649 -11709475.43147  22092992.809    22092999.372
  22930465.249    10889151.71849   8494175.77446  22930464.230    22930472.463
  20861518.486   -16818250.34849 -13083936.87047  20861517.742    20861522.637
  22052942.269   -14807150.83349 -11515617.88647  22052941.646    22052946.875
 04  7 14 18 54  0.0000000  0  6G22G19G25G15G14G11
  22739074.763     9446340.67249   7483424.96346  22739074.147    22739078.459
  23165605.786   -11365126.83849  -8836097.42346  23165604.386    23165610.179
  22077791.883   -15140414.57549 -11771722.32247  22077791.374    22077798.015
  22950957.984    10996842.08749   8578090.27846  22950956.993    22950965.337
  20871413.669   -16766250.72049 -13043417.68247  20871412.932    20871417.825
  22040719.642   -14871381.08649 -11565667.39047  22040719.028    22040724.264
 04  7 14 18 54 30.0000000  0  6G22G19G25G15G14G11
  22751643.764     9512391.54049   7534893.13646  22751643.165    22751647.536
  23179090.243   -11294263.75649  -8780879.50546  23179089.081    23179095.168
  22062654.768   -15219959.91849 -11833705.65547  22062654.332    22062661.056
  22971495.137    11104765.88349   8662186.66446  22971494.175    22971502.662
  20881372.081   -16713918.81549 -13002639.57747  20881371.348    20881376.259
  22028574.419   -14935205.02049 -11615400.28447  22028573.756    22028578.995
 04  7 14 18 55  0.0000000  0  6G22G19G25G15G14G11
  22764240.352     9578587.75049   7586474.56346  22764239.825    22764244.248
  23192633.597   -11223092.16549  -8725421.16946  23192632.505    23192638.790
  22047582.737   -15299163.92949 -11895423.02047  22047582.257    22047588.984
  22992076.634    11212921.59449   8746463.75246  22992075.667    22992084.025
  20891393.517   -16661255.75949 -12961603.43447  20891392.800    20891397.718
  22016506.989   -14998620.00249 -11664814.52047  22016506.300    22016511.511
 04  7 14 18 55 30.0000000  0  6G22G19G25G15G14G11
  22776864.677     9644929.72549   7638169.58546  22776864.205    22776868.703
  23206235.454   -11151614.52149  -8669724.37646  23206234.308    23206240.508
  22032576.193   -15378023.51449 -11956872.01047  22032575.745    22032582.472
  23012701.718    11321307.64649   8830920.31846  23012700.769    23012709.229
  20901477.675   -16608263.23849 -12920310.56448  20901476.959    20901481.861
  22004517.864   -15061623.30149 -11713907.96847  22004517.200    22004522.385
 04  7 14 18 56  0.0000000  0  6G22G19G25G15G14G11
  22789516.678     9711416.60449   7689977.50946  22789516.256    22789520.780
  23219894.784   -11079834.89349  -8613792.25346  23219893.642    23219899.574
  22017635.490   -15456537.27549 -12018051.51647  22017635.048    22017641.736
  23033370.031    11429920.98049   8915554.00046  23033369.171    23033377.600
  20911623.991   -16554943.96849 -12878763.09047  20911623.284    20911628.221
  21992607.247   -15124213.89749 -11762679.82847  21992606.605    21992611.749
 04  7 14 18 56 30.0000000  0  6G22G19G25G15G14G11
  22802196.359     9778048.10849   7741898.11746  22802195.858    22802200.440
  23233610.837   -11007756.51749  -8557627.33446  23233609.627    23233615.569
  22002761.016   -15534703.16749 -12078959.96047  22002760.556    22002767.225
  23054081.318    11538759.12749   9000362.86146  23054080.541    23054089.010
  20921832.003   -16501300.49449 -12836962.98947  20921831.278    20921836.233
  21980775.524   -15186390.07649 -11811128.76247  21980774.856    21980779.994
 04  7 14 18 57  0.0000000  0  6G22G19G25G15G14G11
  22814903.298     9844823.68449   7793931.00046  22814902.802    22814907.399
  23247383.151   -10935382.71649  -8501232.23146  23247381.902    23247387.953
  21987953.095   -15612518.92149 -12139595.56247  21987952.708    21987959.334
  23074835.057    11647819.67349   9085345.02746  23074834.194    23074842.605
  20932101.280   -16447334.99849 -12794911.96147  20932100.568    20932105.526
  21969023.025   -15248149.91949 -11859253.28847  21969022.342    21969027.429
 04  7 14 18 57 30.0000000  0  6G22G19G25G15G14G11
  22827637.779     9911743.81849   7846076.52146  22827637.306    22827641.949
  23261211.001   -10862715.98149  -8444608.89346  23261209.909    23261216.010
  21973212.396   -15689981.37049 -12199955.86547  21973212.002    21973218.637
  23095630.666    11757100.78649   9170499.05446  23095629.749    23095638.233
  20942431.575   -16393048.90749 -12752611.12147  20942430.847    20942435.805
  21957350.137   -15309490.84449 -11907051.38947  21957349.513    21957354.595
 04  7 14 18 58  0.0000000  0  6G22G19G25G15G14G11
  22840399.893     9978808.95649   7898335.03946  22840399.410    22840404.102
  23275094.515   -10789758.77749  -8387759.18446  23275093.348    23275099.286
  21958539.632   -15767087.11149 -12260038.21847  21958539.220    21958545.863
  23116467.808    11866601.13949   9255823.90546  23116466.983    23116475.479
  20952822.647   -16338443.57449 -12710061.51647  20952821.943    20952826.882
  21945757.402   -15370410.53849 -11954521.25247  21945756.769    21945761.953
 04  7 14 18 58 30.0000000  0  6G22G19G25G15G14G11
  22853189.498    10046018.35949   7950705.96846  22853188.996    22853193.717
  23289032.870   -10716514.62649  -8330685.87846  23289031.519    23289037.243
  21943934.892   -15843835.11649 -12319841.81447  21943934.481    21943941.126
  23137346.180    11976317.65049   9341317.18945  23137345.299    23137353.907
  20963273.871   -16283521.87749 -12667265.39447  20963273.168    20963278.103
  21934245.081   -15430907.58249 -12001661.77947  21934244.459    21934249.718
 04  7 14 18 59  0.0000000  0  6G22G19G25G15G14G11
  22866006.479    10113372.00049   8003189.28446  22866005.994    22866010.804
  23303024.765   -10642986.57249  -8273391.36446  23303023.433    23303029.272
  21929398.802   -15920223.04649 -12379364.82947  21929398.323    21929404.912
  23158265.225    12086247.65849   9426976.83445  23158264.357    23158273.028
  20973784.980   -16228285.77449 -12624224.28247  20973784.261    20973789.197
  21922813.631   -15490979.61649 -12048471.12647  21922813.052    21922818.374
 04  7 14 18 59 30.0000000  0  6G22G19G25G15G14G11
  22878851.148    10180870.70649   8055785.63946  22878850.611    22878855.457
  23317070.092   -10569176.33949  -8215876.97046  23317069.029    23317074.989
  21914931.953   -15996246.75949 -12438604.04447  21914931.459    21914938.028
  23179224.797    12196390.63049   9512802.41745  23179223.907    23179232.672
  20984355.734   -16172736.11449 -12580938.84747  20984355.013    20984359.957
  21911463.649   -15550623.79849 -12094947.08347  21911463.140    21911468.428
 04  7 14 19  0  0.0000000  0  6G22G19G25G15G14G11
  22891723.173    10248513.17249   8108494.01646  22891722.620    22891727.454
  23331168.630   -10495088.53849  -8158146.29646  23331167.528    23331173.509
  21900534.470   -16071905.33749 -12497558.73547  21900534.096    21900540.680
  23200224.254    12306742.84349   9598791.05245  23200223.269    23200232.080
  20994985.519   -16116876.21449 -12537411.65947  20994984.794    20994989.753
  21900195.267   -15609839.41549 -12141089.09147  21900194.731    21900199.989
 04  7 14 19  0 30.0000000  0  6G22G19G25G15G14G11
  22904622.536    10316299.25449   8161314.29746  22904621.980    22904626.707
  23345319.542   -10420726.38149  -8100201.83246  23345318.322    23345324.200
  21886207.047   -16147196.52949 -12556227.15447  21886206.674    21886213.250
  23221263.061    12417301.94649   9684940.90745  23221262.114    23221270.771
  21005673.923   -16060708.33749 -12493644.48347  21005673.215    21005678.175
  21889008.827   -15668624.62849 -12186895.71447  21889008.295    21889013.488
 04  7 14 19  1  0.0000000  0  6G22G19G25G15G14G11
  22917549.256    10384229.41749   8214246.85846  22917548.741    22917553.423
  23359522.128   -10346092.22949  -8042045.42646  23359520.800    23359526.696
  21871950.205   -16222117.15649 -12614606.83247  21871949.764    21871956.324
  23242340.893    12528066.66549   9771250.98445  23242340.012    23242348.746
  21016420.733   -16004233.59749 -12449638.19547  21016419.985    21016424.954
  21877904.909   -15726976.52249 -12232364.69547  21877904.342    21877909.469
 04  7 14 19  1 30.0000000  0  6G22G19G25G15G14G11
  22930503.496    10452304.01649   8267291.95946  22930502.943    22930507.606
  23373775.678   -10271188.58649  -7983679.04146  23373774.423    23373780.468
  21857764.447   -16296664.20049 -12672695.39947  21857763.995    21857770.484
  23263457.678    12639035.01749   9857719.69546  23263456.734    23263465.461
  21027225.580   -15947453.64349 -12405394.07647  21027224.825    21027229.810
  21866883.758   -15784892.90549 -12277494.31647  21866883.192    21866888.318
 04  7 14 19  2  0.0000000  0  7G22G23G19G25G15G14G11
  22943484.823    10520520.93049   8320447.94646  22943484.286    22943488.879
  24762977.862    -2192530.54149  -1444966.90345  24762976.616    24762982.007
  23388079.513   -10196020.72449  -7925106.75446  23388078.360    23388084.479
  21843649.695   -16370837.75149 -12730492.93547  21843649.236    21843655.652
  23284612.219    12750202.44149   9944343.54646  23284611.339    23284620.038
  21038087.687   -15890372.72549 -12360915.44947  21038086.965    21038091.983
  21855945.488   -15842374.04549 -12322284.78647  21855944.904    21855950.037
 04  7 14 19  2 30.0000000  0  7G22G23G19G25G15G14G11
  22956493.064    10588879.74949   8373714.50746  22956492.471    22956497.081
  24744100.779    -2291730.74049  -1522265.63845  24744099.578    24744105.017
  23402433.216   -10120591.89749  -7866331.13546  23402432.034    23402438.198
  21829606.373   -16444635.81949 -12787997.88647  21829605.938    21829612.288
  23305804.060    12861566.68749  10031120.76745  23305803.257    23305812.039
  21049006.677   -15832993.10349 -12316204.05847  21049005.966    21049010.979
  21845090.345   -15899418.34349 -12366734.86547  21845089.759    21845094.858
 04  7 14 19  3  0.0000000  0  7G22G23G19G25G15G14G11
  22969529.171    10657385.36849   8427095.46546  22969528.646    22969533.277
  24725246.672    -2390801.76849  -1599463.65945  24725246.041    24725252.363
  23416836.968   -10044899.83449  -7807350.38746  23416835.802    23416841.934
  21815636.037   -16518050.55349 -12845204.13447  21815635.570    21815641.811
  23327034.161    12973130.82649  10118053.75645  23327033.301    23327042.031
  21059983.162   -15775311.44349 -12271257.31547  21059982.427    21059987.435
  21834319.764   -15956018.36749 -12410838.75047  21834319.135    21834324.188
 04  7 14 19  3 30.0000000  0  7G22G23G19G25G15G14G11
  22982593.203    10726036.89649   8480590.12446  22982592.622    22982597.217
  24706417.683    -2489743.63049  -1676561.07245  24706417.333    24706424.099
  23431290.220    -9968948.88449  -7748167.91246  23431289.006    23431294.920
  21801738.827   -16591080.72249 -12902110.71947  21801738.410    21801744.591
  23348301.572    13084891.59649  10205139.95545  23348300.718    23348309.486
  21071016.514   -15717330.87349 -12226077.65247  21071015.779    21071020.760
  21823633.872   -16012173.39149 -12454595.88947  21823633.213    21823638.192
 04  7 14 19  4  0.0000000  0  8G22G23G19G25G20G15G14G11
  22995683.991    10794829.74549   8534194.88546  22995683.429    22995688.086
  24687613.713    -2588559.81349  -1753560.64545  24687613.220    24687619.925
  23445791.498    -9892746.32949  -7688789.38746  23445790.057    23445795.844
  21787914.477   -16663728.39749 -12958719.24747  21787914.041    21787920.167
  24703535.799    -3404490.96249  -2636662.80245  24703535.418    24703544.105
  23369605.336    13196842.24249  10292374.13045  23369604.300    23369613.061
  21082105.569   -15659057.59549 -12180669.90047  21082104.843    21082109.809
  21813032.153   -16067885.69449 -12498008.04547  21813031.463    21813036.441
 04  7 14 19  4 30.0000000  0  8G22G23G19G25G20G15G14G11
  23008801.702    10863763.10449   8587909.16046  23008801.079    23008805.697
  24668834.147    -2687250.07749  -1830462.04945  24668833.262    24668839.726
  23460339.639    -9816296.06349  -7629217.83546  23460338.196    23460344.056
  21774163.163   -16735991.94949 -13015028.47347  21774162.701    21774168.822
  24686748.095    -3492717.74549  -2705410.85645  24686747.039    24686755.007
  23390944.329    13308979.95549  10379754.03245  23390943.316    23390952.198
  21093249.749   -15600494.56449 -12135036.37247  21093249.037    21093253.968
  21802514.822   -16123154.25749 -12541074.43947  21802514.164    21802519.169
 04  7 14 19  5  0.0000000  0  9G22G23G 1G19G25G20G15G14G11
  23021946.503    10932839.93749   8641735.20746  23021945.968    23021950.554
  24650078.888    -2785810.29949  -1907262.16845  24650077.916    24650084.438
  24567373.436    -2008148.73549  -1069751.99945  24567373.421    24567382.355
  23474934.803    -9739598.30049  -7569453.42346  23474933.382    23474939.384
  21760485.815   -16807866.35549 -13071034.46447  21760485.390    21760491.545
  24669959.259    -3580949.98949  -2774163.17445  24669957.922    24669964.895
  23412319.217    13421305.27649  10467280.12945  23412318.219    23412327.065
  21104449.274   -15541640.79549 -12089176.29247  21104448.584    21104453.495
  21792082.865   -16177974.34249 -12583791.36647  21792082.196    21792087.236
 04  7 14 19  5 30.0000000  0  9G22G23G 1G19G25G20G15G14G11
  23035118.538    11002058.89749   8695672.02746  23035117.979    23035122.532
  24631348.108    -2884240.11449  -1983960.62645  24631347.084    24631354.026
  24549334.269    -2102948.19149  -1143621.56545  24549333.819    24549342.817
  23489576.148    -9662656.94249  -7509499.22246  23489574.746    23489581.089
  21746882.811   -16879350.21849 -13126736.13247  21746882.377    21746888.606
  24653168.771    -3669188.13649  -2842920.09145  24653166.969    24653173.759
  23433729.192    13533814.95249  10554949.89745  23433728.237    23433736.865
  21115703.563   -15482499.21649 -12043091.95647  21115702.833    21115707.762
  21781736.437   -16232345.02849 -12626158.10947  21781735.768    21781740.805
 04  7 14 19  6  0.0000000  0  9G22G23G 1G19G25G20G15G14G11
  23048318.060    11071422.92149   8749721.88646  23048317.492    23048322.108
  24612642.250    -2982535.95149  -2060554.67745  24612641.604    24612648.893
  24531324.116    -2197593.35249  -1217370.91645  24531323.648    24531332.654
  23504263.791    -9585472.22449  -7449355.36746  23504262.538    23504269.043
  21733355.124   -16950438.33349 -13182129.43147  21733354.692    21733360.976
  24636376.312    -3757429.05849  -2911679.17045  24636374.585    24636381.997
  23455174.325    13646509.44349  10642763.65245  23455173.261    23455181.976
  21127012.784   -15423068.89349 -11996782.61747  21127012.044    21127016.976
  21771476.458   -16286261.34549 -12668170.79847  21771475.811    21771480.788
 04  7 14 19  6 30.0000000  0  9G22G23G 1G19G25G20G15G14G11
  23061545.553    11140933.77249   8803886.15046  23061544.985    23061549.679
  24593962.509    -3080694.99449  -2137042.11845  24593961.935    24593969.095
  24513343.816    -2292081.36549  -1290997.85645  24513343.256    24513352.275
  23518997.703    -9508045.49049  -7389022.93946  23518996.447    23519002.831
  21719903.615   -17021126.52949 -13237211.10547  21719903.144    21719909.462
  24619583.071    -3845670.20949  -2980438.48145  24619582.350    24619590.145
  23476654.614    13759388.46449  10730721.20545  23476653.541    23476662.226
  21138376.887   -15363350.14949 -11950248.53947  21138376.157    21138381.077
  21761303.610   -16339719.86549 -12709826.76847  21761302.973    21761308.002
 04  7 14 19  7  0.0000000  0  9G22G23G 1G19G25G20G15G14G11
  23074800.550    11210588.95149   8858162.87146  23074799.988    23074804.742
  24575309.708    -3178718.17749  -2213423.74345  24575309.057    24575315.255
  24495392.799    -2386413.72849  -1364503.46445  24495392.274    24495401.422
  23533776.624    -9430382.17649  -7328506.17046  23533775.366    23533781.539
  21706528.235   -17091414.77249 -13291981.11747  21706527.713    21706534.089
  24602790.382    -3933913.46949  -3049199.39945  24602789.914    24602797.578
  23498169.059    13872447.35849  10818818.95245  23498167.917    23498176.597
  21149795.040   -15303347.19349 -11903493.00247  21149794.342    21149799.216
  21751217.755   -16392720.99949 -12751126.32847  21751217.126    21751222.170
 04  7 14 19  7 30.0000000  0  9G22G23G 1G19G25G20G15G14G11
  23088082.773    11280387.21249   8912551.07046  23088082.243    23088087.043
  24556683.020    -3276606.09349  -2289699.93645  24556682.082    24556687.976
  24477470.541    -2480590.62649  -1437887.96745  24477470.161    24477480.110
  23548599.711    -9352486.43749  -7267808.27046  23548598.484    23548604.541
  21693228.957   -17161302.22249 -13346438.82347  21693228.520    21693234.945
  24585998.029    -4022159.65349  -3117962.53245  24585997.318    24586004.828
  23519716.945    13985682.80849  10907054.25845  23519715.910    23519724.604
  21161266.693   -15243063.44049 -11856518.65847  21161265.960    21161270.848
  21741219.102   -16445264.08949 -12792068.97747  21741218.478    21741223.550
 04  7 14 19  8  0.0000000  0  9G22G23G 1G19G25G20G15G14G11
  23101392.216    11350328.52949   8967050.75746  23101391.689    23101396.473
  24538082.005    -3374357.36549  -2365869.63045  24538080.850    24538086.943
  24459578.923    -2574610.84649  -1511150.38045  24459578.575    24459588.540
  23563466.489    -9274361.48849  -7206931.78946  23563465.332    23563471.608
  21680006.509   -17230786.77749 -13400582.59147  21680005.994    21680012.420
  24569204.959    -4110408.22249  -3186727.55245  24569204.254    24569211.760
  23541298.139    14099092.58949  10995425.39045  23541297.159    23541305.876
  21172791.409   -15182500.52249 -11809326.79247  21172790.682    21172795.613
  21731307.927   -16497347.19749 -12832653.19547  21731307.319    21731312.433
 04  7 14 19  8 30.0000000  0  9G22G23G 1G19G25G20G15G14G11
  23114728.682    11420411.91549   9021661.13946  23114728.166    23114732.951
  24519506.638    -3471971.80949  -2441932.70545  24519505.410    24519511.641
  24441718.139    -2668474.27049  -1584290.62545  24441717.421    24441727.030
  23578376.523    -9196011.03749  -7145879.57846  23578375.180    23578381.604
  21666861.023   -17299866.77049 -13454411.10747  21666860.455    21666866.896
  24552411.290    -4198659.32349  -3255494.55345  24552410.500    24552418.140
  23562911.784    14212673.59849  11083929.94045  23562910.976    23562919.795
  21184368.779   -15121661.10149 -11761919.46247  21184368.037    21184372.967
  21721484.478   -16548969.32949 -12872878.21347  21721483.900    21721489.022
 04  7 14 19  9  0.0000000  0  9G22G23G 1G19G25G20G15G14G11
  23128092.233    11490637.95949   9076382.68246  23128091.735    23128096.606
  24500957.043    -3569447.80749  -2517887.89045  24500955.942    24500962.599
  24423886.976    -2762179.43049  -1657307.53545  24423886.146    24423895.640
  23593328.573    -9117437.68949  -7084653.68146  23593327.200    23593333.545
  21653793.037   -17368539.18449 -13507922.03247  21653792.502    21653798.898
  24535616.979    -4286911.86449  -3324262.68745  24535616.187    24535624.551
  23584557.904    14326424.15049  11172566.61445  23584557.130    23584565.980
  21195998.423   -15060546.87449 -11714298.00447  21195997.696    21196002.623
  21711749.237   -16600128.01849 -12912742.10247  21711748.689    21711753.773
 04  7 14 19  9 30.0000000  0  9G22G23G 1G19G25G20G15G14G11
  23141483.131    11561007.85049   9131216.33046  23141482.645    23141487.678
  24482434.260    -3666782.93349  -2593733.29445  24482433.325    24482440.058
  24406085.674    -2855723.94849  -1730199.27045  24406084.910    24406094.379
  23608322.425    -9038643.28249  -7023255.52346  23608321.130    23608327.496
  21640803.260   -17436800.74449 -13561112.80947  21640802.714    21640809.105
  24518822.612    -4375163.83649  -3393030.38345  24518822.163    24518830.841
  23606236.503    14440343.50549  11261334.82445  23606235.453    23606244.334
  21207680.268   -14999158.40949 -11666462.84647  21207679.529    21207684.479
  21702102.889   -16650820.22849 -12952242.50947  21702102.327    21702107.368
 04  7 14 19 10  0.0000000  0  9G22G23G 1G19G25G20G15G14G11
  23154901.373    11631520.75249   9186161.41046  23154900.925    23154905.977
  24463938.708    -3763977.12449  -2669468.92945  24463937.688    24463944.229
  24388314.154    -2949107.77849  -1802965.73245  24388313.734    24388323.599
  23623357.521    -8959631.53149  -6961688.02846  23623356.401    23623362.709
  21627891.865   -17504650.15149 -13613982.42947  21627891.382    21627897.715
  24502028.826    -4463415.89349  -3461798.16745  24502028.178    24502036.956
  23627946.149    14554428.42849  11350232.03645  23627945.254    23627954.202
  21219413.788   -14937498.41349 -11618416.11047  21219413.046    21219418.000
  21692545.427   -16701044.98849 -12991378.67247  21692544.864    21692549.889
 04  7 14 19 10 30.0000000  0  9G22G23G 1G19G25G20G15G14G11
  23168346.868    11702175.80049   9241217.24246  23168346.357    23168351.286
  24445469.845    -3861030.10949  -2745094.47545  24445468.894    24445475.108
  24370574.258    -3042330.31149  -1875606.49545  24370573.642    24370583.915
  23638433.683    -8880406.50749  -6899954.33546  23638432.583    23638438.646
  21615059.253   -17572086.01049 -13666529.80247  21615058.756    21615065.072
  24485235.517    -4551667.86749  -3530565.86245  24485234.445    24485243.060
  23649686.961    14668676.11449  11439256.06145  23649686.082    23649695.048
  21231198.496   -14875569.46649 -11570159.79847  21231197.768    21231202.721
  21683077.111   -16750801.18849 -13030149.72047  21683076.538    21683081.546
 04  7 14 19 11  0.0000000  0  9G22G23G 1G19G25G20G15G14G11
  23181819.014    11772971.59049   9296382.74946  23181818.461    23181823.252
  24427028.118    -3957941.97149  -2820610.10945  24427027.261    24427033.154
  24352865.374    -3135391.92849  -1948121.95245  24352864.532    24352874.845
  23653550.230    -8800972.24949  -6838057.59046  23653548.788    23653554.611
  21602305.581   -17639107.09349 -13718753.97347  21602305.075    21602311.345
  24468442.007    -4639920.64749  -3599334.17545  24468440.472    24468449.202
  23671458.165    14783082.86649  11528404.03045  23671457.171    23671466.190
  21243033.704   -14813374.99049 -11521696.59047  21243032.974    21243037.960
  21673698.109   -16800088.36749 -13068555.30247  21673697.521    21673702.509
 04  7 14 19 11 30.0000000  0  9G22G23G 1G19G25G20G15G14G11
  23195318.091    11843909.98749   9351659.35346  23195317.616    23195322.338
  24408613.978    -4054710.11549  -2896013.74745  24408612.939    24408618.905
  24335187.623    -3228289.91549  -2020509.82345  24335186.890    24335196.997
  23668705.795    -8721330.15649  -6775998.89046  23668704.297    23668710.210
  21589631.499   -17705709.64649 -13770652.01247  21589630.999    21589637.232
  24451648.065    -4728171.74349  -3668101.18945  24451646.788    24451655.422
  23693259.563    14897648.23349  11617675.60145  23693258.408    23693267.474
  21254919.423   -14750915.06749 -11473026.53547  21254918.736    21254923.705
  21664408.945   -16848903.19049 -13106592.81947  21664408.382    21664413.357
 04  7 14 19 12  0.0000000  0  9G22G23G 1G19G25G20G15G14G11
  23208844.462    11914991.23349   9407047.28346  23208843.912    23208848.686
  24390226.693    -4151333.04149  -2971304.20945  24390225.760    24390232.372
  24317541.542    -3321022.81749  -2092769.10945  24317540.626    24317550.868
  23683899.928    -8641482.90549  -6713780.37146  23683898.588    23683904.809
  21577037.564   -17771890.87549 -13822221.74847  21577037.118    21577043.317
  24434854.538    -4816420.31749  -3736866.20645  24434853.592    24434862.026
  23715090.396    15012370.31149  11707069.29145  23715089.435    23715098.623
  21266855.421   -14688191.19349 -11424150.80047  21266854.683    21266859.680
  21655210.101   -16897243.34349 -13144260.45447  21655209.491    21655214.455
 04  7 14 19 12 30.0000000  0  9G22G23G 1G19G25G20G15G14G11
  23222397.851    11986214.92349   9462546.22946  23222397.329    23222402.247
  24371866.866    -4247809.99749  -3046480.90345  24371866.408    24371873.532
  24299926.931    -3413589.95949  -2164899.22245  24299925.722    24299935.903
  23699132.774    -8561433.91449  -6651404.63245  23699131.602    23699137.800
  21564524.236   -17837648.89149 -13873461.71647  21564523.771    21564529.930
  24418061.464    -4904666.00049  -3805628.99145  24418060.938    24418069.178
  23736950.884    15127246.65449  11796583.17445  23736949.822    23736959.033
  21278841.193   -14625205.39149 -11375070.97347  21278840.505    21278845.503
  21646101.882   -16945107.24949 -13181556.99347  21646101.286    21646106.207
 04  7 14 19 13  0.0000000  0  9G22G23G 1G19G25G20G15G14G11
  23235978.487    12057581.21449   9518156.25746  23235977.927    23235982.888
  24353536.090    -4344139.48049  -3121542.73545  24353535.588    24353542.389
  24282343.286    -3505989.99649  -2236899.12945  24282342.296    24282352.277
  23714403.801    -8481185.89049  -6588873.80045  23714402.510    23714408.615
  21552091.817   -17902981.56349 -13924370.24447  21552091.318    21552097.440
  24401269.575    -4992907.53149  -3874388.54845  24401269.153    24401277.250
  23758840.254    15242275.15949  11886215.66845  23758839.258    23758848.440
  21290876.529   -14561959.44149 -11325788.42847  21290875.793    21290880.801
  21637084.640   -16992492.86049 -13218480.82547  21637084.059    21637088.967
 04  7 14 19 13 30.0000000  0  9G22G23G 1G19G25G20G15G14G11
  23249585.722    12129088.51049   9573876.18146  23249585.257    23249590.258
  24335233.519    -4440322.04149  -3196490.09545  24335232.769    24335239.189
  24264791.360    -3598223.47649  -2308769.23445  24264790.466    24264800.306
  23729711.732    -8400743.55149  -6526191.56445  23729710.274    23729716.585
  21539740.436   -17967887.99249 -13974946.62647  21539739.969    21539746.068
  24384478.910    -5081146.30149  -3943145.93345  24384478.017    24384485.953
  23780757.802    15357452.06549  11975963.75145  23780756.815    23780766.008
  21302960.733   -14498456.81349 -11276305.88047  21302959.978    21302965.003
  21628158.462   -17039400.00049 -13255031.82447  21628157.918    21628162.802
